Pomme de Terre River (Missouri), Hermitage (06921350)

StateMissouriLatestFlood (3560 cfs)
RiverPomme de Terre RiverRatingObservedEstimated
Updated2024-06-14 21:45 (53 minutes ago)Flood - The river is flooding. Obstacles can be treacherous or deadly. The river should be avoided at this stage for casual trips and definitely for the inexperienced. Trips should be attempted only with protective gear and equipment.Flood(none)3137
Discharge3560 cfs (median: 341 cfs)High - The river is high and potentially dangerous, especially for the young and / or inexperienced. Normal stream obstacles are sometimes difficult to navigate. Extended distances can be attempted, but canoe travel may not be advisable.High(none)1751
Height8.88 feetGood - Conditions are ideal for a canoe or kayak. Boats typically will drag on fewer than one-quarter of riffles, if at all, and portages are unnecessary or rare. Normal float lengths can be attempted without a problem.Good(none)357
TrendRising (falling over 24 hours)Low - River is low but can still be floated. Some riffles are okay but most come with significant dragging and might need a portage. Float lengths should be reduced to accommodate low flow, dragging, and portages.Low(none)251
USGSExternal icon USGS Site (External icon Duck Duck Go Maps)Poor - River is too low to float comfortably. Most or all riffles will drag or must be portaged and some obstacles (such as slick shelf rock) cause undue problems. Avoid the river at this stage for casual paddling trips.Poor(none)68

Trending Data

Plot Image

Trips for Pomme de Terre River (Missouri), Hermitage (06921350)

DateStartEndDistanceConditionDischargeHeightFishingDetails

A total of 0 rows are displayed.

Condition Descriptions

Fishing Conditions

Fish Species

Notes

Classic Trip List

The classic River Trips application is still available for use. It is updated with the new system using a data retrofit. It is no longer maintained. The original River Trips application is no longer updated (as of 1 Dec 2016) but can be checked for errors or for the condition of the data before it was converted to the new system.

Gauge Data Table

ObservationHeightDischargeMaximum
Discharge
Minimum
Discharge
Mean
Discharge
P05P10P20P25P50
(Median)
P75P80P90P95
2024-06-14 21:45 8.88 3560 3550 (1995) 24 (1963) 771 47 52 79 87 341 1050 1200 2570 3060
2024-06-14 20:45 8.87 3550 3550 (1995) 24 (1963) 771 47 52 79 87 341 1050 1200 2570 3060
2024-06-14 19:45 8.91 3590 3550 (1995) 24 (1963) 771 47 52 79 87 341 1050 1200 2570 3060
2024-06-14 18:45 8.89 3570 3550 (1995) 24 (1963) 771 47 52 79 87 341 1050 1200 2570 3060
2024-06-14 17:45 8.89 3570 3550 (1995) 24 (1963) 771 47 52 79 87 341 1050 1200 2570 3060
2024-06-14 16:45 8.89 3570 3550 (1995) 24 (1963) 771 47 52 79 87 341 1050 1200 2570 3060
2024-06-14 15:45 8.88 3560 3550 (1995) 24 (1963) 771 47 52 79 87 341 1050 1200 2570 3060
2024-06-14 14:45 8.89 3570 3550 (1995) 24 (1963) 771 47 52 79 87 341 1050 1200 2570 3060
2024-06-14 13:45 8.90 3580 3550 (1995) 24 (1963) 771 47 52 79 87 341 1050 1200 2570 3060
2024-06-14 12:45 8.87 3550 3550 (1995) 24 (1963) 771 47 52 79 87 341 1050 1200 2570 3060
2024-06-14 11:45 8.83 3510 3550 (1995) 24 (1963) 771 47 52 79 87 341 1050 1200 2570 3060
2024-06-14 10:45 8.38 3090 3550 (1995) 24 (1963) 771 47 52 79 87 341 1050 1200 2570 3060
2024-06-14 09:45 8.34 3050 3550 (1995) 24 (1963) 771 47 52 79 87 341 1050 1200 2570 3060
2024-06-14 08:45 7.99 2750 3550 (1995) 24 (1963) 771 47 52 79 87 341 1050 1200 2570 3060
2024-06-14 07:45 7.77 2560 3550 (1995) 24 (1963) 771 47 52 79 87 341 1050 1200 2570 3060
2024-06-14 06:45 7.75 2550 3550 (1995) 24 (1963) 771 47 52 79 87 341 1050 1200 2570 3060
2024-06-14 05:45 7.79 2580 3550 (1995) 24 (1963) 771 47 52 79 87 341 1050 1200 2570 3060
2024-06-14 04:45 7.78 2570 3550 (1995) 24 (1963) 771 47 52 79 87 341 1050 1200 2570 3060
2024-06-14 03:45 7.81 2600 3550 (1995) 24 (1963) 771 47 52 79 87 341 1050 1200 2570 3060
2024-06-14 02:45 7.85 2630 3550 (1995) 24 (1963) 771 47 52 79 87 341 1050 1200 2570 3060
2024-06-14 01:45 8.07 2810 3550 (1995) 24 (1963) 771 47 52 79 87 341 1050 1200 2570 3060
2024-06-14 00:45 9.01 3690 3550 (1995) 24 (1963) 771 47 52 79 87 341 1050 1200 2570 3060
2024-06-13 23:45 8.98 3660 3550 (1995) 24 (1963) 771 47 52 79 87 341 1050 1200 2570 3060
2024-06-13 22:45 8.99 3670 3560 (1995) 23 (1963) 853 47 51 70 89 432 1230 1640 2720 3080
2024-06-13 21:45 8.99 3670 3560 (1995) 23 (1963) 853 47 51 70 89 432 1230 1640 2720 3080
2024-06-13 20:45 9.00 3680 3560 (1995) 23 (1963) 853 47 51 70 89 432 1230 1640 2720 3080
2024-06-13 19:45 9.00 3680 3560 (1995) 23 (1963) 853 47 51 70 89 432 1230 1640 2720 3080
2024-06-13 18:45 8.98 3660 3560 (1995) 23 (1963) 853 47 51 70 89 432 1230 1640 2720 3080
2024-06-13 17:45 8.99 3670 3560 (1995) 23 (1963) 853 47 51 70 89 432 1230 1640 2720 3080
2024-06-13 16:45 8.99 3670 3560 (1995) 23 (1963) 853 47 51 70 89 432 1230 1640 2720 3080
2024-06-13 15:45 8.94 3620 3560 (1995) 23 (1963) 853 47 51 70 89 432 1230 1640 2720 3080
2024-06-13 14:45 8.64 3330 3560 (1995) 23 (1963) 853 47 51 70 89 432 1230 1640 2720 3080
2024-06-13 13:45 8.41 3120 3560 (1995) 23 (1963) 853 47 51 70 89 432 1230 1640 2720 3080
2024-06-13 12:45 8.40 3110 3560 (1995) 23 (1963) 853 47 51 70 89 432 1230 1640 2720 3080
2024-06-13 11:45 8.38 3090 3560 (1995) 23 (1963) 853 47 51 70 89 432 1230 1640 2720 3080
2024-06-13 10:45 8.40 3110 3560 (1995) 23 (1963) 853 47 51 70 89 432 1230 1640 2720 3080
2024-06-13 09:45 8.39 3100 3560 (1995) 23 (1963) 853 47 51 70 89 432 1230 1640 2720 3080
2024-06-13 08:45 8.43 3130 3560 (1995) 23 (1963) 853 47 51 70 89 432 1230 1640 2720 3080
2024-06-13 07:45 8.39 3100 3560 (1995) 23 (1963) 853 47 51 70 89 432 1230 1640 2720 3080
2024-06-13 06:45 8.39 3100 3560 (1995) 23 (1963) 853 47 51 70 89 432 1230 1640 2720 3080
2024-06-13 05:45 8.41 3120 3560 (1995) 23 (1963) 853 47 51 70 89 432 1230 1640 2720 3080
2024-06-13 04:45 8.39 3100 3560 (1995) 23 (1963) 853 47 51 70 89 432 1230 1640 2720 3080
2024-06-13 03:45 8.40 3110 3560 (1995) 23 (1963) 853 47 51 70 89 432 1230 1640 2720 3080
2024-06-13 02:45 8.41 3120 3560 (1995) 23 (1963) 853 47 51 70 89 432 1230 1640 2720 3080
2024-06-13 01:45 8.42 3120 3560 (1995) 23 (1963) 853 47 51 70 89 432 1230 1640 2720 3080
2024-06-13 00:45 8.39 3100 3560 (1995) 23 (1963) 853 47 51 70 89 432 1230 1640 2720 3080
2024-06-12 23:45 8.38 3090 3560 (1995) 23 (1963) 853 47 51 70 89 432 1230 1640 2720 3080
2024-06-12 22:45 8.40 3110 3390 (1990) 23 (1963) 851 47 50 59 89 333 1230 1710 2840 3070
2024-06-12 21:45 8.39 3100 3390 (1990) 23 (1963) 851 47 50 59 89 333 1230 1710 2840 3070
2024-06-12 20:45 8.39 3100 3390 (1990) 23 (1963) 851 47 50 59 89 333 1230 1710 2840 3070
2024-06-12 19:45 8.38 3090 3390 (1990) 23 (1963) 851 47 50 59 89 333 1230 1710 2840 3070
2024-06-12 18:45 8.40 3110 3390 (1990) 23 (1963) 851 47 50 59 89 333 1230 1710 2840 3070
2024-06-12 17:45 8.41 3120 3390 (1990) 23 (1963) 851 47 50 59 89 333 1230 1710 2840 3070
2024-06-12 16:45 8.40 3110 3390 (1990) 23 (1963) 851 47 50 59 89 333 1230 1710 2840 3070
2024-06-12 15:45 8.40 3110 3390 (1990) 23 (1963) 851 47 50 59 89 333 1230 1710 2840 3070
2024-06-12 14:45 8.39 3100 3390 (1990) 23 (1963) 851 47 50 59 89 333 1230 1710 2840 3070
2024-06-12 13:45 8.39 3100 3390 (1990) 23 (1963) 851 47 50 59 89 333 1230 1710 2840 3070
2024-06-12 12:45 8.39 3100 3390 (1990) 23 (1963) 851 47 50 59 89 333 1230 1710 2840 3070
2024-06-12 11:45 8.40 3110 3390 (1990) 23 (1963) 851 47 50 59 89 333 1230 1710 2840 3070
2024-06-12 10:45 8.39 3100 3390 (1990) 23 (1963) 851 47 50 59 89 333 1230 1710 2840 3070
2024-06-12 09:45 8.41 3120 3390 (1990) 23 (1963) 851 47 50 59 89 333 1230 1710 2840 3070
2024-06-12 08:45 8.42 3120 3390 (1990) 23 (1963) 851 47 50 59 89 333 1230 1710 2840 3070
2024-06-12 07:45 8.40 3110 3390 (1990) 23 (1963) 851 47 50 59 89 333 1230 1710 2840 3070
2024-06-12 06:45 8.39 3100 3390 (1990) 23 (1963) 851 47 50 59 89 333 1230 1710 2840 3070
2024-06-12 05:45 8.39 3100 3390 (1990) 23 (1963) 851 47 50 59 89 333 1230 1710 2840 3070
2024-06-12 04:45 8.40 3110 3390 (1990) 23 (1963) 851 47 50 59 89 333 1230 1710 2840 3070
2024-06-12 03:45 8.40 3110 3390 (1990) 23 (1963) 851 47 50 59 89 333 1230 1710 2840 3070
2024-06-12 02:45 8.39 3100 3390 (1990) 23 (1963) 851 47 50 59 89 333 1230 1710 2840 3070
2024-06-12 01:45 8.39 3100 3390 (1990) 23 (1963) 851 47 50 59 89 333 1230 1710 2840 3070
2024-06-12 00:45 8.38 3090 3390 (1990) 23 (1963) 851 47 50 59 89 333 1230 1710 2840 3070
2024-06-11 23:45 8.40 3110 3390 (1990) 23 (1963) 851 47 50 59 89 333 1230 1710 2840 3070
2024-06-11 22:45 8.39 3100 4310 (1968) 22 (1963) 875 35 48 54 71 298 1550 2130 2850 3330
2024-06-11 21:45 8.40 3110 4310 (1968) 22 (1963) 875 35 48 54 71 298 1550 2130 2850 3330
2024-06-11 20:45 8.42 3120 4310 (1968) 22 (1963) 875 35 48 54 71 298 1550 2130 2850 3330
2024-06-11 19:45 8.41 3120 4310 (1968) 22 (1963) 875 35 48 54 71 298 1550 2130 2850 3330
2024-06-11 18:45 8.41 3120 4310 (1968) 22 (1963) 875 35 48 54 71 298 1550 2130 2850 3330
2024-06-11 17:45 8.40 3110 4310 (1968) 22 (1963) 875 35 48 54 71 298 1550 2130 2850 3330
2024-06-11 16:45 8.42 3120 4310 (1968) 22 (1963) 875 35 48 54 71 298 1550 2130 2850 3330
2024-06-11 15:45 8.40 3110 4310 (1968) 22 (1963) 875 35 48 54 71 298 1550 2130 2850 3330
2024-06-11 14:45 8.39 3100 4310 (1968) 22 (1963) 875 35 48 54 71 298 1550 2130 2850 3330
2024-06-11 13:45 8.41 3120 4310 (1968) 22 (1963) 875 35 48 54 71 298 1550 2130 2850 3330
2024-06-11 12:45 8.42 3120 4310 (1968) 22 (1963) 875 35 48 54 71 298 1550 2130 2850 3330
2024-06-11 11:45 8.40 3110 4310 (1968) 22 (1963) 875 35 48 54 71 298 1550 2130 2850 3330
2024-06-11 10:45 8.40 3110 4310 (1968) 22 (1963) 875 35 48 54 71 298 1550 2130 2850 3330
2024-06-11 09:45 8.41 3120 4310 (1968) 22 (1963) 875 35 48 54 71 298 1550 2130 2850 3330
2024-06-11 08:45 8.40 3110 4310 (1968) 22 (1963) 875 35 48 54 71 298 1550 2130 2850 3330
2024-06-11 07:45 8.42 3120 4310 (1968) 22 (1963) 875 35 48 54 71 298 1550 2130 2850 3330
2024-06-11 06:45 8.42 3120 4310 (1968) 22 (1963) 875 35 48 54 71 298 1550 2130 2850 3330
2024-06-11 05:45 8.40 3110 4310 (1968) 22 (1963) 875 35 48 54 71 298 1550 2130 2850 3330
2024-06-11 04:45 8.40 3110 4310 (1968) 22 (1963) 875 35 48 54 71 298 1550 2130 2850 3330
2024-06-11 03:45 8.40 3110 4310 (1968) 22 (1963) 875 35 48 54 71 298 1550 2130 2850 3330
2024-06-11 02:45 8.44 3140 4310 (1968) 22 (1963) 875 35 48 54 71 298 1550 2130 2850 3330
2024-06-11 01:45 8.39 3100 4310 (1968) 22 (1963) 875 35 48 54 71 298 1550 2130 2850 3330
2024-06-11 00:45 8.41 3120 4310 (1968) 22 (1963) 875 35 48 54 71 298 1550 2130 2850 3330
2024-06-10 23:45 8.40 3110 4310 (1968) 22 (1963) 875 35 48 54 71 298 1550 2130 2850 3330
2024-06-10 22:45 8.39 3100 3740 (1968) 15 (1987) 811 35 49 56 72 326 1300 1640 2750 3040
2024-06-10 21:45 8.42 3120 3740 (1968) 15 (1987) 811 35 49 56 72 326 1300 1640 2750 3040
2024-06-10 20:45 8.43 3130 3740 (1968) 15 (1987) 811 35 49 56 72 326 1300 1640 2750 3040
2024-06-10 19:45 8.40 3110 3740 (1968) 15 (1987) 811 35 49 56 72 326 1300 1640 2750 3040
2024-06-10 18:45 8.41 3120 3740 (1968) 15 (1987) 811 35 49 56 72 326 1300 1640 2750 3040
2024-06-10 17:45 8.43 3130 3740 (1968) 15 (1987) 811 35 49 56 72 326 1300 1640 2750 3040
2024-06-10 16:45 8.41 3120 3740 (1968) 15 (1987) 811 35 49 56 72 326 1300 1640 2750 3040
2024-06-10 15:45 8.42 3120 3740 (1968) 15 (1987) 811 35 49 56 72 326 1300 1640 2750 3040
2024-06-10 14:45 8.40 3110 3740 (1968) 15 (1987) 811 35 49 56 72 326 1300 1640 2750 3040
2024-06-10 13:45 8.39 3100 3740 (1968) 15 (1987) 811 35 49 56 72 326 1300 1640 2750 3040
2024-06-10 12:45 8.40 3110 3740 (1968) 15 (1987) 811 35 49 56 72 326 1300 1640 2750 3040
2024-06-10 11:45 8.40 3110 3740 (1968) 15 (1987) 811 35 49 56 72 326 1300 1640 2750 3040
2024-06-10 10:45 8.40 3110 3740 (1968) 15 (1987) 811 35 49 56 72 326 1300 1640 2750 3040
2024-06-10 09:45 8.42 3120 3740 (1968) 15 (1987) 811 35 49 56 72 326 1300 1640 2750 3040
2024-06-10 08:45 8.41 3120 3740 (1968) 15 (1987) 811 35 49 56 72 326 1300 1640 2750 3040
2024-06-10 07:45 8.37 3080 3740 (1968) 15 (1987) 811 35 49 56 72 326 1300 1640 2750 3040
2024-06-10 06:45 8.14 2880 3740 (1968) 15 (1987) 811 35 49 56 72 326 1300 1640 2750 3040
2024-06-10 05:45 7.78 2570 3740 (1968) 15 (1987) 811 35 49 56 72 326 1300 1640 2750 3040
2024-06-10 04:45 7.79 2580 3740 (1968) 15 (1987) 811 35 49 56 72 326 1300 1640 2750 3040
2024-06-10 03:45 7.79 2580 3740 (1968) 15 (1987) 811 35 49 56 72 326 1300 1640 2750 3040
2024-06-10 02:45 7.79 2580 3740 (1968) 15 (1987) 811 35 49 56 72 326 1300 1640 2750 3040
2024-06-10 01:45 7.78 2570 3740 (1968) 15 (1987) 811 35 49 56 72 326 1300 1640 2750 3040
2024-06-10 00:45 7.76 2560 3740 (1968) 15 (1987) 811 35 49 56 72 326 1300 1640 2750 3040
2024-06-09 23:45 7.74 2540 3740 (1968) 15 (1987) 811 35 49 56 72 326 1300 1640 2750 3040
2024-06-09 22:45 7.54 2380 3620 (1968) 15 (1987) 783 34 49 57 79 316 1150 1600 2840 3050
2024-06-09 21:45 7.00 1980 3620 (1968) 15 (1987) 783 34 49 57 79 316 1150 1600 2840 3050
2024-06-09 20:45 6.60 1710 3620 (1968) 15 (1987) 783 34 49 57 79 316 1150 1600 2840 3050
2024-06-09 19:45 6.16 1440 3620 (1968) 15 (1987) 783 34 49 57 79 316 1150 1600 2840 3050
2024-06-09 18:45 5.77 1220 3620 (1968) 15 (1987) 783 34 49 57 79 316 1150 1600 2840 3050
2024-06-09 17:45 5.12 901 3620 (1968) 15 (1987) 783 34 49 57 79 316 1150 1600 2840 3050
2024-06-09 16:45 4.68 715 3620 (1968) 15 (1987) 783 34 49 57 79 316 1150 1600 2840 3050
2024-06-09 15:45 3.65 373 3620 (1968) 15 (1987) 783 34 49 57 79 316 1150 1600 2840 3050
2024-06-09 14:45 3.11 242 3620 (1968) 15 (1987) 783 34 49 57 79 316 1150 1600 2840 3050
2024-06-09 13:45 1.88 55 3620 (1968) 15 (1987) 783 34 49 57 79 316 1150 1600 2840 3050
2024-06-09 12:45 1.92 59 3620 (1968) 15 (1987) 783 34 49 57 79 316 1150 1600 2840 3050
2024-06-09 11:45 1.99 66 3620 (1968) 15 (1987) 783 34 49 57 79 316 1150 1600 2840 3050
2024-06-09 10:45 2.08 76 3620 (1968) 15 (1987) 783 34 49 57 79 316 1150 1600 2840 3050
2024-06-09 09:45 2.21 91 3620 (1968) 15 (1987) 783 34 49 57 79 316 1150 1600 2840 3050
2024-06-09 08:45 2.38 113 3620 (1968) 15 (1987) 783 34 49 57 79 316 1150 1600 2840 3050
2024-06-09 07:45 2.58 143 3620 (1968) 15 (1987) 783 34 49 57 79 316 1150 1600 2840 3050
2024-06-09 06:45 2.87 194 3620 (1968) 15 (1987) 783 34 49 57 79 316 1150 1600 2840 3050
2024-06-09 05:45 3.40 308 3620 (1968) 15 (1987) 783 34 49 57 79 316 1150 1600 2840 3050
2024-06-09 04:45 3.95 460 3620 (1968) 15 (1987) 783 34 49 57 79 316 1150 1600 2840 3050
2024-06-09 03:45 3.93 454 3620 (1968) 15 (1987) 783 34 49 57 79 316 1150 1600 2840 3050
2024-06-09 02:45 3.93 454 3620 (1968) 15 (1987) 783 34 49 57 79 316 1150 1600 2840 3050
2024-06-09 01:45 3.92 451 3620 (1968) 15 (1987) 783 34 49 57 79 316 1150 1600 2840 3050
2024-06-09 00:45 3.93 454 3620 (1968) 15 (1987) 783 34 49 57 79 316 1150 1600 2840 3050
2024-06-08 23:45 3.96 463 3620 (1968) 15 (1987) 783 34 49 57 79 316 1150 1600 2840 3050
2024-06-08 22:45 4.01 478 3620 (1968) 15 (1987) 826 35 48 58 84 297 977 1600 2920 3400
2024-06-08 21:45 4.17 530 3620 (1968) 15 (1987) 826 35 48 58 84 297 977 1600 2920 3400
2024-06-08 20:45 4.66 708 3620 (1968) 15 (1987) 826 35 48 58 84 297 977 1600 2920 3400
2024-06-08 19:45 5.72 1190 3620 (1968) 15 (1987) 826 35 48 58 84 297 977 1600 2920 3400
2024-06-08 18:45 6.35 1550 3620 (1968) 15 (1987) 826 35 48 58 84 297 977 1600 2920 3400
2024-06-08 17:45 6.94 1940 3620 (1968) 15 (1987) 826 35 48 58 84 297 977 1600 2920 3400
2024-06-08 16:45 6.92 1920 3620 (1968) 15 (1987) 826 35 48 58 84 297 977 1600 2920 3400
2024-06-08 15:45 6.94 1940 3620 (1968) 15 (1987) 826 35 48 58 84 297 977 1600 2920 3400
2024-06-08 14:45 6.93 1930 3620 (1968) 15 (1987) 826 35 48 58 84 297 977 1600 2920 3400
2024-06-08 13:45 6.94 1940 3620 (1968) 15 (1987) 826 35 48 58 84 297 977 1600 2920 3400
2024-06-08 12:45 6.93 1930 3620 (1968) 15 (1987) 826 35 48 58 84 297 977 1600 2920 3400
2024-06-08 11:45 6.93 1930 3620 (1968) 15 (1987) 826 35 48 58 84 297 977 1600 2920 3400
2024-06-08 10:45 6.94 1940 3620 (1968) 15 (1987) 826 35 48 58 84 297 977 1600 2920 3400
2024-06-08 09:45 6.94 1940 3620 (1968) 15 (1987) 826 35 48 58 84 297 977 1600 2920 3400
2024-06-08 08:45 6.99 1970 3620 (1968) 15 (1987) 826 35 48 58 84 297 977 1600 2920 3400
2024-06-08 07:45 7.29 2190 3620 (1968) 15 (1987) 826 35 48 58 84 297 977 1600 2920 3400
2024-06-08 06:45 7.62 2440 3620 (1968) 15 (1987) 826 35 48 58 84 297 977 1600 2920 3400
2024-06-08 05:45 7.65 2470 3620 (1968) 15 (1987) 826 35 48 58 84 297 977 1600 2920 3400
2024-06-08 04:45 7.66 2480 3620 (1968) 15 (1987) 826 35 48 58 84 297 977 1600 2920 3400
2024-06-08 03:45 7.64 2460 3620 (1968) 15 (1987) 826 35 48 58 84 297 977 1600 2920 3400
2024-06-08 02:45 7.58 2410 3620 (1968) 15 (1987) 826 35 48 58 84 297 977 1600 2920 3400
2024-06-08 01:45 7.58 2410 3620 (1968) 15 (1987) 826 35 48 58 84 297 977 1600 2920 3400
2024-06-08 00:45 7.59 2420 3620 (1968) 15 (1987) 826 35 48 58 84 297 977 1600 2920 3400
2024-06-07 23:45 7.59 2420 3620 (1968) 15 (1987) 826 35 48 58 84 297 977 1600 2920 3400
2024-06-07 22:45 7.61 2440 3850 (1973) 15 (1987) 854 36 49 59 86 297 1490 1690 2900 3360
2024-06-07 21:45 7.69 2500 3850 (1973) 15 (1987) 854 36 49 59 86 297 1490 1690 2900 3360
2024-06-07 20:45 8.19 2920 3850 (1973) 15 (1987) 854 36 49 59 86 297 1490 1690 2900 3360
2024-06-07 19:45 8.19 2920 3850 (1973) 15 (1987) 854 36 49 59 86 297 1490 1690 2900 3360
2024-06-07 17:45 8.19 2920 3850 (1973) 15 (1987) 854 36 49 59 86 297 1490 1690 2900 3360
2024-06-07 16:45 8.19 2920 3850 (1973) 15 (1987) 854 36 49 59 86 297 1490 1690 2900 3360
2024-06-07 15:45 8.19 2920 3850 (1973) 15 (1987) 854 36 49 59 86 297 1490 1690 2900 3360
2024-06-07 14:45 8.20 2930 3850 (1973) 15 (1987) 854 36 49 59 86 297 1490 1690 2900 3360
2024-06-07 13:45 8.20 2930 3850 (1973) 15 (1987) 854 36 49 59 86 297 1490 1690 2900 3360
2024-06-07 12:45 8.21 2940 3850 (1973) 15 (1987) 854 36 49 59 86 297 1490 1690 2900 3360
2024-06-07 11:45 8.20 2930 3850 (1973) 15 (1987) 854 36 49 59 86 297 1490 1690 2900 3360
2024-06-07 10:45 8.20 2930 3850 (1973) 15 (1987) 854 36 49 59 86 297 1490 1690 2900 3360
2024-06-07 09:45 8.20 2930 3850 (1973) 15 (1987) 854 36 49 59 86 297 1490 1690 2900 3360
2024-06-07 08:45 8.20 2930 3850 (1973) 15 (1987) 854 36 49 59 86 297 1490 1690 2900 3360
2024-06-07 07:45 8.21 2940 3850 (1973) 15 (1987) 854 36 49 59 86 297 1490 1690 2900 3360
2024-06-07 06:45 8.20 2930 3850 (1973) 15 (1987) 854 36 49 59 86 297 1490 1690 2900 3360
2024-06-07 05:45 8.21 2940 3850 (1973) 15 (1987) 854 36 49 59 86 297 1490 1690 2900 3360
2024-06-07 04:45 8.21 2940 3850 (1973) 15 (1987) 854 36 49 59 86 297 1490 1690 2900 3360
2024-06-07 03:45 8.20 2930 3850 (1973) 15 (1987) 854 36 49 59 86 297 1490 1690 2900 3360
2024-06-07 02:45 8.21 2940 3850 (1973) 15 (1987) 854 36 49 59 86 297 1490 1690 2900 3360
2024-06-07 01:45 8.20 2930 3850 (1973) 15 (1987) 854 36 49 59 86 297 1490 1690 2900 3360
2024-06-07 00:45 8.21 2940 3850 (1973) 15 (1987) 854 36 49 59 86 297 1490 1690 2900 3360
2024-06-06 23:45 8.21 2940 3850 (1973) 15 (1987) 854 36 49 59 86 297 1490 1690 2900 3360
2024-06-06 22:45 8.21 2940 3870 (1973) 15 (1987) 921 28 46 58 84 297 1520 2080 3050 3560
2024-06-06 21:45 8.21 2940 3870 (1973) 15 (1987) 921 28 46 58 84 297 1520 2080 3050 3560
2024-06-06 20:45 8.21 2940 3870 (1973) 15 (1987) 921 28 46 58 84 297 1520 2080 3050 3560
2024-06-06 19:45 8.20 2930 3870 (1973) 15 (1987) 921 28 46 58 84 297 1520 2080 3050 3560
2024-06-06 18:45 8.22 2950 3870 (1973) 15 (1987) 921 28 46 58 84 297 1520 2080 3050 3560
2024-06-06 17:45 8.21 2940 3870 (1973) 15 (1987) 921 28 46 58 84 297 1520 2080 3050 3560
2024-06-06 16:45 8.21 2940 3870 (1973) 15 (1987) 921 28 46 58 84 297 1520 2080 3050 3560
2024-06-06 15:45 8.22 2950 3870 (1973) 15 (1987) 921 28 46 58 84 297 1520 2080 3050 3560
2024-06-06 14:45 8.21 2940 3870 (1973) 15 (1987) 921 28 46 58 84 297 1520 2080 3050 3560
2024-06-06 13:45 8.20 2930 3870 (1973) 15 (1987) 921 28 46 58 84 297 1520 2080 3050 3560
2024-06-06 12:45 8.22 2950 3870 (1973) 15 (1987) 921 28 46 58 84 297 1520 2080 3050 3560
2024-06-06 11:45 8.22 2950 3870 (1973) 15 (1987) 921 28 46 58 84 297 1520 2080 3050 3560
2024-06-06 10:45 8.22 2950 3870 (1973) 15 (1987) 921 28 46 58 84 297 1520 2080 3050 3560
2024-06-06 09:45 8.23 2950 3870 (1973) 15 (1987) 921 28 46 58 84 297 1520 2080 3050 3560
2024-06-06 08:45 8.22 2950 3870 (1973) 15 (1987) 921 28 46 58 84 297 1520 2080 3050 3560
2024-06-06 07:45 8.22 2950 3870 (1973) 15 (1987) 921 28 46 58 84 297 1520 2080 3050 3560
2024-06-06 06:45 8.22 2950 3870 (1973) 15 (1987) 921 28 46 58 84 297 1520 2080 3050 3560
2024-06-06 05:45 8.22 2950 3870 (1973) 15 (1987) 921 28 46 58 84 297 1520 2080 3050 3560
2024-06-06 04:45 8.23 2950 3870 (1973) 15 (1987) 921 28 46 58 84 297 1520 2080 3050 3560
2024-06-06 03:45 8.21 2940 3870 (1973) 15 (1987) 921 28 46 58 84 297 1520 2080 3050 3560
2024-06-06 02:45 8.22 2950 3870 (1973) 15 (1987) 921 28 46 58 84 297 1520 2080 3050 3560
2024-06-06 01:45 8.22 2950 3870 (1973) 15 (1987) 921 28 46 58 84 297 1520 2080 3050 3560
2024-06-06 00:45 8.22 2950 3870 (1973) 15 (1987) 921 28 46 58 84 297 1520 2080 3050 3560
2024-06-05 23:45 8.23 2950 3870 (1973) 15 (1987) 921 28 46 58 84 297 1520 2080 3050 3560
2024-06-05 22:45 8.22 2950 4170 (1979) 15 (1987) 931 27 46 59 83 323 1490 1930 3060 3570
2024-06-05 21:45 8.21 2940 4170 (1979) 15 (1987) 931 27 46 59 83 323 1490 1930 3060 3570
2024-06-05 20:45 8.23 2950 4170 (1979) 15 (1987) 931 27 46 59 83 323 1490 1930 3060 3570
2024-06-05 19:45 8.23 2950 4170 (1979) 15 (1987) 931 27 46 59 83 323 1490 1930 3060 3570
2024-06-05 18:45 8.21 2940 4170 (1979) 15 (1987) 931 27 46 59 83 323 1490 1930 3060 3570
2024-06-05 17:45 8.22 2950 4170 (1979) 15 (1987) 931 27 46 59 83 323 1490 1930 3060 3570
2024-06-05 16:45 8.21 2940 4170 (1979) 15 (1987) 931 27 46 59 83 323 1490 1930 3060 3570
2024-06-05 15:45 8.20 2930 4170 (1979) 15 (1987) 931 27 46 59 83 323 1490 1930 3060 3570
2024-06-05 14:45 8.22 2950 4170 (1979) 15 (1987) 931 27 46 59 83 323 1490 1930 3060 3570
2024-06-05 13:45 8.22 2950 4170 (1979) 15 (1987) 931 27 46 59 83 323 1490 1930 3060 3570
2024-06-05 12:45 8.19 2920 4170 (1979) 15 (1987) 931 27 46 59 83 323 1490 1930 3060 3570
2024-06-05 11:45 8.08 2820 4170 (1979) 15 (1987) 931 27 46 59 83 323 1490 1930 3060 3570
2024-06-05 10:45 7.62 2440 4170 (1979) 15 (1987) 931 27 46 59 83 323 1490 1930 3060 3570
2024-06-05 09:45 7.61 2440 4170 (1979) 15 (1987) 931 27 46 59 83 323 1490 1930 3060 3570
2024-06-05 08:45 7.62 2440 4170 (1979) 15 (1987) 931 27 46 59 83 323 1490 1930 3060 3570
2024-06-05 07:45 7.62 2440 4170 (1979) 15 (1987) 931 27 46 59 83 323 1490 1930 3060 3570
2024-06-05 06:45 7.63 2450 4170 (1979) 15 (1987) 931 27 46 59 83 323 1490 1930 3060 3570
2024-06-05 05:45 7.62 2440 4170 (1979) 15 (1987) 931 27 46 59 83 323 1490 1930 3060 3570
2024-06-05 04:45 7.63 2450 4170 (1979) 15 (1987) 931 27 46 59 83 323 1490 1930 3060 3570
2024-06-05 03:45 7.63 2450 4170 (1979) 15 (1987) 931 27 46 59 83 323 1490 1930 3060 3570
2024-06-05 02:45 7.63 2450 4170 (1979) 15 (1987) 931 27 46 59 83 323 1490 1930 3060 3570
2024-06-05 01:45 7.63 2450 4170 (1979) 15 (1987) 931 27 46 59 83 323 1490 1930 3060 3570
2024-06-05 00:45 7.59 2420 4170 (1979) 15 (1987) 931 27 46 59 83 323 1490 1930 3060 3570
2024-06-04 23:45 7.59 2420 4170 (1979) 15 (1987) 931 27 46 59 83 323 1490 1930 3060 3570
2024-06-04 22:45 7.60 2430 4140 (1979) 21 (1963) 902 35 48 73 83 326 1440 1750 3070 3590
2024-06-04 21:45 7.58 2410 4140 (1979) 21 (1963) 902 35 48 73 83 326 1440 1750 3070 3590
2024-06-04 20:45 7.61 2440 4140 (1979) 21 (1963) 902 35 48 73 83 326 1440 1750 3070 3590
2024-06-04 19:45 7.60 2430 4140 (1979) 21 (1963) 902 35 48 73 83 326 1440 1750 3070 3590
2024-06-04 18:45 7.60 2430 4140 (1979) 21 (1963) 902 35 48 73 83 326 1440 1750 3070 3590
2024-06-04 17:45 7.61 2440 4140 (1979) 21 (1963) 902 35 48 73 83 326 1440 1750 3070 3590
2024-06-04 16:45 7.62 2440 4140 (1979) 21 (1963) 902 35 48 73 83 326 1440 1750 3070 3590
2024-06-04 15:45 7.60 2430 4140 (1979) 21 (1963) 902 35 48 73 83 326 1440 1750 3070 3590
2024-06-04 14:45 7.61 2440 4140 (1979) 21 (1963) 902 35 48 73 83 326 1440 1750 3070 3590
2024-06-04 13:45 7.61 2440 4140 (1979) 21 (1963) 902 35 48 73 83 326 1440 1750 3070 3590
2024-06-04 12:45 7.60 2430 4140 (1979) 21 (1963) 902 35 48 73 83 326 1440 1750 3070 3590
2024-06-04 11:45 7.60 2430 4140 (1979) 21 (1963) 902 35 48 73 83 326 1440 1750 3070 3590
2024-06-04 10:45 7.61 2440 4140 (1979) 21 (1963) 902 35 48 73 83 326 1440 1750 3070 3590
2024-06-04 09:45 7.61 2440 4140 (1979) 21 (1963) 902 35 48 73 83 326 1440 1750 3070 3590
2024-06-04 08:45 7.60 2430 4140 (1979) 21 (1963) 902 35 48 73 83 326 1440 1750 3070 3590
2024-06-04 07:45 7.59 2420 4140 (1979) 21 (1963) 902 35 48 73 83 326 1440 1750 3070 3590
2024-06-04 06:45 7.61 2440 4140 (1979) 21 (1963) 902 35 48 73 83 326 1440 1750 3070 3590
2024-06-04 05:45 7.62 2440 4140 (1979) 21 (1963) 902 35 48 73 83 326 1440 1750 3070 3590
2024-06-04 04:45 7.59 2420 4140 (1979) 21 (1963) 902 35 48 73 83 326 1440 1750 3070 3590
2024-06-04 03:45 7.60 2430 4140 (1979) 21 (1963) 902 35 48 73 83 326 1440 1750 3070 3590
2024-06-04 02:45 7.59 2420 4140 (1979) 21 (1963) 902 35 48 73 83 326 1440 1750 3070 3590
2024-06-04 01:45 7.60 2430 4140 (1979) 21 (1963) 902 35 48 73 83 326 1440 1750 3070 3590
2024-06-04 00:45 7.60 2430 4140 (1979) 21 (1963) 902 35 48 73 83 326 1440 1750 3070 3590
2024-06-03 23:45 7.59 2420 4140 (1979) 21 (1963) 902 35 48 73 83 326 1440 1750 3070 3590
2024-06-03 22:45 7.60 2430 4140 (1979) 21 (1963) 896 35 47 57 84 286 1270 1740 3080 3610
2024-06-03 21:45 7.60 2430 4140 (1979) 21 (1963) 896 35 47 57 84 286 1270 1740 3080 3610
2024-06-03 20:45 7.60 2430 4140 (1979) 21 (1963) 896 35 47 57 84 286 1270 1740 3080 3610
2024-06-03 19:45 7.61 2440 4140 (1979) 21 (1963) 896 35 47 57 84 286 1270 1740 3080 3610
2024-06-03 18:45 7.61 2440 4140 (1979) 21 (1963) 896 35 47 57 84 286 1270 1740 3080 3610
2024-06-03 17:45 7.61 2440 4140 (1979) 21 (1963) 896 35 47 57 84 286 1270 1740 3080 3610
2024-06-03 16:45 7.60 2430 4140 (1979) 21 (1963) 896 35 47 57 84 286 1270 1740 3080 3610
2024-06-03 15:45 7.60 2430 4140 (1979) 21 (1963) 896 35 47 57 84 286 1270 1740 3080 3610
2024-06-03 14:45 7.59 2420 4140 (1979) 21 (1963) 896 35 47 57 84 286 1270 1740 3080 3610
2024-06-03 13:45 7.60 2430 4140 (1979) 21 (1963) 896 35 47 57 84 286 1270 1740 3080 3610
2024-06-03 12:45 7.60 2430 4140 (1979) 21 (1963) 896 35 47 57 84 286 1270 1740 3080 3610
2024-06-03 11:45 7.60 2430 4140 (1979) 21 (1963) 896 35 47 57 84 286 1270 1740 3080 3610
2024-06-03 10:45 7.60 2430 4140 (1979) 21 (1963) 896 35 47 57 84 286 1270 1740 3080 3610
2024-06-03 09:45 7.60 2430 4140 (1979) 21 (1963) 896 35 47 57 84 286 1270 1740 3080 3610
2024-06-03 08:45 7.60 2430 4140 (1979) 21 (1963) 896 35 47 57 84 286 1270 1740 3080 3610
2024-06-03 07:45 7.60 2430 4140 (1979) 21 (1963) 896 35 47 57 84 286 1270 1740 3080 3610
2024-06-03 06:45 7.61 2440 4140 (1979) 21 (1963) 896 35 47 57 84 286 1270 1740 3080 3610
2024-06-03 05:45 7.61 2440 4140 (1979) 21 (1963) 896 35 47 57 84 286 1270 1740 3080 3610
2024-06-03 04:45 7.60 2430 4140 (1979) 21 (1963) 896 35 47 57 84 286 1270 1740 3080 3610
2024-06-03 03:45 7.60 2430 4140 (1979) 21 (1963) 896 35 47 57 84 286 1270 1740 3080 3610
2024-06-03 02:45 7.60 2430 4140 (1979) 21 (1963) 896 35 47 57 84 286 1270 1740 3080 3610
2024-06-03 01:45 7.60 2430 4140 (1979) 21 (1963) 896 35 47 57 84 286 1270 1740 3080 3610
2024-06-03 00:45 7.60 2430 4140 (1979) 21 (1963) 896 35 47 57 84 286 1270 1740 3080 3610
2024-06-02 23:45 7.61 2440 4140 (1979) 21 (1963) 896 35 47 57 84 286 1270 1740 3080 3610
2024-06-02 22:45 7.61 2440 4170 (1979) 21 (1963) 913 36 47 57 83 298 1520 1850 2920 3470
2024-06-02 21:45 7.61 2440 4170 (1979) 21 (1963) 913 36 47 57 83 298 1520 1850 2920 3470
2024-06-02 20:45 7.62 2440 4170 (1979) 21 (1963) 913 36 47 57 83 298 1520 1850 2920 3470
2024-06-02 19:45 7.60 2430 4170 (1979) 21 (1963) 913 36 47 57 83 298 1520 1850 2920 3470
2024-06-02 18:45 7.61 2440 4170 (1979) 21 (1963) 913 36 47 57 83 298 1520 1850 2920 3470
2024-06-02 17:45 7.61 2440 4170 (1979) 21 (1963) 913 36 47 57 83 298 1520 1850 2920 3470
2024-06-02 16:45 7.61 2440 4170 (1979) 21 (1963) 913 36 47 57 83 298 1520 1850 2920 3470
2024-06-02 15:45 7.61 2440 4170 (1979) 21 (1963) 913 36 47 57 83 298 1520 1850 2920 3470
2024-06-02 14:45 7.61 2440 4170 (1979) 21 (1963) 913 36 47 57 83 298 1520 1850 2920 3470
2024-06-02 13:45 7.61 2440 4170 (1979) 21 (1963) 913 36 47 57 83 298 1520 1850 2920 3470
2024-06-02 12:45 7.61 2440 4170 (1979) 21 (1963) 913 36 47 57 83 298 1520 1850 2920 3470
2024-06-02 11:45 7.62 2440 4170 (1979) 21 (1963) 913 36 47 57 83 298 1520 1850 2920 3470
2024-06-02 10:45 7.60 2430 4170 (1979) 21 (1963) 913 36 47 57 83 298 1520 1850 2920 3470
2024-06-02 09:45 7.60 2430 4170 (1979) 21 (1963) 913 36 47 57 83 298 1520 1850 2920 3470
2024-06-02 08:45 7.61 2440 4170 (1979) 21 (1963) 913 36 47 57 83 298 1520 1850 2920 3470
2024-06-02 07:45 7.61 2440 4170 (1979) 21 (1963) 913 36 47 57 83 298 1520 1850 2920 3470
2024-06-02 06:45 7.62 2440 4170 (1979) 21 (1963) 913 36 47 57 83 298 1520 1850 2920 3470
2024-06-02 05:45 7.61 2440 4170 (1979) 21 (1963) 913 36 47 57 83 298 1520 1850 2920 3470
2024-06-02 04:45 7.60 2430 4170 (1979) 21 (1963) 913 36 47 57 83 298 1520 1850 2920 3470
2024-06-02 03:45 7.61 2440 4170 (1979) 21 (1963) 913 36 47 57 83 298 1520 1850 2920 3470
2024-06-02 02:45 7.61 2440 4170 (1979) 21 (1963) 913 36 47 57 83 298 1520 1850 2920 3470
2024-06-02 01:45 7.61 2440 4170 (1979) 21 (1963) 913 36 47 57 83 298 1520 1850 2920 3470
2024-06-02 00:45 7.60 2430 4170 (1979) 21 (1963) 913 36 47 57 83 298 1520 1850 2920 3470
2024-06-01 23:45 7.60 2430 4170 (1979) 21 (1963) 913 36 47 57 83 298 1520 1850 2920 3470
2024-06-01 22:45 7.61 2440 4150 (1979) 21 (1963) 954 39 49 58 84 328 1520 2150 2930 3490
2024-06-01 21:45 7.61 2440 4150 (1979) 21 (1963) 954 39 49 58 84 328 1520 2150 2930 3490
2024-06-01 20:45 7.62 2440 4150 (1979) 21 (1963) 954 39 49 58 84 328 1520 2150 2930 3490
2024-06-01 19:45 7.62 2440 4150 (1979) 21 (1963) 954 39 49 58 84 328 1520 2150 2930 3490
2024-06-01 18:45 7.61 2440 4150 (1979) 21 (1963) 954 39 49 58 84 328 1520 2150 2930 3490
2024-06-01 17:45 7.61 2440 4150 (1979) 21 (1963) 954 39 49 58 84 328 1520 2150 2930 3490
2024-06-01 16:45 7.60 2430 4150 (1979) 21 (1963) 954 39 49 58 84 328 1520 2150 2930 3490
2024-06-01 15:45 7.61 2440 4150 (1979) 21 (1963) 954 39 49 58 84 328 1520 2150 2930 3490
2024-06-01 14:45 7.60 2430 4150 (1979) 21 (1963) 954 39 49 58 84 328 1520 2150 2930 3490
2024-06-01 13:45 7.60 2430 4150 (1979) 21 (1963) 954 39 49 58 84 328 1520 2150 2930 3490
2024-06-01 12:45 7.61 2440 4150 (1979) 21 (1963) 954 39 49 58 84 328 1520 2150 2930 3490
2024-06-01 11:45 7.60 2430 4150 (1979) 21 (1963) 954 39 49 58 84 328 1520 2150 2930 3490
2024-06-01 10:45 7.62 2440 4150 (1979) 21 (1963) 954 39 49 58 84 328 1520 2150 2930 3490
2024-06-01 09:45 7.60 2430 4150 (1979) 21 (1963) 954 39 49 58 84 328 1520 2150 2930 3490
2024-06-01 08:45 7.61 2440 4150 (1979) 21 (1963) 954 39 49 58 84 328 1520 2150 2930 3490
2024-06-01 07:45 7.60 2430 4150 (1979) 21 (1963) 954 39 49 58 84 328 1520 2150 2930 3490
2024-06-01 06:45 7.60 2430 4150 (1979) 21 (1963) 954 39 49 58 84 328 1520 2150 2930 3490
2024-06-01 05:45 7.60 2430 4150 (1979) 21 (1963) 954 39 49 58 84 328 1520 2150 2930 3490
2024-06-01 04:45 7.60 2430 4150 (1979) 21 (1963) 954 39 49 58 84 328 1520 2150 2930 3490
2024-06-01 03:45 7.60 2430 4150 (1979) 21 (1963) 954 39 49 58 84 328 1520 2150 2930 3490
2024-06-01 02:45 7.60 2430 4150 (1979) 21 (1963) 954 39 49 58 84 328 1520 2150 2930 3490
2024-06-01 01:45 7.60 2430 4150 (1979) 21 (1963) 954 39 49 58 84 328 1520 2150 2930 3490
2024-06-01 00:45 7.60 2430 4150 (1979) 21 (1963) 954 39 49 58 84 328 1520 2150 2930 3490
2024-05-31 23:45 7.59 2420 4150 (1979) 21 (1963) 954 39 49 58 84 328 1520 2150 2930 3490
2024-05-31 22:45 7.59 2420 4140 (1979) 21 (1963) 993 44 51 80 89 306 1640 2770 3080 3490
2024-05-31 21:45 7.59 2420 4140 (1979) 21 (1963) 993 44 51 80 89 306 1640 2770 3080 3490
2024-05-31 20:45 7.58 2410 4140 (1979) 21 (1963) 993 44 51 80 89 306 1640 2770 3080 3490
2024-05-31 19:45 7.59 2420 4140 (1979) 21 (1963) 993 44 51 80 89 306 1640 2770 3080 3490
2024-05-31 18:45 7.62 2440 4140 (1979) 21 (1963) 993 44 51 80 89 306 1640 2770 3080 3490
2024-05-31 17:45 7.60 2430 4140 (1979) 21 (1963) 993 44 51 80 89 306 1640 2770 3080 3490
2024-05-31 16:45 7.59 2420 4140 (1979) 21 (1963) 993 44 51 80 89 306 1640 2770 3080 3490
2024-05-31 15:45 7.58 2410 4140 (1979) 21 (1963) 993 44 51 80 89 306 1640 2770 3080 3490
2024-05-31 14:45 7.58 2410 4140 (1979) 21 (1963) 993 44 51 80 89 306 1640 2770 3080 3490
2024-05-31 13:45 7.58 2410 4140 (1979) 21 (1963) 993 44 51 80 89 306 1640 2770 3080 3490
2024-05-31 12:45 7.58 2410 4140 (1979) 21 (1963) 993 44 51 80 89 306 1640 2770 3080 3490
2024-05-31 11:45 7.59 2420 4140 (1979) 21 (1963) 993 44 51 80 89 306 1640 2770 3080 3490
2024-05-31 10:45 7.60 2430 4140 (1979) 21 (1963) 993 44 51 80 89 306 1640 2770 3080 3490
2024-05-31 09:45 7.69 2500 4140 (1979) 21 (1963) 993 44 51 80 89 306 1640 2770 3080 3490
2024-05-31 08:45 8.18 2910 4140 (1979) 21 (1963) 993 44 51 80 89 306 1640 2770 3080 3490
2024-05-31 07:45 8.18 2910 4140 (1979) 21 (1963) 993 44 51 80 89 306 1640 2770 3080 3490
2024-05-31 06:45 8.18 2910 4140 (1979) 21 (1963) 993 44 51 80 89 306 1640 2770 3080 3490
2024-05-31 05:45 8.18 2910 4140 (1979) 21 (1963) 993 44 51 80 89 306 1640 2770 3080 3490
2024-05-31 04:45 8.19 2920 4140 (1979) 21 (1963) 993 44 51 80 89 306 1640 2770 3080 3490
2024-05-31 03:45 8.18 2910 4140 (1979) 21 (1963) 993 44 51 80 89 306 1640 2770 3080 3490
2024-05-31 02:45 8.20 2930 4140 (1979) 21 (1963) 993 44 51 80 89 306 1640 2770 3080 3490
2024-05-31 01:45 8.19 2920 4140 (1979) 21 (1963) 993 44 51 80 89 306 1640 2770 3080 3490
2024-05-31 00:45 8.19 2920 4140 (1979) 21 (1963) 993 44 51 80 89 306 1640 2770 3080 3490
2024-05-30 23:45 8.19 2920 4140 (1979) 21 (1963) 993 44 51 80 89 306 1640 2770 3080 3490
2024-05-30 22:45 8.19 2920 4170 (1979) 21 (1963) 951 34 49 77 88 322 1520 2700 3100 3540
2024-05-30 21:45 8.19 2920 4170 (1979) 21 (1963) 951 34 49 77 88 322 1520 2700 3100 3540
2024-05-30 20:45 8.20 2930 4170 (1979) 21 (1963) 951 34 49 77 88 322 1520 2700 3100 3540
2024-05-30 19:45 8.19 2920 4170 (1979) 21 (1963) 951 34 49 77 88 322 1520 2700 3100 3540
2024-05-30 18:45 8.19 2920 4170 (1979) 21 (1963) 951 34 49 77 88 322 1520 2700 3100 3540
2024-05-30 17:45 8.19 2920 4170 (1979) 21 (1963) 951 34 49 77 88 322 1520 2700 3100 3540
2024-05-30 16:45 8.19 2920 4170 (1979) 21 (1963) 951 34 49 77 88 322 1520 2700 3100 3540
2024-05-30 15:45 8.20 2930 4170 (1979) 21 (1963) 951 34 49 77 88 322 1520 2700 3100 3540
2024-05-30 14:45 8.20 2930 4170 (1979) 21 (1963) 951 34 49 77 88 322 1520 2700 3100 3540
2024-05-30 13:45 8.21 2940 4170 (1979) 21 (1963) 951 34 49 77 88 322 1520 2700 3100 3540
2024-05-30 12:45 8.20 2930 4170 (1979) 21 (1963) 951 34 49 77 88 322 1520 2700 3100 3540
2024-05-30 11:45 8.19 2920 4170 (1979) 21 (1963) 951 34 49 77 88 322 1520 2700 3100 3540
2024-05-30 10:45 8.21 2940 4170 (1979) 21 (1963) 951 34 49 77 88 322 1520 2700 3100 3540
2024-05-30 09:45 8.20 2930 4170 (1979) 21 (1963) 951 34 49 77 88 322 1520 2700 3100 3540
2024-05-30 08:45 8.21 2940 4170 (1979) 21 (1963) 951 34 49 77 88 322 1520 2700 3100 3540
2024-05-30 07:45 8.20 2930 4170 (1979) 21 (1963) 951 34 49 77 88 322 1520 2700 3100 3540
2024-05-30 06:45 8.21 2940 4170 (1979) 21 (1963) 951 34 49 77 88 322 1520 2700 3100 3540
2024-05-30 05:45 8.20 2930 4170 (1979) 21 (1963) 951 34 49 77 88 322 1520 2700 3100 3540
2024-05-30 04:45 8.20 2930 4170 (1979) 21 (1963) 951 34 49 77 88 322 1520 2700 3100 3540
2024-05-30 03:45 8.21 2940 4170 (1979) 21 (1963) 951 34 49 77 88 322 1520 2700 3100 3540
2024-05-30 02:45 8.20 2930 4170 (1979) 21 (1963) 951 34 49 77 88 322 1520 2700 3100 3540
2024-05-30 01:45 8.20 2930 4170 (1979) 21 (1963) 951 34 49 77 88 322 1520 2700 3100 3540
2024-05-30 00:45 8.20 2930 4170 (1979) 21 (1963) 951 34 49 77 88 322 1520 2700 3100 3540
2024-05-29 23:45 8.20 2930 4170 (1979) 21 (1963) 951 34 49 77 88 322 1520 2700 3100 3540
2024-05-29 22:45 8.21 2940 4140 (1973) 21 (1963) 884 44 51 82 87 278 1420 1980 2950 3530
2024-05-29 21:45 8.21 2940 4140 (1973) 21 (1963) 884 44 51 82 87 278 1420 1980 2950 3530
2024-05-29 20:45 8.22 2950 4140 (1973) 21 (1963) 884 44 51 82 87 278 1420 1980 2950 3530
2024-05-29 19:45 8.21 2940 4140 (1973) 21 (1963) 884 44 51 82 87 278 1420 1980 2950 3530
2024-05-29 18:45 8.21 2940 4140 (1973) 21 (1963) 884 44 51 82 87 278 1420 1980 2950 3530
2024-05-29 17:45 8.22 2950 4140 (1973) 21 (1963) 884 44 51 82 87 278 1420 1980 2950 3530
2024-05-29 16:45 8.22 2950 4140 (1973) 21 (1963) 884 44 51 82 87 278 1420 1980 2950 3530
2024-05-29 15:45 8.22 2950 4140 (1973) 21 (1963) 884 44 51 82 87 278 1420 1980 2950 3530
2024-05-29 14:45 8.21 2940 4140 (1973) 21 (1963) 884 44 51 82 87 278 1420 1980 2950 3530
2024-05-29 13:45 8.21 2940 4140 (1973) 21 (1963) 884 44 51 82 87 278 1420 1980 2950 3530
2024-05-29 12:45 8.22 2950 4140 (1973) 21 (1963) 884 44 51 82 87 278 1420 1980 2950 3530
2024-05-29 11:45 8.22 2950 4140 (1973) 21 (1963) 884 44 51 82 87 278 1420 1980 2950 3530
2024-05-29 10:45 8.22 2950 4140 (1973) 21 (1963) 884 44 51 82 87 278 1420 1980 2950 3530
2024-05-29 09:45 8.22 2950 4140 (1973) 21 (1963) 884 44 51 82 87 278 1420 1980 2950 3530
2024-05-29 08:45 8.23 2950 4140 (1973) 21 (1963) 884 44 51 82 87 278 1420 1980 2950 3530
2024-05-29 07:45 8.22 2950 4140 (1973) 21 (1963) 884 44 51 82 87 278 1420 1980 2950 3530
2024-05-29 06:45 8.22 2950 4140 (1973) 21 (1963) 884 44 51 82 87 278 1420 1980 2950 3530
2024-05-29 05:45 8.22 2950 4140 (1973) 21 (1963) 884 44 51 82 87 278 1420 1980 2950 3530
2024-05-29 04:45 8.22 2950 4140 (1973) 21 (1963) 884 44 51 82 87 278 1420 1980 2950 3530
2024-05-29 03:45 8.23 2950 4140 (1973) 21 (1963) 884 44 51 82 87 278 1420 1980 2950 3530
2024-05-29 02:45 8.23 2950 4140 (1973) 21 (1963) 884 44 51 82 87 278 1420 1980 2950 3530
2024-05-29 01:45 8.22 2950 4140 (1973) 21 (1963) 884 44 51 82 87 278 1420 1980 2950 3530
2024-05-29 00:45 8.23 2950 4140 (1973) 21 (1963) 884 44 51 82 87 278 1420 1980 2950 3530
2024-05-28 23:45 8.22 2950 4140 (1973) 21 (1963) 884 44 51 82 87 278 1420 1980 2950 3530
2024-05-28 22:45 8.23 2950 4160 (1973) 21 (1963) 841 44 51 84 87 238 751 1970 3120 3440
2024-05-28 21:45 8.24 2960 4160 (1973) 21 (1963) 841 44 51 84 87 238 751 1970 3120 3440
2024-05-28 20:45 8.23 2950 4160 (1973) 21 (1963) 841 44 51 84 87 238 751 1970 3120 3440
2024-05-28 19:45 8.23 2950 4160 (1973) 21 (1963) 841 44 51 84 87 238 751 1970 3120 3440
2024-05-28 18:45 8.24 2960 4160 (1973) 21 (1963) 841 44 51 84 87 238 751 1970 3120 3440
2024-05-28 17:45 8.24 2960 4160 (1973) 21 (1963) 841 44 51 84 87 238 751 1970 3120 3440
2024-05-28 16:45 8.23 2950 4160 (1973) 21 (1963) 841 44 51 84 87 238 751 1970 3120 3440
2024-05-28 15:45 8.24 2960 4160 (1973) 21 (1963) 841 44 51 84 87 238 751 1970 3120 3440
2024-05-28 14:45 8.24 2960 4160 (1973) 21 (1963) 841 44 51 84 87 238 751 1970 3120 3440
2024-05-28 13:45 8.24 2960 4160 (1973) 21 (1963) 841 44 51 84 87 238 751 1970 3120 3440
2024-05-28 12:45 8.23 2950 4160 (1973) 21 (1963) 841 44 51 84 87 238 751 1970 3120 3440
2024-05-28 11:45 8.22 2950 4160 (1973) 21 (1963) 841 44 51 84 87 238 751 1970 3120 3440
2024-05-28 10:45 8.04 2790 4160 (1973) 21 (1963) 841 44 51 84 87 238 751 1970 3120 3440
2024-05-28 09:45 7.65 2470 4160 (1973) 21 (1963) 841 44 51 84 87 238 751 1970 3120 3440
2024-05-28 08:45 7.64 2460 4160 (1973) 21 (1963) 841 44 51 84 87 238 751 1970 3120 3440
2024-05-28 07:45 7.60 2430 4160 (1973) 21 (1963) 841 44 51 84 87 238 751 1970 3120 3440
2024-05-28 06:45 7.03 2000 4160 (1973) 21 (1963) 841 44 51 84 87 238 751 1970 3120 3440
2024-05-28 05:45 6.97 1960 4160 (1973) 21 (1963) 841 44 51 84 87 238 751 1970 3120 3440
2024-05-28 04:45 6.97 1960 4160 (1973) 21 (1963) 841 44 51 84 87 238 751 1970 3120 3440
2024-05-28 03:45 6.96 1950 4160 (1973) 21 (1963) 841 44 51 84 87 238 751 1970 3120 3440
2024-05-28 02:45 6.97 1960 4160 (1973) 21 (1963) 841 44 51 84 87 238 751 1970 3120 3440
2024-05-28 01:45 6.97 1960 4160 (1973) 21 (1963) 841 44 51 84 87 238 751 1970 3120 3440
2024-05-28 00:45 6.98 1970 4160 (1973) 21 (1963) 841 44 51 84 87 238 751 1970 3120 3440
2024-05-27 23:45 6.97 1960 4160 (1973) 21 (1963) 841 44 51 84 87 238 751 1970 3120 3440
2024-05-27 22:45 6.97 1960 4170 (1973) 35 (1969) 872 44 52 86 90 238 1310 2230 3170 3550
2024-05-27 21:45 6.97 1960 4170 (1973) 35 (1969) 872 44 52 86 90 238 1310 2230 3170 3550
2024-05-27 20:45 6.97 1960 4170 (1973) 35 (1969) 872 44 52 86 90 238 1310 2230 3170 3550
2024-05-27 19:45 6.98 1970 4170 (1973) 35 (1969) 872 44 52 86 90 238 1310 2230 3170 3550
2024-05-27 18:45 6.97 1960 4170 (1973) 35 (1969) 872 44 52 86 90 238 1310 2230 3170 3550
2024-05-27 17:45 6.97 1960 4170 (1973) 35 (1969) 872 44 52 86 90 238 1310 2230 3170 3550
2024-05-27 16:45 6.97 1960 4170 (1973) 35 (1969) 872 44 52 86 90 238 1310 2230 3170 3550
2024-05-27 15:45 6.97 1960 4170 (1973) 35 (1969) 872 44 52 86 90 238 1310 2230 3170 3550
2024-05-27 14:45 6.99 1970 4170 (1973) 35 (1969) 872 44 52 86 90 238 1310 2230 3170 3550
2024-05-27 13:45 6.97 1960 4170 (1973) 35 (1969) 872 44 52 86 90 238 1310 2230 3170 3550
2024-05-27 12:45 6.98 1970 4170 (1973) 35 (1969) 872 44 52 86 90 238 1310 2230 3170 3550
2024-05-27 11:45 6.97 1960 4170 (1973) 35 (1969) 872 44 52 86 90 238 1310 2230 3170 3550
2024-05-27 10:45 6.97 1960 4170 (1973) 35 (1969) 872 44 52 86 90 238 1310 2230 3170 3550
2024-05-27 09:45 6.92 1920 4170 (1973) 35 (1969) 872 44 52 86 90 238 1310 2230 3170 3550
2024-05-27 08:45 6.59 1700 4170 (1973) 35 (1969) 872 44 52 86 90 238 1310 2230 3170 3550
2024-05-27 07:45 6.14 1430 4170 (1973) 35 (1969) 872 44 52 86 90 238 1310 2230 3170 3550
2024-05-27 06:45 6.13 1420 4170 (1973) 35 (1969) 872 44 52 86 90 238 1310 2230 3170 3550
2024-05-27 05:45 6.14 1430 4170 (1973) 35 (1969) 872 44 52 86 90 238 1310 2230 3170 3550
2024-05-27 04:45 6.13 1420 4170 (1973) 35 (1969) 872 44 52 86 90 238 1310 2230 3170 3550
2024-05-27 03:45 6.13 1420 4170 (1973) 35 (1969) 872 44 52 86 90 238 1310 2230 3170 3550
2024-05-27 02:45 6.13 1420 4170 (1973) 35 (1969) 872 44 52 86 90 238 1310 2230 3170 3550
2024-05-27 01:45 6.14 1430 4170 (1973) 35 (1969) 872 44 52 86 90 238 1310 2230 3170 3550
2024-05-27 00:45 6.13 1420 4170 (1973) 35 (1969) 872 44 52 86 90 238 1310 2230 3170 3550
2024-05-26 23:45 6.13 1420 4170 (1973) 35 (1969) 872 44 52 86 90 238 1310 2230 3170 3550
2024-05-26 22:45 6.14 1430 4080 (1973) 30 (1969) 945 48 54 88 90 289 1540 2470 3320 3570
2024-05-26 21:45 6.14 1430 4080 (1973) 30 (1969) 945 48 54 88 90 289 1540 2470 3320 3570
2024-05-26 20:45 6.15 1430 4080 (1973) 30 (1969) 945 48 54 88 90 289 1540 2470 3320 3570
2024-05-26 19:45 6.15 1430 4080 (1973) 30 (1969) 945 48 54 88 90 289 1540 2470 3320 3570
2024-05-26 18:45 6.16 1440 4080 (1973) 30 (1969) 945 48 54 88 90 289 1540 2470 3320 3570
2024-05-26 17:45 6.14 1430 4080 (1973) 30 (1969) 945 48 54 88 90 289 1540 2470 3320 3570
2024-05-26 16:45 6.13 1420 4080 (1973) 30 (1969) 945 48 54 88 90 289 1540 2470 3320 3570
2024-05-26 15:45 6.12 1420 4080 (1973) 30 (1969) 945 48 54 88 90 289 1540 2470 3320 3570
2024-05-26 14:45 6.12 1420 4080 (1973) 30 (1969) 945 48 54 88 90 289 1540 2470 3320 3570
2024-05-26 13:45 6.11 1410 4080 (1973) 30 (1969) 945 48 54 88 90 289 1540 2470 3320 3570
2024-05-26 12:45 6.10 1400 4080 (1973) 30 (1969) 945 48 54 88 90 289 1540 2470 3320 3570
2024-05-26 11:45 6.11 1410 4080 (1973) 30 (1969) 945 48 54 88 90 289 1540 2470 3320 3570
2024-05-26 10:45 6.11 1410 4080 (1973) 30 (1969) 945 48 54 88 90 289 1540 2470 3320 3570
2024-05-26 09:45 6.11 1410 4080 (1973) 30 (1969) 945 48 54 88 90 289 1540 2470 3320 3570
2024-05-26 08:45 6.11 1410 4080 (1973) 30 (1969) 945 48 54 88 90 289 1540 2470 3320 3570
2024-05-26 07:45 6.14 1430 4080 (1973) 30 (1969) 945 48 54 88 90 289 1540 2470 3320 3570
2024-05-26 06:45 6.11 1410 4080 (1973) 30 (1969) 945 48 54 88 90 289 1540 2470 3320 3570
2024-05-26 05:45 6.08 1390 4080 (1973) 30 (1969) 945 48 54 88 90 289 1540 2470 3320 3570
2024-05-26 04:45 6.09 1400 4080 (1973) 30 (1969) 945 48 54 88 90 289 1540 2470 3320 3570
2024-05-26 03:45 6.07 1390 4080 (1973) 30 (1969) 945 48 54 88 90 289 1540 2470 3320 3570
2024-05-26 02:45 6.07 1390 4080 (1973) 30 (1969) 945 48 54 88 90 289 1540 2470 3320 3570
2024-05-26 01:45 6.08 1390 4080 (1973) 30 (1969) 945 48 54 88 90 289 1540 2470 3320 3570
2024-05-26 00:45 6.08 1390 4080 (1973) 30 (1969) 945 48 54 88 90 289 1540 2470 3320 3570
2024-05-25 23:45 6.08 1390 4080 (1973) 30 (1969) 945 48 54 88 90 289 1540 2470 3320 3570
2024-05-25 22:45 6.07 1390 4050 (1973) 29 (1969) 1010 44 52 88 90 277 2420 2670 3320 3580
2024-05-25 21:45 6.07 1390 4050 (1973) 29 (1969) 1010 44 52 88 90 277 2420 2670 3320 3580
2024-05-25 20:45 6.07 1390 4050 (1973) 29 (1969) 1010 44 52 88 90 277 2420 2670 3320 3580
2024-05-25 19:45 6.07 1390 4050 (1973) 29 (1969) 1010 44 52 88 90 277 2420 2670 3320 3580
2024-05-25 18:45 6.07 1390 4050 (1973) 29 (1969) 1010 44 52 88 90 277 2420 2670 3320 3580
2024-05-25 17:45 6.07 1390 4050 (1973) 29 (1969) 1010 44 52 88 90 277 2420 2670 3320 3580
2024-05-25 16:45 6.07 1390 4050 (1973) 29 (1969) 1010 44 52 88 90 277 2420 2670 3320 3580
2024-05-25 15:45 6.07 1390 4050 (1973) 29 (1969) 1010 44 52 88 90 277 2420 2670 3320 3580
2024-05-25 14:45 6.07 1390 4050 (1973) 29 (1969) 1010 44 52 88 90 277 2420 2670 3320 3580
2024-05-25 13:45 6.07 1390 4050 (1973) 29 (1969) 1010 44 52 88 90 277 2420 2670 3320 3580
2024-05-25 12:45 6.07 1390 4050 (1973) 29 (1969) 1010 44 52 88 90 277 2420 2670 3320 3580
2024-05-25 11:45 6.07 1390 4050 (1973) 29 (1969) 1010 44 52 88 90 277 2420 2670 3320 3580
2024-05-25 10:45 6.07 1390 4050 (1973) 29 (1969) 1010 44 52 88 90 277 2420 2670 3320 3580
2024-05-25 09:45 6.07 1390 4050 (1973) 29 (1969) 1010 44 52 88 90 277 2420 2670 3320 3580
2024-05-25 08:45 6.07 1390 4050 (1973) 29 (1969) 1010 44 52 88 90 277 2420 2670 3320 3580
2024-05-25 07:45 6.07 1390 4050 (1973) 29 (1969) 1010 44 52 88 90 277 2420 2670 3320 3580
2024-05-25 06:45 6.08 1390 4050 (1973) 29 (1969) 1010 44 52 88 90 277 2420 2670 3320 3580
2024-05-25 05:45 6.06 1380 4050 (1973) 29 (1969) 1010 44 52 88 90 277 2420 2670 3320 3580
2024-05-25 04:45 6.07 1390 4050 (1973) 29 (1969) 1010 44 52 88 90 277 2420 2670 3320 3580
2024-05-25 03:45 6.08 1390 4050 (1973) 29 (1969) 1010 44 52 88 90 277 2420 2670 3320 3580
2024-05-25 02:45 6.08 1390 4050 (1973) 29 (1969) 1010 44 52 88 90 277 2420 2670 3320 3580
2024-05-25 01:45 6.07 1390 4050 (1973) 29 (1969) 1010 44 52 88 90 277 2420 2670 3320 3580
2024-05-25 00:45 6.07 1390 4050 (1973) 29 (1969) 1010 44 52 88 90 277 2420 2670 3320 3580
2024-05-24 23:45 6.07 1390 4050 (1973) 29 (1969) 1010 44 52 88 90 277 2420 2670 3320 3580
2024-05-24 22:45 6.07 1390 4060 (1973) 21 (1963) 987 45 53 88 90 217 2140 2490 3160 3560
2024-05-24 21:45 6.08 1390 4060 (1973) 21 (1963) 987 45 53 88 90 217 2140 2490 3160 3560
2024-05-24 20:45 6.08 1390 4060 (1973) 21 (1963) 987 45 53 88 90 217 2140 2490 3160 3560
2024-05-24 19:45 6.08 1390 4060 (1973) 21 (1963) 987 45 53 88 90 217 2140 2490 3160 3560
2024-05-24 18:45 6.08 1390 4060 (1973) 21 (1963) 987 45 53 88 90 217 2140 2490 3160 3560
2024-05-24 17:45 6.07 1390 4060 (1973) 21 (1963) 987 45 53 88 90 217 2140 2490 3160 3560
2024-05-24 16:45 6.08 1390 4060 (1973) 21 (1963) 987 45 53 88 90 217 2140 2490 3160 3560
2024-05-24 15:45 6.07 1390 4060 (1973) 21 (1963) 987 45 53 88 90 217 2140 2490 3160 3560
2024-05-24 14:45 6.08 1390 4060 (1973) 21 (1963) 987 45 53 88 90 217 2140 2490 3160 3560
2024-05-24 13:45 6.07 1390 4060 (1973) 21 (1963) 987 45 53 88 90 217 2140 2490 3160 3560
2024-05-24 12:45 6.08 1390 4060 (1973) 21 (1963) 987 45 53 88 90 217 2140 2490 3160 3560
2024-05-24 11:45 6.08 1390 4060 (1973) 21 (1963) 987 45 53 88 90 217 2140 2490 3160 3560
2024-05-24 10:45 6.08 1390 4060 (1973) 21 (1963) 987 45 53 88 90 217 2140 2490 3160 3560
2024-05-24 09:45 6.08 1390 4060 (1973) 21 (1963) 987 45 53 88 90 217 2140 2490 3160 3560
2024-05-24 08:45 6.08 1390 4060 (1973) 21 (1963) 987 45 53 88 90 217 2140 2490 3160 3560
2024-05-24 07:45 6.07 1390 4060 (1973) 21 (1963) 987 45 53 88 90 217 2140 2490 3160 3560
2024-05-24 06:45 6.07 1390 4060 (1973) 21 (1963) 987 45 53 88 90 217 2140 2490 3160 3560
2024-05-24 05:45 6.08 1390 4060 (1973) 21 (1963) 987 45 53 88 90 217 2140 2490 3160 3560
2024-05-24 04:45 6.07 1390 4060 (1973) 21 (1963) 987 45 53 88 90 217 2140 2490 3160 3560
2024-05-24 03:45 6.08 1390 4060 (1973) 21 (1963) 987 45 53 88 90 217 2140 2490 3160 3560
2024-05-24 02:45 6.08 1390 4060 (1973) 21 (1963) 987 45 53 88 90 217 2140 2490 3160 3560
2024-05-24 01:45 6.08 1390 4060 (1973) 21 (1963) 987 45 53 88 90 217 2140 2490 3160 3560
2024-05-24 00:45 6.07 1390 4060 (1973) 21 (1963) 987 45 53 88 90 217 2140 2490 3160 3560
2024-05-23 23:45 6.07 1390 4060 (1973) 21 (1963) 987 45 53 88 90 217 2140 2490 3160 3560
2024-05-23 22:45 6.07 1390 4090 (1973) 20 (1963) 935 48 57 89 90 296 1540 2070 3140 3570
2024-05-23 21:45 6.08 1390 4090 (1973) 20 (1963) 935 48 57 89 90 296 1540 2070 3140 3570
2024-05-23 20:45 6.08 1390 4090 (1973) 20 (1963) 935 48 57 89 90 296 1540 2070 3140 3570
2024-05-23 19:45 6.08 1390 4090 (1973) 20 (1963) 935 48 57 89 90 296 1540 2070 3140 3570
2024-05-23 18:45 6.08 1390 4090 (1973) 20 (1963) 935 48 57 89 90 296 1540 2070 3140 3570
2024-05-23 17:45 6.08 1390 4090 (1973) 20 (1963) 935 48 57 89 90 296 1540 2070 3140 3570
2024-05-23 16:45 6.07 1390 4090 (1973) 20 (1963) 935 48 57 89 90 296 1540 2070 3140 3570
2024-05-23 15:45 6.08 1390 4090 (1973) 20 (1963) 935 48 57 89 90 296 1540 2070 3140 3570
2024-05-23 14:45 6.08 1390 4090 (1973) 20 (1963) 935 48 57 89 90 296 1540 2070 3140 3570
2024-05-23 13:45 6.08 1390 4090 (1973) 20 (1963) 935 48 57 89 90 296 1540 2070 3140 3570
2024-05-23 12:45 6.07 1390 4090 (1973) 20 (1963) 935 48 57 89 90 296 1540 2070 3140 3570
2024-05-23 11:45 6.08 1390 4090 (1973) 20 (1963) 935 48 57 89 90 296 1540 2070 3140 3570
2024-05-23 10:45 6.08 1390 4090 (1973) 20 (1963) 935 48 57 89 90 296 1540 2070 3140 3570
2024-05-23 09:45 6.08 1390 4090 (1973) 20 (1963) 935 48 57 89 90 296 1540 2070 3140 3570
2024-05-23 08:45 6.08 1390 4090 (1973) 20 (1963) 935 48 57 89 90 296 1540 2070 3140 3570
2024-05-23 07:45 6.08 1390 4090 (1973) 20 (1963) 935 48 57 89 90 296 1540 2070 3140 3570
2024-05-23 06:45 6.08 1390 4090 (1973) 20 (1963) 935 48 57 89 90 296 1540 2070 3140 3570
2024-05-23 05:45 6.08 1390 4090 (1973) 20 (1963) 935 48 57 89 90 296 1540 2070 3140 3570
2024-05-23 04:45 6.08 1390 4090 (1973) 20 (1963) 935 48 57 89 90 296 1540 2070 3140 3570
2024-05-23 03:45 6.08 1390 4090 (1973) 20 (1963) 935 48 57 89 90 296 1540 2070 3140 3570
2024-05-23 02:45 6.08 1390 4090 (1973) 20 (1963) 935 48 57 89 90 296 1540 2070 3140 3570
2024-05-23 01:45 6.08 1390 4090 (1973) 20 (1963) 935 48 57 89 90 296 1540 2070 3140 3570
2024-05-23 00:45 6.08 1390 4090 (1973) 20 (1963) 935 48 57 89 90 296 1540 2070 3140 3570
2024-05-22 23:45 6.08 1390 4090 (1973) 20 (1963) 935 48 57 89 90 296 1540 2070 3140 3570
2024-05-22 22:45 6.08 1390 4110 (1973) 20 (1963) 967 47 56 89 91 273 1970 2380 3150 3570
2024-05-22 21:45 6.08 1390 4110 (1973) 20 (1963) 967 47 56 89 91 273 1970 2380 3150 3570
2024-05-22 20:45 6.09 1400 4110 (1973) 20 (1963) 967 47 56 89 91 273 1970 2380 3150 3570
2024-05-22 19:45 6.08 1390 4110 (1973) 20 (1963) 967 47 56 89 91 273 1970 2380 3150 3570
2024-05-22 18:45 6.07 1390 4110 (1973) 20 (1963) 967 47 56 89 91 273 1970 2380 3150 3570
2024-05-22 17:45 6.08 1390 4110 (1973) 20 (1963) 967 47 56 89 91 273 1970 2380 3150 3570
2024-05-22 16:45 6.09 1400 4110 (1973) 20 (1963) 967 47 56 89 91 273 1970 2380 3150 3570
2024-05-22 15:45 6.09 1400 4110 (1973) 20 (1963) 967 47 56 89 91 273 1970 2380 3150 3570
2024-05-22 14:45 6.08 1390 4110 (1973) 20 (1963) 967 47 56 89 91 273 1970 2380 3150 3570
2024-05-22 13:45 6.09 1400 4110 (1973) 20 (1963) 967 47 56 89 91 273 1970 2380 3150 3570
2024-05-22 12:45 6.08 1390 4110 (1973) 20 (1963) 967 47 56 89 91 273 1970 2380 3150 3570
2024-05-22 11:45 6.09 1400 4110 (1973) 20 (1963) 967 47 56 89 91 273 1970 2380 3150 3570
2024-05-22 10:45 6.17 1450 4110 (1973) 20 (1963) 967 47 56 89 91 273 1970 2380 3150 3570
2024-05-22 09:45 6.66 1750 4110 (1973) 20 (1963) 967 47 56 89 91 273 1970 2380 3150 3570
2024-05-22 08:45 6.97 1960 4110 (1973) 20 (1963) 967 47 56 89 91 273 1970 2380 3150 3570
2024-05-22 07:45 6.97 1960 4110 (1973) 20 (1963) 967 47 56 89 91 273 1970 2380 3150 3570
2024-05-22 06:45 6.95 1950 4110 (1973) 20 (1963) 967 47 56 89 91 273 1970 2380 3150 3570
2024-05-22 05:45 6.96 1950 4110 (1973) 20 (1963) 967 47 56 89 91 273 1970 2380 3150 3570
2024-05-22 04:45 6.97 1960 4110 (1973) 20 (1963) 967 47 56 89 91 273 1970 2380 3150 3570
2024-05-22 03:45 6.95 1950 4110 (1973) 20 (1963) 967 47 56 89 91 273 1970 2380 3150 3570
2024-05-22 02:45 6.96 1950 4110 (1973) 20 (1963) 967 47 56 89 91 273 1970 2380 3150 3570
2024-05-22 01:45 6.96 1950 4110 (1973) 20 (1963) 967 47 56 89 91 273 1970 2380 3150 3570
2024-05-22 00:45 6.97 1960 4110 (1973) 20 (1963) 967 47 56 89 91 273 1970 2380 3150 3570
2024-05-21 23:45 6.97 1960 4110 (1973) 20 (1963) 967 47 56 89 91 273 1970 2380 3150 3570
2024-05-21 22:45 6.97 1960 4110 (1973) 20 (1963) 954 47 53 89 91 272 1690 2360 2970 3430
2024-05-21 21:45 6.97 1960 4110 (1973) 20 (1963) 954 47 53 89 91 272 1690 2360 2970 3430
2024-05-21 20:45 6.98 1970 4110 (1973) 20 (1963) 954 47 53 89 91 272 1690 2360 2970 3430
2024-05-21 19:45 6.98 1970 4110 (1973) 20 (1963) 954 47 53 89 91 272 1690 2360 2970 3430
2024-05-21 18:45 6.96 1950 4110 (1973) 20 (1963) 954 47 53 89 91 272 1690 2360 2970 3430
2024-05-21 17:45 6.96 1950 4110 (1973) 20 (1963) 954 47 53 89 91 272 1690 2360 2970 3430
2024-05-21 16:45 6.96 1950 4110 (1973) 20 (1963) 954 47 53 89 91 272 1690 2360 2970 3430
2024-05-21 15:45 6.96 1950 4110 (1973) 20 (1963) 954 47 53 89 91 272 1690 2360 2970 3430
2024-05-21 14:45 6.97 1960 4110 (1973) 20 (1963) 954 47 53 89 91 272 1690 2360 2970 3430
2024-05-21 13:45 6.97 1960 4110 (1973) 20 (1963) 954 47 53 89 91 272 1690 2360 2970 3430
2024-05-21 12:45 6.96 1950 4110 (1973) 20 (1963) 954 47 53 89 91 272 1690 2360 2970 3430
2024-05-21 11:45 6.96 1950 4110 (1973) 20 (1963) 954 47 53 89 91 272 1690 2360 2970 3430
2024-05-21 10:45 6.97 1960 4110 (1973) 20 (1963) 954 47 53 89 91 272 1690 2360 2970 3430
2024-05-21 09:45 6.96 1950 4110 (1973) 20 (1963) 954 47 53 89 91 272 1690 2360 2970 3430
2024-05-21 08:45 6.96 1950 4110 (1973) 20 (1963) 954 47 53 89 91 272 1690 2360 2970 3430
2024-05-21 07:45 6.97 1960 4110 (1973) 20 (1963) 954 47 53 89 91 272 1690 2360 2970 3430
2024-05-21 06:45 6.97 1960 4110 (1973) 20 (1963) 954 47 53 89 91 272 1690 2360 2970 3430
2024-05-21 05:45 6.96 1950 4110 (1973) 20 (1963) 954 47 53 89 91 272 1690 2360 2970 3430
2024-05-21 04:45 6.97 1960 4110 (1973) 20 (1963) 954 47 53 89 91 272 1690 2360 2970 3430
2024-05-21 03:45 6.96 1950 4110 (1973) 20 (1963) 954 47 53 89 91 272 1690 2360 2970 3430
2024-05-21 02:45 6.95 1950 4110 (1973) 20 (1963) 954 47 53 89 91 272 1690 2360 2970 3430
2024-05-21 01:45 6.96 1950 4110 (1973) 20 (1963) 954 47 53 89 91 272 1690 2360 2970 3430
2024-05-21 00:45 6.97 1960 4110 (1973) 20 (1963) 954 47 53 89 91 272 1690 2360 2970 3430
2024-05-20 23:45 6.97 1960 4110 (1973) 20 (1963) 954 47 53 89 91 272 1690 2360 2970 3430
2024-05-20 22:45 6.96 1950 4520 (1961) 20 (1963) 956 46 53 88 90 212 1940 2500 2950 3370
2024-05-20 21:45 6.97 1960 4520 (1961) 20 (1963) 956 46 53 88 90 212 1940 2500 2950 3370
2024-05-20 20:45 6.96 1950 4520 (1961) 20 (1963) 956 46 53 88 90 212 1940 2500 2950 3370
2024-05-20 19:45 6.96 1950 4520 (1961) 20 (1963) 956 46 53 88 90 212 1940 2500 2950 3370
2024-05-20 18:45 6.94 1940 4520 (1961) 20 (1963) 956 46 53 88 90 212 1940 2500 2950 3370
2024-05-20 17:45 6.96 1950 4520 (1961) 20 (1963) 956 46 53 88 90 212 1940 2500 2950 3370
2024-05-20 16:45 6.97 1960 4520 (1961) 20 (1963) 956 46 53 88 90 212 1940 2500 2950 3370
2024-05-20 15:45 6.98 1970 4520 (1961) 20 (1963) 956 46 53 88 90 212 1940 2500 2950 3370
2024-05-20 14:45 7.04 2010 4520 (1961) 20 (1963) 956 46 53 88 90 212 1940 2500 2950 3370
2024-05-20 13:45 7.60 2430 4520 (1961) 20 (1963) 956 46 53 88 90 212 1940 2500 2950 3370
2024-05-20 12:45 7.59 2420 4520 (1961) 20 (1963) 956 46 53 88 90 212 1940 2500 2950 3370
2024-05-20 11:45 7.59 2420 4520 (1961) 20 (1963) 956 46 53 88 90 212 1940 2500 2950 3370
2024-05-20 10:45 7.58 2410 4520 (1961) 20 (1963) 956 46 53 88 90 212 1940 2500 2950 3370
2024-05-20 09:45 7.60 2430 4520 (1961) 20 (1963) 956 46 53 88 90 212 1940 2500 2950 3370
2024-05-20 08:45 7.59 2420 4520 (1961) 20 (1963) 956 46 53 88 90 212 1940 2500 2950 3370
2024-05-20 07:45 7.59 2420 4520 (1961) 20 (1963) 956 46 53 88 90 212 1940 2500 2950 3370
2024-05-20 06:45 7.59 2420 4520 (1961) 20 (1963) 956 46 53 88 90 212 1940 2500 2950 3370
2024-05-20 05:45 7.59 2420 4520 (1961) 20 (1963) 956 46 53 88 90 212 1940 2500 2950 3370
2024-05-20 04:45 7.58 2410 4520 (1961) 20 (1963) 956 46 53 88 90 212 1940 2500 2950 3370
2024-05-20 03:45 7.59 2420 4520 (1961) 20 (1963) 956 46 53 88 90 212 1940 2500 2950 3370
2024-05-20 02:45 7.59 2420 4520 (1961) 20 (1963) 956 46 53 88 90 212 1940 2500 2950 3370
2024-05-20 01:45 7.59 2420 4520 (1961) 20 (1963) 956 46 53 88 90 212 1940 2500 2950 3370
2024-05-20 00:45 7.58 2410 4520 (1961) 20 (1963) 956 46 53 88 90 212 1940 2500 2950 3370
2024-05-19 23:45 7.58 2410 4520 (1961) 20 (1963) 956 46 53 88 90 212 1940 2500 2950 3370
2024-05-19 22:45 7.58 2410 5110 (1961) 20 (1969) 1020 46 51 88 91 255 2090 2550 3100 3430
2024-05-19 21:45 7.59 2420 5110 (1961) 20 (1969) 1020 46 51 88 91 255 2090 2550 3100 3430
2024-05-19 20:45 7.59 2420 5110 (1961) 20 (1969) 1020 46 51 88 91 255 2090 2550 3100 3430
2024-05-19 19:45 7.59 2420 5110 (1961) 20 (1969) 1020 46 51 88 91 255 2090 2550 3100 3430
2024-05-19 18:45 7.60 2430 5110 (1961) 20 (1969) 1020 46 51 88 91 255 2090 2550 3100 3430
2024-05-19 17:45 7.58 2410 5110 (1961) 20 (1969) 1020 46 51 88 91 255 2090 2550 3100 3430
2024-05-19 16:45 7.59 2420 5110 (1961) 20 (1969) 1020 46 51 88 91 255 2090 2550 3100 3430
2024-05-19 15:45 7.59 2420 5110 (1961) 20 (1969) 1020 46 51 88 91 255 2090 2550 3100 3430
2024-05-19 14:45 7.58 2410 5110 (1961) 20 (1969) 1020 46 51 88 91 255 2090 2550 3100 3430
2024-05-19 13:45 7.60 2430 5110 (1961) 20 (1969) 1020 46 51 88 91 255 2090 2550 3100 3430
2024-05-19 12:45 7.59 2420 5110 (1961) 20 (1969) 1020 46 51 88 91 255 2090 2550 3100 3430
2024-05-19 11:45 7.61 2440 5110 (1961) 20 (1969) 1020 46 51 88 91 255 2090 2550 3100 3430
2024-05-19 10:45 7.59 2420 5110 (1961) 20 (1969) 1020 46 51 88 91 255 2090 2550 3100 3430
2024-05-19 09:45 7.59 2420 5110 (1961) 20 (1969) 1020 46 51 88 91 255 2090 2550 3100 3430
2024-05-19 08:45 7.58 2410 5110 (1961) 20 (1969) 1020 46 51 88 91 255 2090 2550 3100 3430
2024-05-19 07:45 7.58 2410 5110 (1961) 20 (1969) 1020 46 51 88 91 255 2090 2550 3100 3430
2024-05-19 06:45 7.59 2420 5110 (1961) 20 (1969) 1020 46 51 88 91 255 2090 2550 3100 3430
2024-05-19 05:45 7.59 2420 5110 (1961) 20 (1969) 1020 46 51 88 91 255 2090 2550 3100 3430
2024-05-19 04:45 7.61 2440 5110 (1961) 20 (1969) 1020 46 51 88 91 255 2090 2550 3100 3430
2024-05-19 03:45 7.59 2420 5110 (1961) 20 (1969) 1020 46 51 88 91 255 2090 2550 3100 3430
2024-05-19 02:45 7.59 2420 5110 (1961) 20 (1969) 1020 46 51 88 91 255 2090 2550 3100 3430
2024-05-19 01:45 7.61 2440 5110 (1961) 20 (1969) 1020 46 51 88 91 255 2090 2550 3100 3430
2024-05-19 00:45 7.60 2430 5110 (1961) 20 (1969) 1020 46 51 88 91 255 2090 2550 3100 3430
2024-05-18 23:45 7.61 2440 5110 (1961) 20 (1969) 1020 46 51 88 91 255 2090 2550 3100 3430
2024-05-18 22:45 7.59 2420 5510 (1961) 19 (1969) 1040 41 49 91 92 268 1750 2520 3160 4020
2024-05-18 21:45 7.61 2440 5510 (1961) 19 (1969) 1040 41 49 91 92 268 1750 2520 3160 4020
2024-05-18 20:45 7.61 2440 5510 (1961) 19 (1969) 1040 41 49 91 92 268 1750 2520 3160 4020
2024-05-18 19:45 7.58 2410 5510 (1961) 19 (1969) 1040 41 49 91 92 268 1750 2520 3160 4020
2024-05-18 18:45 7.59 2420 5510 (1961) 19 (1969) 1040 41 49 91 92 268 1750 2520 3160 4020
2024-05-18 17:45 7.60 2430 5510 (1961) 19 (1969) 1040 41 49 91 92 268 1750 2520 3160 4020
2024-05-18 16:45 7.60 2430 5510 (1961) 19 (1969) 1040 41 49 91 92 268 1750 2520 3160 4020
2024-05-18 15:45 7.58 2410 5510 (1961) 19 (1969) 1040 41 49 91 92 268 1750 2520 3160 4020
2024-05-18 14:45 7.60 2430 5510 (1961) 19 (1969) 1040 41 49 91 92 268 1750 2520 3160 4020
2024-05-18 13:45 7.60 2430 5510 (1961) 19 (1969) 1040 41 49 91 92 268 1750 2520 3160 4020
2024-05-18 12:45 7.59 2420 5510 (1961) 19 (1969) 1040 41 49 91 92 268 1750 2520 3160 4020
2024-05-18 11:45 7.59 2420 5510 (1961) 19 (1969) 1040 41 49 91 92 268 1750 2520 3160 4020
2024-05-18 10:45 7.61 2440 5510 (1961) 19 (1969) 1040 41 49 91 92 268 1750 2520 3160 4020
2024-05-18 09:45 7.62 2440 5510 (1961) 19 (1969) 1040 41 49 91 92 268 1750 2520 3160 4020
2024-05-18 08:45 7.71 2520 5510 (1961) 19 (1969) 1040 41 49 91 92 268 1750 2520 3160 4020
2024-05-18 07:45 8.19 2920 5510 (1961) 19 (1969) 1040 41 49 91 92 268 1750 2520 3160 4020
2024-05-18 06:45 8.20 2930 5510 (1961) 19 (1969) 1040 41 49 91 92 268 1750 2520 3160 4020
2024-05-18 05:45 8.20 2930 5510 (1961) 19 (1969) 1040 41 49 91 92 268 1750 2520 3160 4020
2024-05-18 04:45 8.19 2920 5510 (1961) 19 (1969) 1040 41 49 91 92 268 1750 2520 3160 4020
2024-05-18 03:45 8.20 2930 5510 (1961) 19 (1969) 1040 41 49 91 92 268 1750 2520 3160 4020
2024-05-18 02:45 8.21 2940 5510 (1961) 19 (1969) 1040 41 49 91 92 268 1750 2520 3160 4020
2024-05-18 01:45 8.19 2920 5510 (1961) 19 (1969) 1040 41 49 91 92 268 1750 2520 3160 4020
2024-05-18 00:45 8.20 2930 5510 (1961) 19 (1969) 1040 41 49 91 92 268 1750 2520 3160 4020
2024-05-17 23:45 8.21 2940 5510 (1961) 19 (1969) 1040 41 49 91 92 268 1750 2520 3160 4020
2024-05-17 22:45 8.20 2930 5810 (1961) 18 (1969) 1020 41 49 91 94 274 1790 2160 3090 3480
2024-05-17 21:45 8.21 2940 5810 (1961) 18 (1969) 1020 41 49 91 94 274 1790 2160 3090 3480
2024-05-17 20:45 8.21 2940 5810 (1961) 18 (1969) 1020 41 49 91 94 274 1790 2160 3090 3480
2024-05-17 19:45 8.20 2930 5810 (1961) 18 (1969) 1020 41 49 91 94 274 1790 2160 3090 3480
2024-05-17 18:45 8.21 2940 5810 (1961) 18 (1969) 1020 41 49 91 94 274 1790 2160 3090 3480
2024-05-17 17:45 8.20 2930 5810 (1961) 18 (1969) 1020 41 49 91 94 274 1790 2160 3090 3480
2024-05-17 16:45 8.20 2930 5810 (1961) 18 (1969) 1020 41 49 91 94 274 1790 2160 3090 3480
2024-05-17 15:45 8.21 2940 5810 (1961) 18 (1969) 1020 41 49 91 94 274 1790 2160 3090 3480
2024-05-17 14:45 8.20 2930 5810 (1961) 18 (1969) 1020 41 49 91 94 274 1790 2160 3090 3480
2024-05-17 13:45 8.20 2930 5810 (1961) 18 (1969) 1020 41 49 91 94 274 1790 2160 3090 3480
2024-05-17 12:45 8.21 2940 5810 (1961) 18 (1969) 1020 41 49 91 94 274 1790 2160 3090 3480
2024-05-17 11:45 8.20 2930 5810 (1961) 18 (1969) 1020 41 49 91 94 274 1790 2160 3090 3480
2024-05-17 10:45 8.20 2930 5810 (1961) 18 (1969) 1020 41 49 91 94 274 1790 2160 3090 3480
2024-05-17 09:45 8.20 2930 5810 (1961) 18 (1969) 1020 41 49 91 94 274 1790 2160 3090 3480
2024-05-17 08:45 8.21 2940 5810 (1961) 18 (1969) 1020 41 49 91 94 274 1790 2160 3090 3480
2024-05-17 07:45 8.22 2950 5810 (1961) 18 (1969) 1020 41 49 91 94 274 1790 2160 3090 3480
2024-05-17 06:45 8.21 2940 5810 (1961) 18 (1969) 1020 41 49 91 94 274 1790 2160 3090 3480
2024-05-17 05:45 8.20 2930 5810 (1961) 18 (1969) 1020 41 49 91 94 274 1790 2160 3090 3480
2024-05-17 04:45 8.21 2940 5810 (1961) 18 (1969) 1020 41 49 91 94 274 1790 2160 3090 3480
2024-05-17 03:45 8.22 2950 5810 (1961) 18 (1969) 1020 41 49 91 94 274 1790 2160 3090 3480
2024-05-17 02:45 8.22 2950 5810 (1961) 18 (1969) 1020 41 49 91 94 274 1790 2160 3090 3480
2024-05-17 01:45 8.21 2940 5810 (1961) 18 (1969) 1020 41 49 91 94 274 1790 2160 3090 3480
2024-05-17 00:45 8.21 2940 5810 (1961) 18 (1969) 1020 41 49 91 94 274 1790 2160 3090 3480
2024-05-16 23:45 8.21 2940 5810 (1961) 18 (1969) 1020 41 49 91 94 274 1790 2160 3090 3480
2024-05-16 22:45 8.22 2950 6120 (1961) 24 (1963) 1040 47 53 95 97 445 1590 2010 3210 3610
2024-05-16 21:45 8.21 2940 6120 (1961) 24 (1963) 1040 47 53 95 97 445 1590 2010 3210 3610
2024-05-16 20:45 8.21 2940 6120 (1961) 24 (1963) 1040 47 53 95 97 445 1590 2010 3210 3610
2024-05-16 19:45 8.22 2950 6120 (1961) 24 (1963) 1040 47 53 95 97 445 1590 2010 3210 3610
2024-05-16 18:45 8.21 2940 6120 (1961) 24 (1963) 1040 47 53 95 97 445 1590 2010 3210 3610
2024-05-16 17:45 8.22 2950 6120 (1961) 24 (1963) 1040 47 53 95 97 445 1590 2010 3210 3610
2024-05-16 16:45 8.22 2950 6120 (1961) 24 (1963) 1040 47 53 95 97 445 1590 2010 3210 3610
2024-05-16 15:45 8.22 2950 6120 (1961) 24 (1963) 1040 47 53 95 97 445 1590 2010 3210 3610
2024-05-16 14:45 8.23 2950 6120 (1961) 24 (1963) 1040 47 53 95 97 445 1590 2010 3210 3610
2024-05-16 13:45 8.23 2950 6120 (1961) 24 (1963) 1040 47 53 95 97 445 1590 2010 3210 3610
2024-05-16 12:45 8.22 2950 6120 (1961) 24 (1963) 1040 47 53 95 97 445 1590 2010 3210 3610
2024-05-16 11:45 8.22 2950 6120 (1961) 24 (1963) 1040 47 53 95 97 445 1590 2010 3210 3610
2024-05-16 10:45 8.17 2900 6120 (1961) 24 (1963) 1040 47 53 95 97 445 1590 2010 3210 3610
2024-05-16 09:45 7.63 2450 6120 (1961) 24 (1963) 1040 47 53 95 97 445 1590 2010 3210 3610
2024-05-16 08:45 7.64 2460 6120 (1961) 24 (1963) 1040 47 53 95 97 445 1590 2010 3210 3610
2024-05-16 07:45 7.64 2460 6120 (1961) 24 (1963) 1040 47 53 95 97 445 1590 2010 3210 3610
2024-05-16 06:45 7.64 2460 6120 (1961) 24 (1963) 1040 47 53 95 97 445 1590 2010 3210 3610
2024-05-16 05:45 7.64 2460 6120 (1961) 24 (1963) 1040 47 53 95 97 445 1590 2010 3210 3610
2024-05-16 04:45 7.64 2460 6120 (1961) 24 (1963) 1040 47 53 95 97 445 1590 2010 3210 3610
2024-05-16 03:45 7.65 2470 6120 (1961) 24 (1963) 1040 47 53 95 97 445 1590 2010 3210 3610
2024-05-16 02:45 7.63 2450 6120 (1961) 24 (1963) 1040 47 53 95 97 445 1590 2010 3210 3610
2024-05-16 01:45 7.65 2470 6120 (1961) 24 (1963) 1040 47 53 95 97 445 1590 2010 3210 3610
2024-05-16 00:45 7.63 2450 6120 (1961) 24 (1963) 1040 47 53 95 97 445 1590 2010 3210 3610
2024-05-15 23:45 7.64 2460 6120 (1961) 24 (1963) 1040 47 53 95 97 445 1590 2010 3210 3610
2024-05-15 22:45 7.64 2460 6450 (1961) 22 (1963) 1040 46 51 95 98 445 1580 2540 3020 3620
2024-05-15 21:45 7.65 2470 6450 (1961) 22 (1963) 1040 46 51 95 98 445 1580 2540 3020 3620
2024-05-15 20:45 7.65 2470 6450 (1961) 22 (1963) 1040 46 51 95 98 445 1580 2540 3020 3620
2024-05-15 19:45 7.64 2460 6450 (1961) 22 (1963) 1040 46 51 95 98 445 1580 2540 3020 3620
2024-05-15 18:45 7.64 2460 6450 (1961) 22 (1963) 1040 46 51 95 98 445 1580 2540 3020 3620
2024-05-15 17:45 7.64 2460 6450 (1961) 22 (1963) 1040 46 51 95 98 445 1580 2540 3020 3620
2024-05-15 16:45 7.64 2460 6450 (1961) 22 (1963) 1040 46 51 95 98 445 1580 2540 3020 3620
2024-05-15 15:45 7.65 2470 6450 (1961) 22 (1963) 1040 46 51 95 98 445 1580 2540 3020 3620
2024-05-15 14:45 7.67 2480 6450 (1961) 22 (1963) 1040 46 51 95 98 445 1580 2540 3020 3620
2024-05-15 13:45 7.64 2460 6450 (1961) 22 (1963) 1040 46 51 95 98 445 1580 2540 3020 3620
2024-05-15 12:45 7.64 2460 6450 (1961) 22 (1963) 1040 46 51 95 98 445 1580 2540 3020 3620
2024-05-15 11:45 7.64 2460 6450 (1961) 22 (1963) 1040 46 51 95 98 445 1580 2540 3020 3620
2024-05-15 10:45 7.63 2450 6450 (1961) 22 (1963) 1040 46 51 95 98 445 1580 2540 3020 3620
2024-05-15 09:45 7.56 2400 6450 (1961) 22 (1963) 1040 46 51 95 98 445 1580 2540 3020 3620
2024-05-15 08:45 6.97 1960 6450 (1961) 22 (1963) 1040 46 51 95 98 445 1580 2540 3020 3620
2024-05-15 07:45 6.97 1960 6450 (1961) 22 (1963) 1040 46 51 95 98 445 1580 2540 3020 3620
2024-05-15 06:45 6.96 1950 6450 (1961) 22 (1963) 1040 46 51 95 98 445 1580 2540 3020 3620
2024-05-15 05:45 6.97 1960 6450 (1961) 22 (1963) 1040 46 51 95 98 445 1580 2540 3020 3620
2024-05-15 04:45 6.97 1960 6450 (1961) 22 (1963) 1040 46 51 95 98 445 1580 2540 3020 3620
2024-05-15 03:45 6.98 1970 6450 (1961) 22 (1963) 1040 46 51 95 98 445 1580 2540 3020 3620
2024-05-15 02:45 6.97 1960 6450 (1961) 22 (1963) 1040 46 51 95 98 445 1580 2540 3020 3620
2024-05-15 01:45 6.97 1960 6450 (1961) 22 (1963) 1040 46 51 95 98 445 1580 2540 3020 3620
2024-05-15 00:45 6.96 1950 6450 (1961) 22 (1963) 1040 46 51 95 98 445 1580 2540 3020 3620
2024-05-14 23:45 6.96 1950 6450 (1961) 22 (1963) 1040 46 51 95 98 445 1580 2540 3020 3620
2024-05-14 22:45 6.97 1960 6890 (1961) 22 (1963) 1050 46 53 97 101 286 1510 2190 3240 3630
2024-05-14 21:45 6.97 1960 6890 (1961) 22 (1963) 1050 46 53 97 101 286 1510 2190 3240 3630
2024-05-14 20:45 6.97 1960 6890 (1961) 22 (1963) 1050 46 53 97 101 286 1510 2190 3240 3630
2024-05-14 19:45 6.98 1970 6890 (1961) 22 (1963) 1050 46 53 97 101 286 1510 2190 3240 3630
2024-05-14 18:45 6.97 1960 6890 (1961) 22 (1963) 1050 46 53 97 101 286 1510 2190 3240 3630
2024-05-14 17:45 6.97 1960 6890 (1961) 22 (1963) 1050 46 53 97 101 286 1510 2190 3240 3630
2024-05-14 16:45 6.99 1970 6890 (1961) 22 (1963) 1050 46 53 97 101 286 1510 2190 3240 3630
2024-05-14 15:45 6.97 1960 6890 (1961) 22 (1963) 1050 46 53 97 101 286 1510 2190 3240 3630
2024-05-14 14:45 6.98 1970 6890 (1961) 22 (1963) 1050 46 53 97 101 286 1510 2190 3240 3630
2024-05-14 13:45 6.98 1970 6890 (1961) 22 (1963) 1050 46 53 97 101 286 1510 2190 3240 3630
2024-05-14 12:45 6.98 1970 6890 (1961) 22 (1963) 1050 46 53 97 101 286 1510 2190 3240 3630
2024-05-14 11:45 6.98 1970 6890 (1961) 22 (1963) 1050 46 53 97 101 286 1510 2190 3240 3630
2024-05-14 10:45 6.95 1950 6890 (1961) 22 (1963) 1050 46 53 97 101 286 1510 2190 3240 3630
2024-05-14 09:45 6.70 1780 6890 (1961) 22 (1963) 1050 46 53 97 101 286 1510 2190 3240 3630
2024-05-14 08:45 6.15 1430 6890 (1961) 22 (1963) 1050 46 53 97 101 286 1510 2190 3240 3630
2024-05-14 07:45 6.15 1430 6890 (1961) 22 (1963) 1050 46 53 97 101 286 1510 2190 3240 3630
2024-05-14 06:45 6.15 1430 6890 (1961) 22 (1963) 1050 46 53 97 101 286 1510 2190 3240 3630
2024-05-14 05:45 6.14 1430 6890 (1961) 22 (1963) 1050 46 53 97 101 286 1510 2190 3240 3630
2024-05-14 04:45 6.15 1430 6890 (1961) 22 (1963) 1050 46 53 97 101 286 1510 2190 3240 3630
2024-05-14 03:45 6.15 1430 6890 (1961) 22 (1963) 1050 46 53 97 101 286 1510 2190 3240 3630
2024-05-14 02:45 6.14 1430 6890 (1961) 22 (1963) 1050 46 53 97 101 286 1510 2190 3240 3630
2024-05-14 01:45 6.15 1430 6890 (1961) 22 (1963) 1050 46 53 97 101 286 1510 2190 3240 3630
2024-05-14 00:45 6.15 1430 6890 (1961) 22 (1963) 1050 46 53 97 101 286 1510 2190 3240 3630
2024-05-13 23:45 6.15 1430 6890 (1961) 22 (1963) 1050 46 53 97 101 286 1510 2190 3240 3630
2024-05-13 22:45 6.15 1430 7770 (1961) 24 (1963) 1060 48 53 99 108 312 1520 2160 3240 3640
2024-05-13 21:45 6.15 1430 7770 (1961) 24 (1963) 1060 48 53 99 108 312 1520 2160 3240 3640
2024-05-13 20:45 6.15 1430 7770 (1961) 24 (1963) 1060 48 53 99 108 312 1520 2160 3240 3640
2024-05-13 19:45 6.15 1430 7770 (1961) 24 (1963) 1060 48 53 99 108 312 1520 2160 3240 3640
2024-05-13 18:45 6.15 1430 7770 (1961) 24 (1963) 1060 48 53 99 108 312 1520 2160 3240 3640
2024-05-13 17:45 6.15 1430 7770 (1961) 24 (1963) 1060 48 53 99 108 312 1520 2160 3240 3640
2024-05-13 16:45 6.15 1430 7770 (1961) 24 (1963) 1060 48 53 99 108 312 1520 2160 3240 3640
2024-05-13 15:45 6.15 1430 7770 (1961) 24 (1963) 1060 48 53 99 108 312 1520 2160 3240 3640
2024-05-13 14:45 6.15 1430 7770 (1961) 24 (1963) 1060 48 53 99 108 312 1520 2160 3240 3640
2024-05-13 13:45 6.15 1430 7770 (1961) 24 (1963) 1060 48 53 99 108 312 1520 2160 3240 3640
2024-05-13 12:45 6.15 1430 7770 (1961) 24 (1963) 1060 48 53 99 108 312 1520 2160 3240 3640
2024-05-13 11:45 6.16 1440 7770 (1961) 24 (1963) 1060 48 53 99 108 312 1520 2160 3240 3640
2024-05-13 10:45 6.13 1420 7770 (1961) 24 (1963) 1060 48 53 99 108 312 1520 2160 3240 3640
2024-05-13 09:45 6.03 1360 7770 (1961) 24 (1963) 1060 48 53 99 108 312 1520 2160 3240 3640
2024-05-13 08:45 5.18 928 7770 (1961) 24 (1963) 1060 48 53 99 108 312 1520 2160 3240 3640
2024-05-13 07:45 5.19 933 7770 (1961) 24 (1963) 1060 48 53 99 108 312 1520 2160 3240 3640
2024-05-13 06:45 5.18 928 7770 (1961) 24 (1963) 1060 48 53 99 108 312 1520 2160 3240 3640
2024-05-13 05:45 5.19 933 7770 (1961) 24 (1963) 1060 48 53 99 108 312 1520 2160 3240 3640
2024-05-13 04:45 5.19 933 7770 (1961) 24 (1963) 1060 48 53 99 108 312 1520 2160 3240 3640
2024-05-13 03:45 5.19 933 7770 (1961) 24 (1963) 1060 48 53 99 108 312 1520 2160 3240 3640
2024-05-13 02:45 5.18 928 7770 (1961) 24 (1963) 1060 48 53 99 108 312 1520 2160 3240 3640
2024-05-13 01:45 5.19 933 7770 (1961) 24 (1963) 1060 48 53 99 108 312 1520 2160 3240 3640
2024-05-13 00:45 5.19 933 7770 (1961) 24 (1963) 1060 48 53 99 108 312 1520 2160 3240 3640
2024-05-12 23:45 5.19 933 7770 (1961) 24 (1963) 1060 48 53 99 108 312 1520 2160 3240 3640
2024-05-12 22:45 5.18 928 8210 (1961) 23 (1963) 1170 47 53 96 102 311 1710 2550 3410 4340
2024-05-12 21:45 5.18 928 8210 (1961) 23 (1963) 1170 47 53 96 102 311 1710 2550 3410 4340
2024-05-12 20:45 5.19 933 8210 (1961) 23 (1963) 1170 47 53 96 102 311 1710 2550 3410 4340
2024-05-12 19:45 5.18 928 8210 (1961) 23 (1963) 1170 47 53 96 102 311 1710 2550 3410 4340
2024-05-12 18:45 5.19 933 8210 (1961) 23 (1963) 1170 47 53 96 102 311 1710 2550 3410 4340
2024-05-12 17:45 5.19 933 8210 (1961) 23 (1963) 1170 47 53 96 102 311 1710 2550 3410 4340
2024-05-12 16:45 5.18 928 8210 (1961) 23 (1963) 1170 47 53 96 102 311 1710 2550 3410 4340
2024-05-12 15:45 5.18 928 8210 (1961) 23 (1963) 1170 47 53 96 102 311 1710 2550 3410 4340
2024-05-12 14:45 5.18 928 8210 (1961) 23 (1963) 1170 47 53 96 102 311 1710 2550 3410 4340
2024-05-12 13:45 5.17 924 8210 (1961) 23 (1963) 1170 47 53 96 102 311 1710 2550 3410 4340
2024-05-12 12:45 5.14 910 8210 (1961) 23 (1963) 1170 47 53 96 102 311 1710 2550 3410 4340
2024-05-12 11:45 4.98 839 8210 (1961) 23 (1963) 1170 47 53 96 102 311 1710 2550 3410 4340
2024-05-12 10:45 4.09 504 8210 (1961) 23 (1963) 1170 47 53 96 102 311 1710 2550 3410 4340
2024-05-12 09:45 3.93 454 8210 (1961) 23 (1963) 1170 47 53 96 102 311 1710 2550 3410 4340
2024-05-12 08:45 3.93 454 8210 (1961) 23 (1963) 1170 47 53 96 102 311 1710 2550 3410 4340
2024-05-12 07:45 3.93 454 8210 (1961) 23 (1963) 1170 47 53 96 102 311 1710 2550 3410 4340
2024-05-12 06:45 3.93 454 8210 (1961) 23 (1963) 1170 47 53 96 102 311 1710 2550 3410 4340
2024-05-12 05:45 3.93 454 8210 (1961) 23 (1963) 1170 47 53 96 102 311 1710 2550 3410 4340
2024-05-12 04:45 3.93 454 8210 (1961) 23 (1963) 1170 47 53 96 102 311 1710 2550 3410 4340
2024-05-12 03:45 3.93 454 8210 (1961) 23 (1963) 1170 47 53 96 102 311 1710 2550 3410 4340
2024-05-12 02:45 3.92 451 8210 (1961) 23 (1963) 1170 47 53 96 102 311 1710 2550 3410 4340
2024-05-12 01:45 3.93 454 8210 (1961) 23 (1963) 1170 47 53 96 102 311 1710 2550 3410 4340
2024-05-12 00:45 3.93 454 8210 (1961) 23 (1963) 1170 47 53 96 102 311 1710 2550 3410 4340
2024-05-11 23:45 3.93 454 8210 (1961) 23 (1963) 1170 47 53 96 102 311 1710 2550 3410 4340
2024-05-11 22:45 3.93 454 8430 (1961) 22 (1963) 1230 49 55 96 100 267 2090 2510 3420 4080
2024-05-11 21:45 3.93 454 8430 (1961) 22 (1963) 1230 49 55 96 100 267 2090 2510 3420 4080
2024-05-11 20:45 3.93 454 8430 (1961) 22 (1963) 1230 49 55 96 100 267 2090 2510 3420 4080
2024-05-11 19:45 3.92 451 8430 (1961) 22 (1963) 1230 49 55 96 100 267 2090 2510 3420 4080
2024-05-11 18:45 3.92 451 8430 (1961) 22 (1963) 1230 49 55 96 100 267 2090 2510 3420 4080
2024-05-11 17:45 3.89 442 8430 (1961) 22 (1963) 1230 49 55 96 100 267 2090 2510 3420 4080
2024-05-11 16:45 3.79 412 8430 (1961) 22 (1963) 1230 49 55 96 100 267 2090 2510 3420 4080
2024-05-11 15:45 3.41 311 8430 (1961) 22 (1963) 1230 49 55 96 100 267 2090 2510 3420 4080
2024-05-11 14:45 1.90 57 8430 (1961) 22 (1963) 1230 49 55 96 100 267 2090 2510 3420 4080
2024-05-11 13:45 1.78 47 8430 (1961) 22 (1963) 1230 49 55 96 100 267 2090 2510 3420 4080
2024-05-11 12:45 1.78 47 8430 (1961) 22 (1963) 1230 49 55 96 100 267 2090 2510 3420 4080
2024-05-11 11:45 1.78 47 8430 (1961) 22 (1963) 1230 49 55 96 100 267 2090 2510 3420 4080
2024-05-11 10:45 1.78 47 8430 (1961) 22 (1963) 1230 49 55 96 100 267 2090 2510 3420 4080
2024-05-11 09:45 1.78 47 8430 (1961) 22 (1963) 1230 49 55 96 100 267 2090 2510 3420 4080
2024-05-11 08:45 1.78 47 8430 (1961) 22 (1963) 1230 49 55 96 100 267 2090 2510 3420 4080
2024-05-11 07:45 1.78 47 8430 (1961) 22 (1963) 1230 49 55 96 100 267 2090 2510 3420 4080
2024-05-11 06:45 1.78 47 8430 (1961) 22 (1963) 1230 49 55 96 100 267 2090 2510 3420 4080
2024-05-11 05:45 1.77 46 8430 (1961) 22 (1963) 1230 49 55 96 100 267 2090 2510 3420 4080
2024-05-11 04:45 1.77 46 8430 (1961) 22 (1963) 1230 49 55 96 100 267 2090 2510 3420 4080
2024-05-11 03:45 1.77 46 8430 (1961) 22 (1963) 1230 49 55 96 100 267 2090 2510 3420 4080
2024-05-11 02:45 1.78 47 8430 (1961) 22 (1963) 1230 49 55 96 100 267 2090 2510 3420 4080
2024-05-11 01:45 1.78 47 8430 (1961) 22 (1963) 1230 49 55 96 100 267 2090 2510 3420 4080
2024-05-11 00:45 1.78 47 8430 (1961) 22 (1963) 1230 49 55 96 100 267 2090 2510 3420 4080
2024-05-10 23:45 1.78 47 8430 (1961) 22 (1963) 1230 49 55 96 100 267 2090 2510 3420 4080
2024-05-10 22:45 1.78 47 8880 (1961) 22 (1963) 1250 50 70 97 103 445 2090 2800 3420 3770
2024-05-10 21:45 1.78 47 8880 (1961) 22 (1963) 1250 50 70 97 103 445 2090 2800 3420 3770
2024-05-10 20:45 1.78 47 8880 (1961) 22 (1963) 1250 50 70 97 103 445 2090 2800 3420 3770
2024-05-10 19:45 1.78 47 8880 (1961) 22 (1963) 1250 50 70 97 103 445 2090 2800 3420 3770
2024-05-10 18:45 1.78 47 8880 (1961) 22 (1963) 1250 50 70 97 103 445 2090 2800 3420 3770
2024-05-10 17:45 1.78 47 8880 (1961) 22 (1963) 1250 50 70 97 103 445 2090 2800 3420 3770
2024-05-10 16:45 1.78 47 8880 (1961) 22 (1963) 1250 50 70 97 103 445 2090 2800 3420 3770
2024-05-10 15:45 1.77 46 8880 (1961) 22 (1963) 1250 50 70 97 103 445 2090 2800 3420 3770
2024-05-10 14:45 1.77 46 8880 (1961) 22 (1963) 1250 50 70 97 103 445 2090 2800 3420 3770
2024-05-10 13:45 1.77 46 8880 (1961) 22 (1963) 1250 50 70 97 103 445 2090 2800 3420 3770
2024-05-10 12:45 1.77 46 8880 (1961) 22 (1963) 1250 50 70 97 103 445 2090 2800 3420 3770
2024-05-10 11:45 1.77 46 8880 (1961) 22 (1963) 1250 50 70 97 103 445 2090 2800 3420 3770
2024-05-10 10:45 1.77 46 8880 (1961) 22 (1963) 1250 50 70 97 103 445 2090 2800 3420 3770
2024-05-10 09:45 1.78 47 8880 (1961) 22 (1963) 1250 50 70 97 103 445 2090 2800 3420 3770
2024-05-10 08:45 1.77 46 8880 (1961) 22 (1963) 1250 50 70 97 103 445 2090 2800 3420 3770
2024-05-10 07:45 1.77 46 8880 (1961) 22 (1963) 1250 50 70 97 103 445 2090 2800 3420 3770
2024-05-10 06:45 1.77 46 8880 (1961) 22 (1963) 1250 50 70 97 103 445 2090 2800 3420 3770
2024-05-10 05:45 1.77 46 8880 (1961) 22 (1963) 1250 50 70 97 103 445 2090 2800 3420 3770
2024-05-10 04:45 1.77 46 8880 (1961) 22 (1963) 1250 50 70 97 103 445 2090 2800 3420 3770
2024-05-10 03:45 1.77 46 8880 (1961) 22 (1963) 1250 50 70 97 103 445 2090 2800 3420 3770
2024-05-10 02:45 1.77 46 8880 (1961) 22 (1963) 1250 50 70 97 103 445 2090 2800 3420 3770
2024-05-10 01:45 1.77 46 8880 (1961) 22 (1963) 1250 50 70 97 103 445 2090 2800 3420 3770
2024-05-10 00:45 1.77 46 8880 (1961) 22 (1963) 1250 50 70 97 103 445 2090 2800 3420 3770
2024-05-09 23:45 1.77 46 8880 (1961) 22 (1963) 1250 50 70 97 103 445 2090 2800 3420 3770
2024-05-09 22:45 1.77 46 9000 (1961) 22 (1963) 1240 48 54 99 112 460 2030 2890 3250 3770
2024-05-09 21:45 1.77 46 9000 (1961) 22 (1963) 1240 48 54 99 112 460 2030 2890 3250 3770
2024-05-09 20:45 1.77 46 9000 (1961) 22 (1963) 1240 48 54 99 112 460 2030 2890 3250 3770
2024-05-09 19:45 1.77 46 9000 (1961) 22 (1963) 1240 48 54 99 112 460 2030 2890 3250 3770
2024-05-09 18:45 1.77 46 9000 (1961) 22 (1963) 1240 48 54 99 112 460 2030 2890 3250 3770
2024-05-09 17:45 1.77 46 9000 (1961) 22 (1963) 1240 48 54 99 112 460 2030 2890 3250 3770
2024-05-09 16:45 1.77 46 9000 (1961) 22 (1963) 1240 48 54 99 112 460 2030 2890 3250 3770
2024-05-09 15:45 1.77 46 9000 (1961) 22 (1963) 1240 48 54 99 112 460 2030 2890 3250 3770
2024-05-09 14:45 1.77 46 9000 (1961) 22 (1963) 1240 48 54 99 112 460 2030 2890 3250 3770
2024-05-09 13:45 1.77 46 9000 (1961) 22 (1963) 1240 48 54 99 112 460 2030 2890 3250 3770
2024-05-09 12:45 1.77 46 9000 (1961) 22 (1963) 1240 48 54 99 112 460 2030 2890 3250 3770
2024-05-09 11:45 1.77 46 9000 (1961) 22 (1963) 1240 48 54 99 112 460 2030 2890 3250 3770
2024-05-09 10:45 1.77 46 9000 (1961) 22 (1963) 1240 48 54 99 112 460 2030 2890 3250 3770
2024-05-09 09:45 1.77 46 9000 (1961) 22 (1963) 1240 48 54 99 112 460 2030 2890 3250 3770
2024-05-09 08:45 1.77 46 9000 (1961) 22 (1963) 1240 48 54 99 112 460 2030 2890 3250 3770
2024-05-09 07:45 1.77 46 9000 (1961) 22 (1963) 1240 48 54 99 112 460 2030 2890 3250 3770
2024-05-09 06:45 1.77 46 9000 (1961) 22 (1963) 1240 48 54 99 112 460 2030 2890 3250 3770
2024-05-09 05:45 1.77 46 9000 (1961) 22 (1963) 1240 48 54 99 112 460 2030 2890 3250 3770
2024-05-09 04:45 1.77 46 9000 (1961) 22 (1963) 1240 48 54 99 112 460 2030 2890 3250 3770
2024-05-09 03:45 1.77 46 9000 (1961) 22 (1963) 1240 48 54 99 112 460 2030 2890 3250 3770
2024-05-09 02:45 1.77 46 9000 (1961) 22 (1963) 1240 48 54 99 112 460 2030 2890 3250 3770
2024-05-09 01:45 1.77 46 9000 (1961) 22 (1963) 1240 48 54 99 112 460 2030 2890 3250 3770
2024-05-09 00:45 1.77 46 9000 (1961) 22 (1963) 1240 48 54 99 112 460 2030 2890 3250 3770
2024-05-08 23:45 1.77 46 9000 (1961) 22 (1963) 1240 48 54 99 112 460 2030 2890 3250 3770
2024-05-08 22:45 1.77 46 8430 (1961) 22 (1963) 1240 48 54 103 117 483 2100 2720 3090 3770
2024-05-08 21:45 1.77 46 8430 (1961) 22 (1963) 1240 48 54 103 117 483 2100 2720 3090 3770
2024-05-08 20:45 1.77 46 8430 (1961) 22 (1963) 1240 48 54 103 117 483 2100 2720 3090 3770
2024-05-08 19:45 1.77 46 8430 (1961) 22 (1963) 1240 48 54 103 117 483 2100 2720 3090 3770
2024-05-08 18:45 1.77 46 8430 (1961) 22 (1963) 1240 48 54 103 117 483 2100 2720 3090 3770
2024-05-08 17:45 1.78 47 8430 (1961) 22 (1963) 1240 48 54 103 117 483 2100 2720 3090 3770
2024-05-08 16:45 1.78 47 8430 (1961) 22 (1963) 1240 48 54 103 117 483 2100 2720 3090 3770
2024-05-08 15:45 1.78 47 8430 (1961) 22 (1963) 1240 48 54 103 117 483 2100 2720 3090 3770
2024-05-08 14:45 1.77 46 8430 (1961) 22 (1963) 1240 48 54 103 117 483 2100 2720 3090 3770
2024-05-08 13:45 1.77 46 8430 (1961) 22 (1963) 1240 48 54 103 117 483 2100 2720 3090 3770
2024-05-08 12:45 1.77 46 8430 (1961) 22 (1963) 1240 48 54 103 117 483 2100 2720 3090 3770
2024-05-08 11:45 1.78 47 8430 (1961) 22 (1963) 1240 48 54 103 117 483 2100 2720 3090 3770
2024-05-08 10:45 1.78 47 8430 (1961) 22 (1963) 1240 48 54 103 117 483 2100 2720 3090 3770
2024-05-08 09:45 1.78 47 8430 (1961) 22 (1963) 1240 48 54 103 117 483 2100 2720 3090 3770
2024-05-08 08:45 1.78 47 8430 (1961) 22 (1963) 1240 48 54 103 117 483 2100 2720 3090 3770
2024-05-08 07:45 1.78 47 8430 (1961) 22 (1963) 1240 48 54 103 117 483 2100 2720 3090 3770
2024-05-08 06:45 1.78 47 8430 (1961) 22 (1963) 1240 48 54 103 117 483 2100 2720 3090 3770
2024-05-08 05:45 1.78 47 8430 (1961) 22 (1963) 1240 48 54 103 117 483 2100 2720 3090 3770
2024-05-08 04:45 1.78 47 8430 (1961) 22 (1963) 1240 48 54 103 117 483 2100 2720 3090 3770
2024-05-08 03:45 1.78 47 8430 (1961) 22 (1963) 1240 48 54 103 117 483 2100 2720 3090 3770
2024-05-08 02:45 1.78 47 8430 (1961) 22 (1963) 1240 48 54 103 117 483 2100 2720 3090 3770
2024-05-08 01:45 1.78 47 8430 (1961) 22 (1963) 1240 48 54 103 117 483 2100 2720 3090 3770
2024-05-08 00:45 1.78 47 8430 (1961) 22 (1963) 1240 48 54 103 117 483 2100 2720 3090 3770
2024-05-07 23:45 1.78 47 8430 (1961) 22 (1963) 1240 48 54 103 117 483 2100 2720 3090 3770
2024-05-07 22:45 1.78 47 7990 (1961) 23 (1963) 1240 47 54 103 117 517 1970 2770 3170 3790
2024-05-07 21:45 1.78 47 7990 (1961) 23 (1963) 1240 47 54 103 117 517 1970 2770 3170 3790
2024-05-07 20:45 1.78 47 7990 (1961) 23 (1963) 1240 47 54 103 117 517 1970 2770 3170 3790
2024-05-07 19:45 1.78 47 7990 (1961) 23 (1963) 1240 47 54 103 117 517 1970 2770 3170 3790
2024-05-07 18:45 1.78 47 7990 (1961) 23 (1963) 1240 47 54 103 117 517 1970 2770 3170 3790
2024-05-07 17:45 1.78 47 7990 (1961) 23 (1963) 1240 47 54 103 117 517 1970 2770 3170 3790
2024-05-07 16:45 1.79 47 7990 (1961) 23 (1963) 1240 47 54 103 117 517 1970 2770 3170 3790
2024-05-07 15:45 1.79 47 7990 (1961) 23 (1963) 1240 47 54 103 117 517 1970 2770 3170 3790
2024-05-07 14:45 1.79 47 7990 (1961) 23 (1963) 1240 47 54 103 117 517 1970 2770 3170 3790
2024-05-07 13:45 1.79 47 7990 (1961) 23 (1963) 1240 47 54 103 117 517 1970 2770 3170 3790
2024-05-07 12:45 1.79 47 7990 (1961) 23 (1963) 1240 47 54 103 117 517 1970 2770 3170 3790
2024-05-07 11:45 1.80 48 7990 (1961) 23 (1963) 1240 47 54 103 117 517 1970 2770 3170 3790
2024-05-07 10:45 1.80 48 7990 (1961) 23 (1963) 1240 47 54 103 117 517 1970 2770 3170 3790
2024-05-07 09:45 1.81 49 7990 (1961) 23 (1963) 1240 47 54 103 117 517 1970 2770 3170 3790
2024-05-07 08:45 1.82 50 7990 (1961) 23 (1963) 1240 47 54 103 117 517 1970 2770 3170 3790
2024-05-07 07:45 1.83 51 7990 (1961) 23 (1963) 1240 47 54 103 117 517 1970 2770 3170 3790
2024-05-07 06:45 1.85 53 7990 (1961) 23 (1963) 1240 47 54 103 117 517 1970 2770 3170 3790
2024-05-07 05:45 1.88 55 7990 (1961) 23 (1963) 1240 47 54 103 117 517 1970 2770 3170 3790
2024-05-07 04:45 1.91 58 7990 (1961) 23 (1963) 1240 47 54 103 117 517 1970 2770 3170 3790
2024-05-07 03:45 1.94 61 7990 (1961) 23 (1963) 1240 47 54 103 117 517 1970 2770 3170 3790
2024-05-07 02:45 1.92 59 7990 (1961) 23 (1963) 1240 47 54 103 117 517 1970 2770 3170 3790
2024-05-07 01:45 1.84 52 7990 (1961) 23 (1963) 1240 47 54 103 117 517 1970 2770 3170 3790
2024-05-07 00:45 1.77 46 7990 (1961) 23 (1963) 1240 47 54 103 117 517 1970 2770 3170 3790
2024-05-06 23:45 1.77 46 7990 (1961) 23 (1963) 1240 47 54 103 117 517 1970 2770 3170 3790
2024-05-06 22:45 1.77 46 7440 (1961) 23 (1963) 1280 46 55 109 126 590 2090 2420 3440 4700
2024-05-06 21:45 1.77 46 7440 (1961) 23 (1963) 1280 46 55 109 126 590 2090 2420 3440 4700
2024-05-06 20:45 1.77 46 7440 (1961) 23 (1963) 1280 46 55 109 126 590 2090 2420 3440 4700
2024-05-06 19:45 1.77 46 7440 (1961) 23 (1963) 1280 46 55 109 126 590 2090 2420 3440 4700
2024-05-06 18:45 1.77 46 7440 (1961) 23 (1963) 1280 46 55 109 126 590 2090 2420 3440 4700
2024-05-06 17:45 1.77 46 7440 (1961) 23 (1963) 1280 46 55 109 126 590 2090 2420 3440 4700
2024-05-06 16:45 1.77 46 7440 (1961) 23 (1963) 1280 46 55 109 126 590 2090 2420 3440 4700
2024-05-06 15:45 1.77 46 7440 (1961) 23 (1963) 1280 46 55 109 126 590 2090 2420 3440 4700
2024-05-06 14:45 1.77 46 7440 (1961) 23 (1963) 1280 46 55 109 126 590 2090 2420 3440 4700
2024-05-06 13:45 1.77 46 7440 (1961) 23 (1963) 1280 46 55 109 126 590 2090 2420 3440 4700
2024-05-06 12:45 1.77 46 7440 (1961) 23 (1963) 1280 46 55 109 126 590 2090 2420 3440 4700
2024-05-06 11:45 1.77 46 7440 (1961) 23 (1963) 1280 46 55 109 126 590 2090 2420 3440 4700
2024-05-06 10:45 1.78 47 7440 (1961) 23 (1963) 1280 46 55 109 126 590 2090 2420 3440 4700
2024-05-06 09:45 1.78 47 7440 (1961) 23 (1963) 1280 46 55 109 126 590 2090 2420 3440 4700
2024-05-06 08:45 1.78 47 7440 (1961) 23 (1963) 1280 46 55 109 126 590 2090 2420 3440 4700
2024-05-06 07:45 1.78 47 7440 (1961) 23 (1963) 1280 46 55 109 126 590 2090 2420 3440 4700
2024-05-06 06:45 1.79 47 7440 (1961) 23 (1963) 1280 46 55 109 126 590 2090 2420 3440 4700
2024-05-06 05:45 1.80 48 7440 (1961) 23 (1963) 1280 46 55 109 126 590 2090 2420 3440 4700
2024-05-06 04:45 1.83 51 7440 (1961) 23 (1963) 1280 46 55 109 126 590 2090 2420 3440 4700
2024-05-06 03:45 1.88 55 7440 (1961) 23 (1963) 1280 46 55 109 126 590 2090 2420 3440 4700
2024-05-06 02:45 1.98 65 7440 (1961) 23 (1963) 1280 46 55 109 126 590 2090 2420 3440 4700
2024-05-06 01:45 2.20 89 7440 (1961) 23 (1963) 1280 46 55 109 126 590 2090 2420 3440 4700
2024-05-06 00:45 2.63 151 7440 (1961) 23 (1963) 1280 46 55 109 126 590 2090 2420 3440 4700
2024-05-05 23:45 3.61 362 7440 (1961) 23 (1963) 1280 46 55 109 126 590 2090 2420 3440 4700
2024-05-05 22:45 4.12 513 5110 (1961) 27 (1963) 1080 46 54 109 126 588 1940 2100 3270 3540
2024-05-05 21:45 4.70 723 5110 (1961) 27 (1963) 1080 46 54 109 126 588 1940 2100 3270 3540
2024-05-05 20:45 5.28 975 5110 (1961) 27 (1963) 1080 46 54 109 126 588 1940 2100 3270 3540
2024-05-05 19:45 5.83 1250 5110 (1961) 27 (1963) 1080 46 54 109 126 588 1940 2100 3270 3540
2024-05-05 18:45 6.19 1460 5110 (1961) 27 (1963) 1080 46 54 109 126 588 1940 2100 3270 3540
2024-05-05 17:45 6.57 1690 5110 (1961) 27 (1963) 1080 46 54 109 126 588 1940 2100 3270 3540
2024-05-05 16:45 7.00 1980 5110 (1961) 27 (1963) 1080 46 54 109 126 588 1940 2100 3270 3540
2024-05-05 15:45 7.31 2210 5110 (1961) 27 (1963) 1080 46 54 109 126 588 1940 2100 3270 3540
2024-05-05 14:45 7.67 2480 5110 (1961) 27 (1963) 1080 46 54 109 126 588 1940 2100 3270 3540
2024-05-05 13:45 7.89 2660 5110 (1961) 27 (1963) 1080 46 54 109 126 588 1940 2100 3270 3540
2024-05-05 12:45 8.24 2960 5110 (1961) 27 (1963) 1080 46 54 109 126 588 1940 2100 3270 3540
2024-05-05 11:45 8.23 2950 5110 (1961) 27 (1963) 1080 46 54 109 126 588 1940 2100 3270 3540
2024-05-05 10:45 8.23 2950 5110 (1961) 27 (1963) 1080 46 54 109 126 588 1940 2100 3270 3540
2024-05-05 09:45 8.23 2950 5110 (1961) 27 (1963) 1080 46 54 109 126 588 1940 2100 3270 3540
2024-05-05 08:45 8.24 2960 5110 (1961) 27 (1963) 1080 46 54 109 126 588 1940 2100 3270 3540
2024-05-05 07:45 8.25 2970 5110 (1961) 27 (1963) 1080 46 54 109 126 588 1940 2100 3270 3540
2024-05-05 06:45 8.25 2970 5110 (1961) 27 (1963) 1080 46 54 109 126 588 1940 2100 3270 3540
2024-05-05 05:45 8.24 2960 5110 (1961) 27 (1963) 1080 46 54 109 126 588 1940 2100 3270 3540
2024-05-05 04:45 8.24 2960 5110 (1961) 27 (1963) 1080 46 54 109 126 588 1940 2100 3270 3540
2024-05-05 03:45 8.25 2970 5110 (1961) 27 (1963) 1080 46 54 109 126 588 1940 2100 3270 3540
2024-05-05 02:45 8.25 2970 5110 (1961) 27 (1963) 1080 46 54 109 126 588 1940 2100 3270 3540
2024-05-05 01:45 8.24 2960 5110 (1961) 27 (1963) 1080 46 54 109 126 588 1940 2100 3270 3540
2024-05-05 00:45 8.24 2960 5110 (1961) 27 (1963) 1080 46 54 109 126 588 1940 2100 3270 3540
2024-05-04 23:45 8.25 2970 5110 (1961) 27 (1963) 1080 46 54 109 126 588 1940 2100 3270 3540
2024-05-04 22:45 8.25 2970 5210 (1961) 44 (1975) 994 50 55 108 115 517 1660 1950 2420 3620
2024-05-04 21:45 8.24 2960 5210 (1961) 44 (1975) 994 50 55 108 115 517 1660 1950 2420 3620
2024-05-04 20:45 8.24 2960 5210 (1961) 44 (1975) 994 50 55 108 115 517 1660 1950 2420 3620
2024-05-04 19:45 8.25 2970 5210 (1961) 44 (1975) 994 50 55 108 115 517 1660 1950 2420 3620
2024-05-04 18:45 8.25 2970 5210 (1961) 44 (1975) 994 50 55 108 115 517 1660 1950 2420 3620
2024-05-04 17:45 8.25 2970 5210 (1961) 44 (1975) 994 50 55 108 115 517 1660 1950 2420 3620
2024-05-04 16:45 8.26 2980 5210 (1961) 44 (1975) 994 50 55 108 115 517 1660 1950 2420 3620
2024-05-04 15:45 8.24 2960 5210 (1961) 44 (1975) 994 50 55 108 115 517 1660 1950 2420 3620
2024-05-04 14:45 8.26 2980 5210 (1961) 44 (1975) 994 50 55 108 115 517 1660 1950 2420 3620
2024-05-04 13:45 8.25 2970 5210 (1961) 44 (1975) 994 50 55 108 115 517 1660 1950 2420 3620
2024-05-04 12:45 8.25 2970 5210 (1961) 44 (1975) 994 50 55 108 115 517 1660 1950 2420 3620
2024-05-04 11:45 8.25 2970 5210 (1961) 44 (1975) 994 50 55 108 115 517 1660 1950 2420 3620
2024-05-04 10:45 8.26 2980 5210 (1961) 44 (1975) 994 50 55 108 115 517 1660 1950 2420 3620
2024-05-04 09:45 8.26 2980 5210 (1961) 44 (1975) 994 50 55 108 115 517 1660 1950 2420 3620
2024-05-04 08:45 8.25 2970 5210 (1961) 44 (1975) 994 50 55 108 115 517 1660 1950 2420 3620
2024-05-04 07:45 8.26 2980 5210 (1961) 44 (1975) 994 50 55 108 115 517 1660 1950 2420 3620
2024-05-04 06:45 8.26 2980 5210 (1961) 44 (1975) 994 50 55 108 115 517 1660 1950 2420 3620
2024-05-04 05:45 8.27 2990 5210 (1961) 44 (1975) 994 50 55 108 115 517 1660 1950 2420 3620
2024-05-04 04:45 8.26 2980 5210 (1961) 44 (1975) 994 50 55 108 115 517 1660 1950 2420 3620
2024-05-04 03:45 8.26 2980 5210 (1961) 44 (1975) 994 50 55 108 115 517 1660 1950 2420 3620
2024-05-04 02:45 8.25 2970 5210 (1961) 44 (1975) 994 50 55 108 115 517 1660 1950 2420 3620
2024-05-04 01:45 8.27 2990 5210 (1961) 44 (1975) 994 50 55 108 115 517 1660 1950 2420 3620
2024-05-04 00:45 8.26 2980 5210 (1961) 44 (1975) 994 50 55 108 115 517 1660 1950 2420 3620
2024-05-03 23:45 8.26 2980 5210 (1961) 44 (1975) 994 50 55 108 115 517 1660 1950 2420 3620
2024-05-03 22:45 8.27 2990 5910 (1961) 29 (1963) 981 46 53 106 110 456 1500 1910 2770 3630
2024-05-03 21:45 8.27 2990 5910 (1961) 29 (1963) 981 46 53 106 110 456 1500 1910 2770 3630
2024-05-03 20:45 8.26 2980 5910 (1961) 29 (1963) 981 46 53 106 110 456 1500 1910 2770 3630
2024-05-03 19:45 8.27 2990 5910 (1961) 29 (1963) 981 46 53 106 110 456 1500 1910 2770 3630
2024-05-03 18:45 8.28 3000 5910 (1961) 29 (1963) 981 46 53 106 110 456 1500 1910 2770 3630
2024-05-03 17:45 8.27 2990 5910 (1961) 29 (1963) 981 46 53 106 110 456 1500 1910 2770 3630
2024-05-03 16:45 8.27 2990 5910 (1961) 29 (1963) 981 46 53 106 110 456 1500 1910 2770 3630
2024-05-03 15:45 8.27 2990 5910 (1961) 29 (1963) 981 46 53 106 110 456 1500 1910 2770 3630
2024-05-03 14:45 8.28 3000 5910 (1961) 29 (1963) 981 46 53 106 110 456 1500 1910 2770 3630
2024-05-03 13:45 8.27 2990 5910 (1961) 29 (1963) 981 46 53 106 110 456 1500 1910 2770 3630
2024-05-03 12:45 8.26 2980 5910 (1961) 29 (1963) 981 46 53 106 110 456 1500 1910 2770 3630
2024-05-03 11:45 8.28 3000 5910 (1961) 29 (1963) 981 46 53 106 110 456 1500 1910 2770 3630
2024-05-03 10:45 8.27 2990 5910 (1961) 29 (1963) 981 46 53 106 110 456 1500 1910 2770 3630
2024-05-03 09:45 8.28 3000 5910 (1961) 29 (1963) 981 46 53 106 110 456 1500 1910 2770 3630
2024-05-03 08:45 8.28 3000 5910 (1961) 29 (1963) 981 46 53 106 110 456 1500 1910 2770 3630
2024-05-03 07:45 8.28 3000 5910 (1961) 29 (1963) 981 46 53 106 110 456 1500 1910 2770 3630
2024-05-03 06:45 8.27 2990 5910 (1961) 29 (1963) 981 46 53 106 110 456 1500 1910 2770 3630
2024-05-03 05:45 8.28 3000 5910 (1961) 29 (1963) 981 46 53 106 110 456 1500 1910 2770 3630
2024-05-03 04:45 8.28 3000 5910 (1961) 29 (1963) 981 46 53 106 110 456 1500 1910 2770 3630
2024-05-03 03:45 8.28 3000 5910 (1961) 29 (1963) 981 46 53 106 110 456 1500 1910 2770 3630
2024-05-03 02:45 8.28 3000 5910 (1961) 29 (1963) 981 46 53 106 110 456 1500 1910 2770 3630
2024-05-03 01:45 8.28 3000 5910 (1961) 29 (1963) 981 46 53 106 110 456 1500 1910 2770 3630
2024-05-03 00:45 8.28 3000 5910 (1961) 29 (1963) 981 46 53 106 110 456 1500 1910 2770 3630
2024-05-02 23:45 8.28 3000 5910 (1961) 29 (1963) 981 46 53 106 110 456 1500 1910 2770 3630
2024-05-02 22:45 8.28 3000 6890 (1961) 29 (1963) 1050 46 52 106 110 488 1680 2090 2950 3640
2024-05-02 21:45 8.29 3010 6890 (1961) 29 (1963) 1050 46 52 106 110 488 1680 2090 2950 3640
2024-05-02 20:45 8.29 3010 6890 (1961) 29 (1963) 1050 46 52 106 110 488 1680 2090 2950 3640
2024-05-02 19:45 8.29 3010 6890 (1961) 29 (1963) 1050 46 52 106 110 488 1680 2090 2950 3640
2024-05-02 18:45 8.28 3000 6890 (1961) 29 (1963) 1050 46 52 106 110 488 1680 2090 2950 3640
2024-05-02 17:45 8.28 3000 6890 (1961) 29 (1963) 1050 46 52 106 110 488 1680 2090 2950 3640
2024-05-02 16:45 8.28 3000 6890 (1961) 29 (1963) 1050 46 52 106 110 488 1680 2090 2950 3640
2024-05-02 15:45 8.30 3020 6890 (1961) 29 (1963) 1050 46 52 106 110 488 1680 2090 2950 3640
2024-05-02 14:45 8.29 3010 6890 (1961) 29 (1963) 1050 46 52 106 110 488 1680 2090 2950 3640
2024-05-02 13:45 8.30 3020 6890 (1961) 29 (1963) 1050 46 52 106 110 488 1680 2090 2950 3640
2024-05-02 12:45 8.29 3010 6890 (1961) 29 (1963) 1050 46 52 106 110 488 1680 2090 2950 3640
2024-05-02 11:45 8.29 3010 6890 (1961) 29 (1963) 1050 46 52 106 110 488 1680 2090 2950 3640
2024-05-02 10:45 8.29 3010 6890 (1961) 29 (1963) 1050 46 52 106 110 488 1680 2090 2950 3640
2024-05-02 09:45 8.28 3000 6890 (1961) 29 (1963) 1050 46 52 106 110 488 1680 2090 2950 3640
2024-05-02 08:45 8.30 3020 6890 (1961) 29 (1963) 1050 46 52 106 110 488 1680 2090 2950 3640
2024-05-02 07:45 8.29 3010 6890 (1961) 29 (1963) 1050 46 52 106 110 488 1680 2090 2950 3640
2024-05-02 06:45 8.28 3000 6890 (1961) 29 (1963) 1050 46 52 106 110 488 1680 2090 2950 3640
2024-05-02 05:45 8.28 3000 6890 (1961) 29 (1963) 1050 46 52 106 110 488 1680 2090 2950 3640
2024-05-02 04:45 8.30 3020 6890 (1961) 29 (1963) 1050 46 52 106 110 488 1680 2090 2950 3640
2024-05-02 03:45 8.30 3020 6890 (1961) 29 (1963) 1050 46 52 106 110 488 1680 2090 2950 3640
2024-05-02 02:45 8.29 3010 6890 (1961) 29 (1963) 1050 46 52 106 110 488 1680 2090 2950 3640
2024-05-02 01:45 8.31 3030 6890 (1961) 29 (1963) 1050 46 52 106 110 488 1680 2090 2950 3640
2024-05-02 00:45 8.30 3020 6890 (1961) 29 (1963) 1050 46 52 106 110 488 1680 2090 2950 3640
2024-05-01 23:45 8.30 3020 6890 (1961) 29 (1963) 1050 46 52 106 110 488 1680 2090 2950 3640
2024-05-01 22:45 8.30 3020 5910 (1961) 29 (1963) 1060 43 52 91 107 429 1700 2140 3140 3650
2024-05-01 21:45 8.29 3010 5910 (1961) 29 (1963) 1060 43 52 91 107 429 1700 2140 3140 3650
2024-05-01 20:45 8.31 3030 5910 (1961) 29 (1963) 1060 43 52 91 107 429 1700 2140 3140 3650
2024-05-01 19:45 8.32 3030 5910 (1961) 29 (1963) 1060 43 52 91 107 429 1700 2140 3140 3650
2024-05-01 18:45 8.31 3030 5910 (1961) 29 (1963) 1060 43 52 91 107 429 1700 2140 3140 3650
2024-05-01 17:45 8.31 3030 5910 (1961) 29 (1963) 1060 43 52 91 107 429 1700 2140 3140 3650
2024-05-01 16:45 8.31 3030 5910 (1961) 29 (1963) 1060 43 52 91 107 429 1700 2140 3140 3650
2024-05-01 15:45 8.32 3030 5910 (1961) 29 (1963) 1060 43 52 91 107 429 1700 2140 3140 3650
2024-05-01 14:45 8.31 3030 5910 (1961) 29 (1963) 1060 43 52 91 107 429 1700 2140 3140 3650
2024-05-01 13:45 8.32 3030 5910 (1961) 29 (1963) 1060 43 52 91 107 429 1700 2140 3140 3650
2024-05-01 12:45 8.32 3030 5910 (1961) 29 (1963) 1060 43 52 91 107 429 1700 2140 3140 3650
2024-05-01 11:45 8.30 3020 5910 (1961) 29 (1963) 1060 43 52 91 107 429 1700 2140 3140 3650
2024-05-01 10:45 8.25 2970 5910 (1961) 29 (1963) 1060 43 52 91 107 429 1700 2140 3140 3650
2024-05-01 09:45 7.74 2540 5910 (1961) 29 (1963) 1060 43 52 91 107 429 1700 2140 3140 3650
2024-05-01 08:45 7.74 2540 5910 (1961) 29 (1963) 1060 43 52 91 107 429 1700 2140 3140 3650
2024-05-01 07:45 7.73 2530 5910 (1961) 29 (1963) 1060 43 52 91 107 429 1700 2140 3140 3650
2024-05-01 06:45 7.73 2530 5910 (1961) 29 (1963) 1060 43 52 91 107 429 1700 2140 3140 3650
2024-05-01 05:45 7.76 2560 5910 (1961) 29 (1963) 1060 43 52 91 107 429 1700 2140 3140 3650
2024-05-01 04:45 7.73 2530 5910 (1961) 29 (1963) 1060 43 52 91 107 429 1700 2140 3140 3650
2024-05-01 03:45 7.74 2540 5910 (1961) 29 (1963) 1060 43 52 91 107 429 1700 2140 3140 3650
2024-05-01 02:45 7.75 2550 5910 (1961) 29 (1963) 1060 43 52 91 107 429 1700 2140 3140 3650
2024-05-01 01:45 7.73 2530 5910 (1961) 29 (1963) 1060 43 52 91 107 429 1700 2140 3140 3650
2024-05-01 00:45 7.75 2550 5910 (1961) 29 (1963) 1060 43 52 91 107 429 1700 2140 3140 3650
2024-04-30 23:45 7.75 2550 5910 (1961) 29 (1963) 1060 43 52 91 107 429 1700 2140 3140 3650
2024-04-30 22:45 7.74 2540 3690 (2011) 30 (1963) 921 46 53 103 113 453 1460 1840 2790 3150
2024-04-30 21:45 7.75 2550 3690 (2011) 30 (1963) 921 46 53 103 113 453 1460 1840 2790 3150
2024-04-30 20:45 7.74 2540 3690 (2011) 30 (1963) 921 46 53 103 113 453 1460 1840 2790 3150
2024-04-30 19:45 7.76 2560 3690 (2011) 30 (1963) 921 46 53 103 113 453 1460 1840 2790 3150
2024-04-30 18:45 7.76 2560 3690 (2011) 30 (1963) 921 46 53 103 113 453 1460 1840 2790 3150
2024-04-30 17:45 7.76 2560 3690 (2011) 30 (1963) 921 46 53 103 113 453 1460 1840 2790 3150
2024-04-30 16:45 7.77 2560 3690 (2011) 30 (1963) 921 46 53 103 113 453 1460 1840 2790 3150
2024-04-30 15:45 7.78 2570 3690 (2011) 30 (1963) 921 46 53 103 113 453 1460 1840 2790 3150
2024-04-30 14:45 7.75 2550 3690 (2011) 30 (1963) 921 46 53 103 113 453 1460 1840 2790 3150
2024-04-30 13:45 7.77 2560 3690 (2011) 30 (1963) 921 46 53 103 113 453 1460 1840 2790 3150
2024-04-30 12:45 7.78 2570 3690 (2011) 30 (1963) 921 46 53 103 113 453 1460 1840 2790 3150
2024-04-30 11:45 7.78 2570 3690 (2011) 30 (1963) 921 46 53 103 113 453 1460 1840 2790 3150
2024-04-30 10:45 7.78 2570 3690 (2011) 30 (1963) 921 46 53 103 113 453 1460 1840 2790 3150
2024-04-30 09:45 7.75 2550 3690 (2011) 30 (1963) 921 46 53 103 113 453 1460 1840 2790 3150
2024-04-30 08:45 7.51 2360 3690 (2011) 30 (1963) 921 46 53 103 113 453 1460 1840 2790 3150
2024-04-30 07:45 7.09 2040 3690 (2011) 30 (1963) 921 46 53 103 113 453 1460 1840 2790 3150
2024-04-30 06:45 7.08 2040 3690 (2011) 30 (1963) 921 46 53 103 113 453 1460 1840 2790 3150
2024-04-30 05:45 7.09 2040 3690 (2011) 30 (1963) 921 46 53 103 113 453 1460 1840 2790 3150
2024-04-30 04:45 7.08 2040 3690 (2011) 30 (1963) 921 46 53 103 113 453 1460 1840 2790 3150
2024-04-30 03:45 7.09 2040 3690 (2011) 30 (1963) 921 46 53 103 113 453 1460 1840 2790 3150
2024-04-30 02:45 7.09 2040 3690 (2011) 30 (1963) 921 46 53 103 113 453 1460 1840 2790 3150
2024-04-30 01:45 7.09 2040 3690 (2011) 30 (1963) 921 46 53 103 113 453 1460 1840 2790 3150
2024-04-30 00:45 7.10 2050 3690 (2011) 30 (1963) 921 46 53 103 113 453 1460 1840 2790 3150
2024-04-29 23:45 7.08 2040 3690 (2011) 30 (1963) 921 46 53 103 113 453 1460 1840 2790 3150
2024-04-29 22:45 7.09 2040 3700 (2011) 31 (1963) 851 43 53 106 117 420 1560 1920 2380 2920
2024-04-29 21:45 7.09 2040 3700 (2011) 31 (1963) 851 43 53 106 117 420 1560 1920 2380 2920
2024-04-29 20:45 7.09 2040 3700 (2011) 31 (1963) 851 43 53 106 117 420 1560 1920 2380 2920
2024-04-29 19:45 7.10 2050 3700 (2011) 31 (1963) 851 43 53 106 117 420 1560 1920 2380 2920
2024-04-29 18:45 7.10 2050 3700 (2011) 31 (1963) 851 43 53 106 117 420 1560 1920 2380 2920
2024-04-29 17:45 7.10 2050 3700 (2011) 31 (1963) 851 43 53 106 117 420 1560 1920 2380 2920
2024-04-29 16:45 7.10 2050 3700 (2011) 31 (1963) 851 43 53 106 117 420 1560 1920 2380 2920
2024-04-29 15:45 7.06 2020 3700 (2011) 31 (1963) 851 43 53 106 117 420 1560 1920 2380 2920
2024-04-29 14:45 6.71 1780 3700 (2011) 31 (1963) 851 43 53 106 117 420 1560 1920 2380 2920
2024-04-29 13:45 6.18 1450 3700 (2011) 31 (1963) 851 43 53 106 117 420 1560 1920 2380 2920
2024-04-29 12:45 5.74 1200 3700 (2011) 31 (1963) 851 43 53 106 117 420 1560 1920 2380 2920
2024-04-29 11:45 5.12 901 3700 (2011) 31 (1963) 851 43 53 106 117 420 1560 1920 2380 2920
2024-04-29 10:45 4.49 643 3700 (2011) 31 (1963) 851 43 53 106 117 420 1560 1920 2380 2920
2024-04-29 09:45 3.57 352 3700 (2011) 31 (1963) 851 43 53 106 117 420 1560 1920 2380 2920
2024-04-29 08:45 2.44 122 3700 (2011) 31 (1963) 851 43 53 106 117 420 1560 1920 2380 2920
2024-04-29 07:45 1.87 54 3700 (2011) 31 (1963) 851 43 53 106 117 420 1560 1920 2380 2920
2024-04-29 06:45 1.88 55 3700 (2011) 31 (1963) 851 43 53 106 117 420 1560 1920 2380 2920
2024-04-29 05:45 1.90 57 3700 (2011) 31 (1963) 851 43 53 106 117 420 1560 1920 2380 2920
2024-04-29 04:45 1.93 60 3700 (2011) 31 (1963) 851 43 53 106 117 420 1560 1920 2380 2920
2024-04-29 03:45 1.98 65 3700 (2011) 31 (1963) 851 43 53 106 117 420 1560 1920 2380 2920
2024-04-29 02:45 2.05 72 3700 (2011) 31 (1963) 851 43 53 106 117 420 1560 1920 2380 2920
2024-04-29 01:45 2.16 85 3700 (2011) 31 (1963) 851 43 53 106 117 420 1560 1920 2380 2920
2024-04-29 00:45 2.33 106 3700 (2011) 31 (1963) 851 43 53 106 117 420 1560 1920 2380 2920
2024-04-28 23:45 2.59 145 3700 (2011) 31 (1963) 851 43 53 106 117 420 1560 1920 2380 2920
2024-04-28 22:45 2.98 215 3700 (2011) 30 (1963) 907 46 54 110 126 454 1560 1760 2650 2920
2024-04-28 21:45 3.31 287 3700 (2011) 30 (1963) 907 46 54 110 126 454 1560 1760 2650 2920
2024-04-28 20:45 2.33 106 3700 (2011) 30 (1963) 907 46 54 110 126 454 1560 1760 2650 2920
2024-04-28 19:45 1.89 56 3700 (2011) 30 (1963) 907 46 54 110 126 454 1560 1760 2650 2920
2024-04-28 18:45 1.84 52 3700 (2011) 30 (1963) 907 46 54 110 126 454 1560 1760 2650 2920
2024-04-28 17:45 1.83 51 3700 (2011) 30 (1963) 907 46 54 110 126 454 1560 1760 2650 2920
2024-04-28 16:45 1.83 51 3700 (2011) 30 (1963) 907 46 54 110 126 454 1560 1760 2650 2920
2024-04-28 15:45 1.83 51 3700 (2011) 30 (1963) 907 46 54 110 126 454 1560 1760 2650 2920
2024-04-28 14:45 1.83 51 3700 (2011) 30 (1963) 907 46 54 110 126 454 1560 1760 2650 2920
2024-04-28 13:45 1.84 52 3700 (2011) 30 (1963) 907 46 54 110 126 454 1560 1760 2650 2920
2024-04-28 12:45 1.84 52 3700 (2011) 30 (1963) 907 46 54 110 126 454 1560 1760 2650 2920
2024-04-28 11:45 1.84 52 3700 (2011) 30 (1963) 907 46 54 110 126 454 1560 1760 2650 2920
2024-04-28 10:45 1.84 52 3700 (2011) 30 (1963) 907 46 54 110 126 454 1560 1760 2650 2920
2024-04-28 09:45 1.84 52 3700 (2011) 30 (1963) 907 46 54 110 126 454 1560 1760 2650 2920
2024-04-28 08:45 1.83 51 3700 (2011) 30 (1963) 907 46 54 110 126 454 1560 1760 2650 2920
2024-04-28 07:45 1.83 51 3700 (2011) 30 (1963) 907 46 54 110 126 454 1560 1760 2650 2920
2024-04-28 06:45 1.83 51 3700 (2011) 30 (1963) 907 46 54 110 126 454 1560 1760 2650 2920
2024-04-28 05:45 1.82 50 3700 (2011) 30 (1963) 907 46 54 110 126 454 1560 1760 2650 2920
2024-04-28 04:45 1.82 50 3700 (2011) 30 (1963) 907 46 54 110 126 454 1560 1760 2650 2920
2024-04-28 03:45 1.82 50 3700 (2011) 30 (1963) 907 46 54 110 126 454 1560 1760 2650 2920
2024-04-28 02:45 1.82 50 3700 (2011) 30 (1963) 907 46 54 110 126 454 1560 1760 2650 2920
2024-04-28 01:45 1.82 50 3700 (2011) 30 (1963) 907 46 54 110 126 454 1560 1760 2650 2920
2024-04-28 00:45 1.82 50 3700 (2011) 30 (1963) 907 46 54 110 126 454 1560 1760 2650 2920
2024-04-27 23:45 1.82 50 3700 (2011) 30 (1963) 907 46 54 110 126 454 1560 1760 2650 2920
2024-04-27 22:45 1.82 50 3710 (2011) 32 (1963) 950 46 54 107 117 321 1990 2110 2680 2960
2024-04-27 21:45 1.83 51 3710 (2011) 32 (1963) 950 46 54 107 117 321 1990 2110 2680 2960
2024-04-27 20:45 1.83 51 3710 (2011) 32 (1963) 950 46 54 107 117 321 1990 2110 2680 2960
2024-04-27 19:45 1.83 51 3710 (2011) 32 (1963) 950 46 54 107 117 321 1990 2110 2680 2960
2024-04-27 18:45 1.83 51 3710 (2011) 32 (1963) 950 46 54 107 117 321 1990 2110 2680 2960
2024-04-27 17:45 1.83 51 3710 (2011) 32 (1963) 950 46 54 107 117 321 1990 2110 2680 2960
2024-04-27 16:45 1.82 50 3710 (2011) 32 (1963) 950 46 54 107 117 321 1990 2110 2680 2960
2024-04-27 15:45 1.82 50 3710 (2011) 32 (1963) 950 46 54 107 117 321 1990 2110 2680 2960
2024-04-27 14:45 1.82 50 3710 (2011) 32 (1963) 950 46 54 107 117 321 1990 2110 2680 2960
2024-04-27 13:45 1.82 50 3710 (2011) 32 (1963) 950 46 54 107 117 321 1990 2110 2680 2960
2024-04-27 12:45 1.82 50 3710 (2011) 32 (1963) 950 46 54 107 117 321 1990 2110 2680 2960
2024-04-27 11:45 1.82 50 3710 (2011) 32 (1963) 950 46 54 107 117 321 1990 2110 2680 2960
2024-04-27 10:45 1.82 50 3710 (2011) 32 (1963) 950 46 54 107 117 321 1990 2110 2680 2960
2024-04-27 09:45 1.82 50 3710 (2011) 32 (1963) 950 46 54 107 117 321 1990 2110 2680 2960
2024-04-27 08:45 1.82 50 3710 (2011) 32 (1963) 950 46 54 107 117 321 1990 2110 2680 2960
2024-04-27 07:45 1.82 50 3710 (2011) 32 (1963) 950 46 54 107 117 321 1990 2110 2680 2960
2024-04-27 06:45 1.82 50 3710 (2011) 32 (1963) 950 46 54 107 117 321 1990 2110 2680 2960
2024-04-27 05:45 1.82 50 3710 (2011) 32 (1963) 950 46 54 107 117 321 1990 2110 2680 2960
2024-04-27 04:45 1.82 50 3710 (2011) 32 (1963) 950 46 54 107 117 321 1990 2110 2680 2960
2024-04-27 03:45 1.82 50 3710 (2011) 32 (1963) 950 46 54 107 117 321 1990 2110 2680 2960
2024-04-27 02:45 1.82 50 3710 (2011) 32 (1963) 950 46 54 107 117 321 1990 2110 2680 2960
2024-04-27 01:45 1.82 50 3710 (2011) 32 (1963) 950 46 54 107 117 321 1990 2110 2680 2960
2024-04-27 00:45 1.83 51 3710 (2011) 32 (1963) 950 46 54 107 117 321 1990 2110 2680 2960
2024-04-26 23:45 1.83 51 3710 (2011) 32 (1963) 950 46 54 107 117 321 1990 2110 2680 2960
2024-04-26 22:45 1.83 51 3320 (2008) 29 (1963) 868 46 54 101 116 308 1560 1950 2580 3040
2024-04-26 21:45 1.83 51 3320 (2008) 29 (1963) 868 46 54 101 116 308 1560 1950 2580 3040
2024-04-26 20:45 1.83 51 3320 (2008) 29 (1963) 868 46 54 101 116 308 1560 1950 2580 3040
2024-04-26 19:45 1.83 51 3320 (2008) 29 (1963) 868 46 54 101 116 308 1560 1950 2580 3040
2024-04-26 18:45 1.84 52 3320 (2008) 29 (1963) 868 46 54 101 116 308 1560 1950 2580 3040
2024-04-26 17:45 1.84 52 3320 (2008) 29 (1963) 868 46 54 101 116 308 1560 1950 2580 3040
2024-04-26 16:45 1.84 52 3320 (2008) 29 (1963) 868 46 54 101 116 308 1560 1950 2580 3040
2024-04-26 15:45 1.85 53 3320 (2008) 29 (1963) 868 46 54 101 116 308 1560 1950 2580 3040
2024-04-26 14:45 1.86 54 3320 (2008) 29 (1963) 868 46 54 101 116 308 1560 1950 2580 3040
2024-04-26 13:45 1.87 54 3320 (2008) 29 (1963) 868 46 54 101 116 308 1560 1950 2580 3040
2024-04-26 12:45 1.87 54 3320 (2008) 29 (1963) 868 46 54 101 116 308 1560 1950 2580 3040
2024-04-26 11:45 1.87 54 3320 (2008) 29 (1963) 868 46 54 101 116 308 1560 1950 2580 3040
2024-04-26 10:45 1.85 53 3320 (2008) 29 (1963) 868 46 54 101 116 308 1560 1950 2580 3040
2024-04-26 09:45 1.86 54 3320 (2008) 29 (1963) 868 46 54 101 116 308 1560 1950 2580 3040
2024-04-26 08:45 1.84 52 3320 (2008) 29 (1963) 868 46 54 101 116 308 1560 1950 2580 3040
2024-04-26 07:45 1.84 52 3320 (2008) 29 (1963) 868 46 54 101 116 308 1560 1950 2580 3040
2024-04-26 06:45 1.84 52 3320 (2008) 29 (1963) 868 46 54 101 116 308 1560 1950 2580 3040
2024-04-26 05:45 1.84 52 3320 (2008) 29 (1963) 868 46 54 101 116 308 1560 1950 2580 3040
2024-04-26 04:45 1.84 52 3320 (2008) 29 (1963) 868 46 54 101 116 308 1560 1950 2580 3040
2024-04-26 03:45 1.84 52 3320 (2008) 29 (1963) 868 46 54 101 116 308 1560 1950 2580 3040
2024-04-26 02:45 1.85 53 3320 (2008) 29 (1963) 868 46 54 101 116 308 1560 1950 2580 3040
2024-04-26 01:45 1.86 54 3320 (2008) 29 (1963) 868 46 54 101 116 308 1560 1950 2580 3040
2024-04-26 00:45 1.86 54 3320 (2008) 29 (1963) 868 46 54 101 116 308 1560 1950 2580 3040
2024-04-25 23:45 1.87 54 3320 (2008) 29 (1963) 868 46 54 101 116 308 1560 1950 2580 3040
2024-04-25 22:45 1.87 54 3330 (2008) 29 (1963) 842 42 52 96 116 309 1570 2010 2420 2930
2024-04-25 21:45 1.88 55 3330 (2008) 29 (1963) 842 42 52 96 116 309 1570 2010 2420 2930
2024-04-25 20:45 1.87 54 3330 (2008) 29 (1963) 842 42 52 96 116 309 1570 2010 2420 2930
2024-04-25 19:45 1.87 54 3330 (2008) 29 (1963) 842 42 52 96 116 309 1570 2010 2420 2930
2024-04-25 18:45 1.87 54 3330 (2008) 29 (1963) 842 42 52 96 116 309 1570 2010 2420 2930
2024-04-25 17:45 1.87 54 3330 (2008) 29 (1963) 842 42 52 96 116 309 1570 2010 2420 2930
2024-04-25 16:45 1.87 54 3330 (2008) 29 (1963) 842 42 52 96 116 309 1570 2010 2420 2930
2024-04-25 15:45 1.87 54 3330 (2008) 29 (1963) 842 42 52 96 116 309 1570 2010 2420 2930
2024-04-25 14:45 1.87 54 3330 (2008) 29 (1963) 842 42 52 96 116 309 1570 2010 2420 2930
2024-04-25 13:45 1.86 54 3330 (2008) 29 (1963) 842 42 52 96 116 309 1570 2010 2420 2930
2024-04-25 12:45 1.86 54 3330 (2008) 29 (1963) 842 42 52 96 116 309 1570 2010 2420 2930
2024-04-25 11:45 1.87 54 3330 (2008) 29 (1963) 842 42 52 96 116 309 1570 2010 2420 2930
2024-04-25 10:45 1.86 54 3330 (2008) 29 (1963) 842 42 52 96 116 309 1570 2010 2420 2930
2024-04-25 09:45 1.87 54 3330 (2008) 29 (1963) 842 42 52 96 116 309 1570 2010 2420 2930
2024-04-25 08:45 1.87 54 3330 (2008) 29 (1963) 842 42 52 96 116 309 1570 2010 2420 2930
2024-04-25 07:45 1.87 54 3330 (2008) 29 (1963) 842 42 52 96 116 309 1570 2010 2420 2930
2024-04-25 06:45 1.88 55 3330 (2008) 29 (1963) 842 42 52 96 116 309 1570 2010 2420 2930
2024-04-25 05:45 1.88 55 3330 (2008) 29 (1963) 842 42 52 96 116 309 1570 2010 2420 2930
2024-04-25 04:45 1.89 56 3330 (2008) 29 (1963) 842 42 52 96 116 309 1570 2010 2420 2930
2024-04-25 03:45 1.89 56 3330 (2008) 29 (1963) 842 42 52 96 116 309 1570 2010 2420 2930
2024-04-25 02:45 1.90 57 3330 (2008) 29 (1963) 842 42 52 96 116 309 1570 2010 2420 2930
2024-04-25 01:45 1.91 58 3330 (2008) 29 (1963) 842 42 52 96 116 309 1570 2010 2420 2930
2024-04-25 00:45 1.91 58 3330 (2008) 29 (1963) 842 42 52 96 116 309 1570 2010 2420 2930
2024-04-24 23:45 1.92 59 3330 (2008) 29 (1963) 842 42 52 96 116 309 1570 2010 2420 2930
2024-04-24 22:45 1.93 60 3350 (2008) 29 (1963) 945 46 53 96 139 485 1630 2020 2570 2940
2024-04-24 21:45 1.94 61 3350 (2008) 29 (1963) 945 46 53 96 139 485 1630 2020 2570 2940
2024-04-24 20:45 1.95 62 3350 (2008) 29 (1963) 945 46 53 96 139 485 1630 2020 2570 2940
2024-04-24 19:45 1.95 62 3350 (2008) 29 (1963) 945 46 53 96 139 485 1630 2020 2570 2940
2024-04-24 18:45 1.95 62 3350 (2008) 29 (1963) 945 46 53 96 139 485 1630 2020 2570 2940
2024-04-24 17:45 1.94 61 3350 (2008) 29 (1963) 945 46 53 96 139 485 1630 2020 2570 2940
2024-04-24 16:45 1.94 61 3350 (2008) 29 (1963) 945 46 53 96 139 485 1630 2020 2570 2940
2024-04-24 15:45 1.93 60 3350 (2008) 29 (1963) 945 46 53 96 139 485 1630 2020 2570 2940
2024-04-24 14:45 1.92 59 3350 (2008) 29 (1963) 945 46 53 96 139 485 1630 2020 2570 2940
2024-04-24 13:45 1.90 57 3350 (2008) 29 (1963) 945 46 53 96 139 485 1630 2020 2570 2940
2024-04-24 12:45 1.88 55 3350 (2008) 29 (1963) 945 46 53 96 139 485 1630 2020 2570 2940
2024-04-24 11:45 1.87 54 3350 (2008) 29 (1963) 945 46 53 96 139 485 1630 2020 2570 2940
2024-04-24 10:45 1.87 54 3350 (2008) 29 (1963) 945 46 53 96 139 485 1630 2020 2570 2940
2024-04-24 09:45 1.86 54 3350 (2008) 29 (1963) 945 46 53 96 139 485 1630 2020 2570 2940
2024-04-24 08:45 1.87 54 3350 (2008) 29 (1963) 945 46 53 96 139 485 1630 2020 2570 2940
2024-04-24 07:45 1.87 54 3350 (2008) 29 (1963) 945 46 53 96 139 485 1630 2020 2570 2940
2024-04-24 06:45 1.87 54 3350 (2008) 29 (1963) 945 46 53 96 139 485 1630 2020 2570 2940
2024-04-24 05:45 1.88 55 3350 (2008) 29 (1963) 945 46 53 96 139 485 1630 2020 2570 2940
2024-04-24 04:45 1.88 55 3350 (2008) 29 (1963) 945 46 53 96 139 485 1630 2020 2570 2940
2024-04-24 03:45 1.89 56 3350 (2008) 29 (1963) 945 46 53 96 139 485 1630 2020 2570 2940
2024-04-24 02:45 1.89 56 3350 (2008) 29 (1963) 945 46 53 96 139 485 1630 2020 2570 2940
2024-04-24 01:45 1.90 57 3350 (2008) 29 (1963) 945 46 53 96 139 485 1630 2020 2570 2940
2024-04-24 00:45 1.91 58 3350 (2008) 29 (1963) 945 46 53 96 139 485 1630 2020 2570 2940
2024-04-23 23:45 1.92 59 3350 (2008) 29 (1963) 945 46 53 96 139 485 1630 2020 2570 2940
2024-04-23 22:45 1.93 60 3330 (2008) 29 (1963) 980 46 53 97 120 566 1680 1890 2690 3040
2024-04-23 21:45 1.93 60 3330 (2008) 29 (1963) 980 46 53 97 120 566 1680 1890 2690 3040
2024-04-23 20:45 1.94 61 3330 (2008) 29 (1963) 980 46 53 97 120 566 1680 1890 2690 3040
2024-04-23 19:45 1.94 61 3330 (2008) 29 (1963) 980 46 53 97 120 566 1680 1890 2690 3040
2024-04-23 18:45 1.93 60 3330 (2008) 29 (1963) 980 46 53 97 120 566 1680 1890 2690 3040
2024-04-23 17:45 1.92 59 3330 (2008) 29 (1963) 980 46 53 97 120 566 1680 1890 2690 3040
2024-04-23 16:45 1.92 59 3330 (2008) 29 (1963) 980 46 53 97 120 566 1680 1890 2690 3040
2024-04-23 15:45 1.91 58 3330 (2008) 29 (1963) 980 46 53 97 120 566 1680 1890 2690 3040
2024-04-23 14:45 1.90 57 3330 (2008) 29 (1963) 980 46 53 97 120 566 1680 1890 2690 3040
2024-04-23 13:45 1.88 55 3330 (2008) 29 (1963) 980 46 53 97 120 566 1680 1890 2690 3040
2024-04-23 12:45 1.87 54 3330 (2008) 29 (1963) 980 46 53 97 120 566 1680 1890 2690 3040
2024-04-23 11:45 1.86 54 3330 (2008) 29 (1963) 980 46 53 97 120 566 1680 1890 2690 3040
2024-04-23 10:45 1.86 54 3330 (2008) 29 (1963) 980 46 53 97 120 566 1680 1890 2690 3040
2024-04-23 09:45 1.86 54 3330 (2008) 29 (1963) 980 46 53 97 120 566 1680 1890 2690 3040
2024-04-23 08:45 1.86 54 3330 (2008) 29 (1963) 980 46 53 97 120 566 1680 1890 2690 3040
2024-04-23 07:45 1.86 54 3330 (2008) 29 (1963) 980 46 53 97 120 566 1680 1890 2690 3040
2024-04-23 06:45 1.87 54 3330 (2008) 29 (1963) 980 46 53 97 120 566 1680 1890 2690 3040
2024-04-23 05:45 1.87 54 3330 (2008) 29 (1963) 980 46 53 97 120 566 1680 1890 2690 3040
2024-04-23 04:45 1.87 54 3330 (2008) 29 (1963) 980 46 53 97 120 566 1680 1890 2690 3040
2024-04-23 03:45 1.88 55 3330 (2008) 29 (1963) 980 46 53 97 120 566 1680 1890 2690 3040
2024-04-23 02:45 1.88 55 3330 (2008) 29 (1963) 980 46 53 97 120 566 1680 1890 2690 3040
2024-04-23 01:45 1.89 56 3330 (2008) 29 (1963) 980 46 53 97 120 566 1680 1890 2690 3040
2024-04-23 00:45 1.90 57 3330 (2008) 29 (1963) 980 46 53 97 120 566 1680 1890 2690 3040
2024-04-22 23:45 1.91 58 3330 (2008) 29 (1963) 980 46 53 97 120 566 1680 1890 2690 3040
2024-04-22 22:45 1.92 59 3630 (2011) 28 (1963) 929 48 54 97 119 465 1630 2040 2490 3040
2024-04-22 21:45 1.92 59 3630 (2011) 28 (1963) 929 48 54 97 119 465 1630 2040 2490 3040
2024-04-22 20:45 1.93 60 3630 (2011) 28 (1963) 929 48 54 97 119 465 1630 2040 2490 3040
2024-04-22 19:45 1.93 60 3630 (2011) 28 (1963) 929 48 54 97 119 465 1630 2040 2490 3040
2024-04-22 18:45 1.93 60 3630 (2011) 28 (1963) 929 48 54 97 119 465 1630 2040 2490 3040
2024-04-22 17:45 1.92 59 3630 (2011) 28 (1963) 929 48 54 97 119 465 1630 2040 2490 3040
2024-04-22 16:45 1.91 58 3630 (2011) 28 (1963) 929 48 54 97 119 465 1630 2040 2490 3040
2024-04-22 15:45 1.90 57 3630 (2011) 28 (1963) 929 48 54 97 119 465 1630 2040 2490 3040
2024-04-22 14:45 1.90 57 3630 (2011) 28 (1963) 929 48 54 97 119 465 1630 2040 2490 3040
2024-04-22 13:45 1.94 61 3630 (2011) 28 (1963) 929 48 54 97 119 465 1630 2040 2490 3040
2024-04-22 12:45 2.04 71 3630 (2011) 28 (1963) 929 48 54 97 119 465 1630 2040 2490 3040
2024-04-22 11:45 2.25 96 3630 (2011) 28 (1963) 929 48 54 97 119 465 1630 2040 2490 3040
2024-04-22 10:45 2.68 160 3630 (2011) 28 (1963) 929 48 54 97 119 465 1630 2040 2490 3040
2024-04-22 09:45 3.08 236 3630 (2011) 28 (1963) 929 48 54 97 119 465 1630 2040 2490 3040
2024-04-22 08:45 3.08 236 3630 (2011) 28 (1963) 929 48 54 97 119 465 1630 2040 2490 3040
2024-04-22 07:45 3.08 236 3630 (2011) 28 (1963) 929 48 54 97 119 465 1630 2040 2490 3040
2024-04-22 06:45 3.08 236 3630 (2011) 28 (1963) 929 48 54 97 119 465 1630 2040 2490 3040
2024-04-22 05:45 3.08 236 3630 (2011) 28 (1963) 929 48 54 97 119 465 1630 2040 2490 3040
2024-04-22 04:45 3.08 239 3630 (2011) 28 (1963) 929 48 54 97 119 465 1630 2040 2490 3040
2024-04-22 03:45 3.08 239 3630 (2011) 28 (1963) 929 48 54 97 119 465 1630 2040 2490 3040
2024-04-22 02:45 3.08 239 3630 (2011) 28 (1963) 929 48 54 97 119 465 1630 2040 2490 3040
2024-04-22 01:45 3.08 239 3630 (2011) 28 (1963) 929 48 54 97 119 465 1630 2040 2490 3040
2024-04-22 00:45 3.08 239 3630 (2011) 28 (1963) 929 48 54 97 119 465 1630 2040 2490 3040
2024-04-21 23:45 3.08 239 3630 (2011) 28 (1963) 929 48 54 97 119 465 1630 2040 2490 3040
2024-04-21 22:45 3.08 239 3640 (2011) 27 (1963) 881 46 53 88 111 337 1350 1990 2690 3110
2024-04-21 21:45 3.08 239 3640 (2011) 27 (1963) 881 46 53 88 111 337 1350 1990 2690 3110
2024-04-21 20:45 3.08 239 3640 (2011) 27 (1963) 881 46 53 88 111 337 1350 1990 2690 3110
2024-04-21 19:45 3.09 241 3640 (2011) 27 (1963) 881 46 53 88 111 337 1350 1990 2690 3110
2024-04-21 18:45 3.09 241 3640 (2011) 27 (1963) 881 46 53 88 111 337 1350 1990 2690 3110
2024-04-21 17:45 3.09 241 3640 (2011) 27 (1963) 881 46 53 88 111 337 1350 1990 2690 3110
2024-04-21 16:45 3.09 241 3640 (2011) 27 (1963) 881 46 53 88 111 337 1350 1990 2690 3110
2024-04-21 15:45 3.09 241 3640 (2011) 27 (1963) 881 46 53 88 111 337 1350 1990 2690 3110
2024-04-21 14:45 3.09 241 3640 (2011) 27 (1963) 881 46 53 88 111 337 1350 1990 2690 3110
2024-04-21 13:45 3.09 241 3640 (2011) 27 (1963) 881 46 53 88 111 337 1350 1990 2690 3110
2024-04-21 12:45 3.09 241 3640 (2011) 27 (1963) 881 46 53 88 111 337 1350 1990 2690 3110
2024-04-21 11:45 3.08 239 3640 (2011) 27 (1963) 881 46 53 88 111 337 1350 1990 2690 3110
2024-04-21 10:45 3.08 239 3640 (2011) 27 (1963) 881 46 53 88 111 337 1350 1990 2690 3110
2024-04-21 09:45 3.08 239 3640 (2011) 27 (1963) 881 46 53 88 111 337 1350 1990 2690 3110
2024-04-21 08:45 3.08 239 3640 (2011) 27 (1963) 881 46 53 88 111 337 1350 1990 2690 3110
2024-04-21 07:45 3.08 239 3640 (2011) 27 (1963) 881 46 53 88 111 337 1350 1990 2690 3110
2024-04-21 06:45 3.08 239 3640 (2011) 27 (1963) 881 46 53 88 111 337 1350 1990 2690 3110
2024-04-21 05:45 3.08 239 3640 (2011) 27 (1963) 881 46 53 88 111 337 1350 1990 2690 3110
2024-04-21 04:45 3.08 239 3640 (2011) 27 (1963) 881 46 53 88 111 337 1350 1990 2690 3110
2024-04-21 03:45 3.07 237 3640 (2011) 27 (1963) 881 46 53 88 111 337 1350 1990 2690 3110
2024-04-21 02:45 3.08 239 3640 (2011) 27 (1963) 881 46 53 88 111 337 1350 1990 2690 3110
2024-04-21 01:45 3.08 239 3640 (2011) 27 (1963) 881 46 53 88 111 337 1350 1990 2690 3110
2024-04-21 00:45 3.08 239 3640 (2011) 27 (1963) 881 46 53 88 111 337 1350 1990 2690 3110
2024-04-20 23:45 3.08 239 3640 (2011) 27 (1963) 881 46 53 88 111 337 1350 1990 2690 3110
2024-04-20 22:45 3.08 239 3650 (2011) 27 (1963) 908 46 52 97 112 324 1320 1870 2880 3320
2024-04-20 21:45 3.08 239 3650 (2011) 27 (1963) 908 46 52 97 112 324 1320 1870 2880 3320
2024-04-20 20:45 3.08 239 3650 (2011) 27 (1963) 908 46 52 97 112 324 1320 1870 2880 3320
2024-04-20 19:45 3.09 241 3650 (2011) 27 (1963) 908 46 52 97 112 324 1320 1870 2880 3320
2024-04-20 18:45 3.09 241 3650 (2011) 27 (1963) 908 46 52 97 112 324 1320 1870 2880 3320
2024-04-20 17:45 3.08 239 3650 (2011) 27 (1963) 908 46 52 97 112 324 1320 1870 2880 3320
2024-04-20 16:45 3.08 239 3650 (2011) 27 (1963) 908 46 52 97 112 324 1320 1870 2880 3320
2024-04-20 15:45 3.08 239 3650 (2011) 27 (1963) 908 46 52 97 112 324 1320 1870 2880 3320
2024-04-20 14:45 3.08 239 3650 (2011) 27 (1963) 908 46 52 97 112 324 1320 1870 2880 3320
2024-04-20 13:45 3.08 239 3650 (2011) 27 (1963) 908 46 52 97 112 324 1320 1870 2880 3320
2024-04-20 12:45 3.08 239 3650 (2011) 27 (1963) 908 46 52 97 112 324 1320 1870 2880 3320
2024-04-20 11:45 3.08 239 3650 (2011) 27 (1963) 908 46 52 97 112 324 1320 1870 2880 3320
2024-04-20 10:45 3.08 239 3650 (2011) 27 (1963) 908 46 52 97 112 324 1320 1870 2880 3320
2024-04-20 09:45 3.08 239 3650 (2011) 27 (1963) 908 46 52 97 112 324 1320 1870 2880 3320
2024-04-20 08:45 3.08 239 3650 (2011) 27 (1963) 908 46 52 97 112 324 1320 1870 2880 3320
2024-04-20 07:45 3.08 239 3650 (2011) 27 (1963) 908 46 52 97 112 324 1320 1870 2880 3320
2024-04-20 06:45 3.08 239 3650 (2011) 27 (1963) 908 46 52 97 112 324 1320 1870 2880 3320
2024-04-20 05:45 3.07 237 3650 (2011) 27 (1963) 908 46 52 97 112 324 1320 1870 2880 3320
2024-04-20 04:45 3.07 237 3650 (2011) 27 (1963) 908 46 52 97 112 324 1320 1870 2880 3320
2024-04-20 03:45 3.07 237 3650 (2011) 27 (1963) 908 46 52 97 112 324 1320 1870 2880 3320
2024-04-20 02:45 3.07 237 3650 (2011) 27 (1963) 908 46 52 97 112 324 1320 1870 2880 3320
2024-04-20 01:45 3.07 237 3650 (2011) 27 (1963) 908 46 52 97 112 324 1320 1870 2880 3320
2024-04-20 00:45 3.07 237 3650 (2011) 27 (1963) 908 46 52 97 112 324 1320 1870 2880 3320
2024-04-19 23:45 3.08 239 3650 (2011) 27 (1963) 908 46 52 97 112 324 1320 1870 2880 3320
2024-04-19 22:45 3.08 239 3650 (2011) 28 (1963) 938 47 51 97 115 405 1350 2330 2880 3320
2024-04-19 21:45 3.08 239 3650 (2011) 28 (1963) 938 47 51 97 115 405 1350 2330 2880 3320
2024-04-19 20:45 3.08 239 3650 (2011) 28 (1963) 938 47 51 97 115 405 1350 2330 2880 3320
2024-04-19 19:45 3.08 239 3650 (2011) 28 (1963) 938 47 51 97 115 405 1350 2330 2880 3320
2024-04-19 18:45 3.08 239 3650 (2011) 28 (1963) 938 47 51 97 115 405 1350 2330 2880 3320
2024-04-19 17:45 3.08 239 3650 (2011) 28 (1963) 938 47 51 97 115 405 1350 2330 2880 3320
2024-04-19 16:45 3.08 239 3650 (2011) 28 (1963) 938 47 51 97 115 405 1350 2330 2880 3320
2024-04-19 15:45 3.08 239 3650 (2011) 28 (1963) 938 47 51 97 115 405 1350 2330 2880 3320
2024-04-19 14:45 3.08 239 3650 (2011) 28 (1963) 938 47 51 97 115 405 1350 2330 2880 3320
2024-04-19 13:45 3.08 239 3650 (2011) 28 (1963) 938 47 51 97 115 405 1350 2330 2880 3320
2024-04-19 12:45 3.08 239 3650 (2011) 28 (1963) 938 47 51 97 115 405 1350 2330 2880 3320
2024-04-19 11:45 3.08 239 3650 (2011) 28 (1963) 938 47 51 97 115 405 1350 2330 2880 3320
2024-04-19 10:45 3.08 239 3650 (2011) 28 (1963) 938 47 51 97 115 405 1350 2330 2880 3320
2024-04-19 09:45 3.08 239 3650 (2011) 28 (1963) 938 47 51 97 115 405 1350 2330 2880 3320
2024-04-19 08:45 3.08 239 3650 (2011) 28 (1963) 938 47 51 97 115 405 1350 2330 2880 3320
2024-04-19 07:45 3.08 239 3650 (2011) 28 (1963) 938 47 51 97 115 405 1350 2330 2880 3320
2024-04-19 06:45 3.08 239 3650 (2011) 28 (1963) 938 47 51 97 115 405 1350 2330 2880 3320
2024-04-19 05:45 3.08 239 3650 (2011) 28 (1963) 938 47 51 97 115 405 1350 2330 2880 3320
2024-04-19 04:45 3.08 239 3650 (2011) 28 (1963) 938 47 51 97 115 405 1350 2330 2880 3320
2024-04-19 03:45 3.08 239 3650 (2011) 28 (1963) 938 47 51 97 115 405 1350 2330 2880 3320
2024-04-19 02:45 3.08 239 3650 (2011) 28 (1963) 938 47 51 97 115 405 1350 2330 2880 3320
2024-04-19 01:45 3.08 239 3650 (2011) 28 (1963) 938 47 51 97 115 405 1350 2330 2880 3320
2024-04-19 00:45 3.08 239 3650 (2011) 28 (1963) 938 47 51 97 115 405 1350 2330 2880 3320
2024-04-18 23:45 3.08 239 3650 (2011) 28 (1963) 938 47 51 97 115 405 1350 2330 2880 3320
2024-04-18 22:45 3.08 239 3660 (2011) 26 (1963) 996 46 53 106 123 425 1500 2400 2960 3470
2024-04-18 21:45 3.08 239 3660 (2011) 26 (1963) 996 46 53 106 123 425 1500 2400 2960 3470
2024-04-18 20:45 3.08 239 3660 (2011) 26 (1963) 996 46 53 106 123 425 1500 2400 2960 3470
2024-04-18 19:45 3.09 241 3660 (2011) 26 (1963) 996 46 53 106 123 425 1500 2400 2960 3470
2024-04-18 18:45 3.09 241 3660 (2011) 26 (1963) 996 46 53 106 123 425 1500 2400 2960 3470
2024-04-18 17:45 3.09 241 3660 (2011) 26 (1963) 996 46 53 106 123 425 1500 2400 2960 3470
2024-04-18 16:45 3.09 241 3660 (2011) 26 (1963) 996 46 53 106 123 425 1500 2400 2960 3470
2024-04-18 15:45 3.09 241 3660 (2011) 26 (1963) 996 46 53 106 123 425 1500 2400 2960 3470
2024-04-18 14:45 3.08 239 3660 (2011) 26 (1963) 996 46 53 106 123 425 1500 2400 2960 3470
2024-04-18 13:45 3.08 239 3660 (2011) 26 (1963) 996 46 53 106 123 425 1500 2400 2960 3470
2024-04-18 12:45 3.08 239 3660 (2011) 26 (1963) 996 46 53 106 123 425 1500 2400 2960 3470
2024-04-18 11:45 3.08 239 3660 (2011) 26 (1963) 996 46 53 106 123 425 1500 2400 2960 3470
2024-04-18 10:45 3.08 239 3660 (2011) 26 (1963) 996 46 53 106 123 425 1500 2400 2960 3470
2024-04-18 09:45 3.08 239 3660 (2011) 26 (1963) 996 46 53 106 123 425 1500 2400 2960 3470
2024-04-18 08:45 3.07 237 3660 (2011) 26 (1963) 996 46 53 106 123 425 1500 2400 2960 3470
2024-04-18 07:45 3.07 237 3660 (2011) 26 (1963) 996 46 53 106 123 425 1500 2400 2960 3470
2024-04-18 06:45 3.07 237 3660 (2011) 26 (1963) 996 46 53 106 123 425 1500 2400 2960 3470
2024-04-18 05:45 3.07 237 3660 (2011) 26 (1963) 996 46 53 106 123 425 1500 2400 2960 3470
2024-04-18 04:45 3.07 237 3660 (2011) 26 (1963) 996 46 53 106 123 425 1500 2400 2960 3470
2024-04-18 03:45 3.07 237 3660 (2011) 26 (1963) 996 46 53 106 123 425 1500 2400 2960 3470
2024-04-18 02:45 3.07 237 3660 (2011) 26 (1963) 996 46 53 106 123 425 1500 2400 2960 3470
2024-04-18 01:45 3.07 237 3660 (2011) 26 (1963) 996 46 53 106 123 425 1500 2400 2960 3470
2024-04-18 00:45 3.07 237 3660 (2011) 26 (1963) 996 46 53 106 123 425 1500 2400 2960 3470
2024-04-17 23:45 3.07 237 3660 (2011) 26 (1963) 996 46 53 106 123 425 1500 2400 2960 3470
2024-04-17 22:45 3.07 237 3680 (2011) 26 (1963) 1080 46 52 101 123 642 2050 2540 2960 3460
2024-04-17 21:45 3.08 239 3680 (2011) 26 (1963) 1080 46 52 101 123 642 2050 2540 2960 3460
2024-04-17 20:45 3.08 239 3680 (2011) 26 (1963) 1080 46 52 101 123 642 2050 2540 2960 3460
2024-04-17 19:45 3.08 239 3680 (2011) 26 (1963) 1080 46 52 101 123 642 2050 2540 2960 3460
2024-04-17 18:45 3.08 239 3680 (2011) 26 (1963) 1080 46 52 101 123 642 2050 2540 2960 3460
2024-04-17 17:45 3.08 239 3680 (2011) 26 (1963) 1080 46 52 101 123 642 2050 2540 2960 3460
2024-04-17 16:45 3.08 239 3680 (2011) 26 (1963) 1080 46 52 101 123 642 2050 2540 2960 3460
2024-04-17 15:45 3.08 239 3680 (2011) 26 (1963) 1080 46 52 101 123 642 2050 2540 2960 3460
2024-04-17 14:45 3.08 239 3680 (2011) 26 (1963) 1080 46 52 101 123 642 2050 2540 2960 3460
2024-04-17 13:45 3.07 237 3680 (2011) 26 (1963) 1080 46 52 101 123 642 2050 2540 2960 3460
2024-04-17 12:45 3.07 237 3680 (2011) 26 (1963) 1080 46 52 101 123 642 2050 2540 2960 3460
2024-04-17 11:45 3.07 237 3680 (2011) 26 (1963) 1080 46 52 101 123 642 2050 2540 2960 3460
2024-04-17 10:45 3.07 237 3680 (2011) 26 (1963) 1080 46 52 101 123 642 2050 2540 2960 3460
2024-04-17 09:45 3.07 237 3680 (2011) 26 (1963) 1080 46 52 101 123 642 2050 2540 2960 3460
2024-04-17 08:45 3.07 237 3680 (2011) 26 (1963) 1080 46 52 101 123 642 2050 2540 2960 3460
2024-04-17 07:45 3.06 235 3680 (2011) 26 (1963) 1080 46 52 101 123 642 2050 2540 2960 3460
2024-04-17 06:45 3.06 235 3680 (2011) 26 (1963) 1080 46 52 101 123 642 2050 2540 2960 3460
2024-04-17 05:45 3.06 235 3680 (2011) 26 (1963) 1080 46 52 101 123 642 2050 2540 2960 3460
2024-04-17 04:45 3.06 235 3680 (2011) 26 (1963) 1080 46 52 101 123 642 2050 2540 2960 3460
2024-04-17 03:45 3.06 235 3680 (2011) 26 (1963) 1080 46 52 101 123 642 2050 2540 2960 3460
2024-04-17 02:45 3.06 235 3680 (2011) 26 (1963) 1080 46 52 101 123 642 2050 2540 2960 3460
2024-04-17 01:45 3.06 235 3680 (2011) 26 (1963) 1080 46 52 101 123 642 2050 2540 2960 3460
2024-04-17 00:45 3.06 235 3680 (2011) 26 (1963) 1080 46 52 101 123 642 2050 2540 2960 3460
2024-04-16 23:45 3.06 235 3680 (2011) 26 (1963) 1080 46 52 101 123 642 2050 2540 2960 3460
2024-04-16 22:45 3.06 235 3690 (2011) 26 (1963) 1050 46 52 100 156 511 1610 2420 2980 3430
2024-04-16 21:45 3.06 235 3690 (2011) 26 (1963) 1050 46 52 100 156 511 1610 2420 2980 3430
2024-04-16 20:45 3.07 237 3690 (2011) 26 (1963) 1050 46 52 100 156 511 1610 2420 2980 3430
2024-04-16 19:45 3.07 237 3690 (2011) 26 (1963) 1050 46 52 100 156 511 1610 2420 2980 3430
2024-04-16 18:45 3.07 237 3690 (2011) 26 (1963) 1050 46 52 100 156 511 1610 2420 2980 3430
2024-04-16 17:45 3.07 237 3690 (2011) 26 (1963) 1050 46 52 100 156 511 1610 2420 2980 3430
2024-04-16 16:45 3.07 237 3690 (2011) 26 (1963) 1050 46 52 100 156 511 1610 2420 2980 3430
2024-04-16 15:45 3.07 237 3690 (2011) 26 (1963) 1050 46 52 100 156 511 1610 2420 2980 3430
2024-04-16 14:45 3.07 237 3690 (2011) 26 (1963) 1050 46 52 100 156 511 1610 2420 2980 3430
2024-04-16 13:45 3.07 237 3690 (2011) 26 (1963) 1050 46 52 100 156 511 1610 2420 2980 3430
2024-04-16 12:45 3.07 237 3690 (2011) 26 (1963) 1050 46 52 100 156 511 1610 2420 2980 3430
2024-04-16 11:45 3.07 237 3690 (2011) 26 (1963) 1050 46 52 100 156 511 1610 2420 2980 3430
2024-04-16 10:45 3.07 237 3690 (2011) 26 (1963) 1050 46 52 100 156 511 1610 2420 2980 3430
2024-04-16 09:45 3.06 235 3690 (2011) 26 (1963) 1050 46 52 100 156 511 1610 2420 2980 3430
2024-04-16 08:45 3.06 235 3690 (2011) 26 (1963) 1050 46 52 100 156 511 1610 2420 2980 3430
2024-04-16 07:45 3.06 235 3690 (2011) 26 (1963) 1050 46 52 100 156 511 1610 2420 2980 3430
2024-04-16 06:45 3.06 235 3690 (2011) 26 (1963) 1050 46 52 100 156 511 1610 2420 2980 3430
2024-04-16 05:45 3.06 235 3690 (2011) 26 (1963) 1050 46 52 100 156 511 1610 2420 2980 3430
2024-04-16 04:45 3.06 235 3690 (2011) 26 (1963) 1050 46 52 100 156 511 1610 2420 2980 3430
2024-04-16 03:45 3.06 235 3690 (2011) 26 (1963) 1050 46 52 100 156 511 1610 2420 2980 3430
2024-04-16 02:45 3.06 235 3690 (2011) 26 (1963) 1050 46 52 100 156 511 1610 2420 2980 3430
2024-04-16 01:45 3.06 235 3690 (2011) 26 (1963) 1050 46 52 100 156 511 1610 2420 2980 3430
2024-04-16 00:45 3.06 235 3690 (2011) 26 (1963) 1050 46 52 100 156 511 1610 2420 2980 3430
2024-04-15 23:45 3.06 235 3690 (2011) 26 (1963) 1050 46 52 100 156 511 1610 2420 2980 3430
2024-04-15 22:45 3.06 235 3980 (1973) 26 (1963) 1040 46 52 98 126 507 1760 2400 2940 3380
2024-04-15 21:45 3.06 235 3980 (1973) 26 (1963) 1040 46 52 98 126 507 1760 2400 2940 3380
2024-04-15 20:45 3.06 235 3980 (1973) 26 (1963) 1040 46 52 98 126 507 1760 2400 2940 3380
2024-04-15 19:45 3.06 235 3980 (1973) 26 (1963) 1040 46 52 98 126 507 1760 2400 2940 3380
2024-04-15 18:45 3.06 235 3980 (1973) 26 (1963) 1040 46 52 98 126 507 1760 2400 2940 3380
2024-04-15 17:45 3.06 235 3980 (1973) 26 (1963) 1040 46 52 98 126 507 1760 2400 2940 3380
2024-04-15 16:45 3.06 235 3980 (1973) 26 (1963) 1040 46 52 98 126 507 1760 2400 2940 3380
2024-04-15 15:45 3.06 235 3980 (1973) 26 (1963) 1040 46 52 98 126 507 1760 2400 2940 3380
2024-04-15 14:45 3.06 235 3980 (1973) 26 (1963) 1040 46 52 98 126 507 1760 2400 2940 3380
2024-04-15 13:45 3.05 233 3980 (1973) 26 (1963) 1040 46 52 98 126 507 1760 2400 2940 3380
2024-04-15 12:45 3.05 233 3980 (1973) 26 (1963) 1040 46 52 98 126 507 1760 2400 2940 3380
2024-04-15 11:45 3.05 233 3980 (1973) 26 (1963) 1040 46 52 98 126 507 1760 2400 2940 3380
2024-04-15 10:45 3.05 233 3980 (1973) 26 (1963) 1040 46 52 98 126 507 1760 2400 2940 3380
2024-04-15 09:45 3.05 233 3980 (1973) 26 (1963) 1040 46 52 98 126 507 1760 2400 2940 3380
2024-04-15 08:45 3.05 233 3980 (1973) 26 (1963) 1040 46 52 98 126 507 1760 2400 2940 3380
2024-04-15 07:45 3.05 233 3980 (1973) 26 (1963) 1040 46 52 98 126 507 1760 2400 2940 3380
2024-04-15 06:45 3.05 233 3980 (1973) 26 (1963) 1040 46 52 98 126 507 1760 2400 2940 3380
2024-04-15 05:45 3.05 233 3980 (1973) 26 (1963) 1040 46 52 98 126 507 1760 2400 2940 3380
2024-04-15 04:45 3.05 233 3980 (1973) 26 (1963) 1040 46 52 98 126 507 1760 2400 2940 3380
2024-04-15 03:45 3.05 233 3980 (1973) 26 (1963) 1040 46 52 98 126 507 1760 2400 2940 3380
2024-04-15 02:45 3.05 233 3980 (1973) 26 (1963) 1040 46 52 98 126 507 1760 2400 2940 3380
2024-04-15 01:45 3.05 233 3980 (1973) 26 (1963) 1040 46 52 98 126 507 1760 2400 2940 3380
2024-04-15 00:45 3.05 233 3980 (1973) 26 (1963) 1040 46 52 98 126 507 1760 2400 2940 3380
2024-04-14 23:45 3.05 233 3980 (1973) 26 (1963) 1040 46 52 98 126 507 1760 2400 2940 3380
2024-04-14 22:45 3.05 233 4200 (1973) 25 (1963) 1020 47 53 101 152 505 1680 2100 2990 3460
2024-04-14 21:45 3.05 233 4200 (1973) 25 (1963) 1020 47 53 101 152 505 1680 2100 2990 3460
2024-04-14 20:45 3.05 233 4200 (1973) 25 (1963) 1020 47 53 101 152 505 1680 2100 2990 3460
2024-04-14 19:45 3.05 233 4200 (1973) 25 (1963) 1020 47 53 101 152 505 1680 2100 2990 3460
2024-04-14 18:45 3.05 233 4200 (1973) 25 (1963) 1020 47 53 101 152 505 1680 2100 2990 3460
2024-04-14 17:45 3.05 233 4200 (1973) 25 (1963) 1020 47 53 101 152 505 1680 2100 2990 3460
2024-04-14 16:45 3.05 233 4200 (1973) 25 (1963) 1020 47 53 101 152 505 1680 2100 2990 3460
2024-04-14 15:45 3.05 233 4200 (1973) 25 (1963) 1020 47 53 101 152 505 1680 2100 2990 3460
2024-04-14 14:45 3.05 233 4200 (1973) 25 (1963) 1020 47 53 101 152 505 1680 2100 2990 3460
2024-04-14 13:45 3.05 233 4200 (1973) 25 (1963) 1020 47 53 101 152 505 1680 2100 2990 3460
2024-04-14 12:45 3.05 233 4200 (1973) 25 (1963) 1020 47 53 101 152 505 1680 2100 2990 3460
2024-04-14 11:45 3.05 233 4200 (1973) 25 (1963) 1020 47 53 101 152 505 1680 2100 2990 3460
2024-04-14 10:45 3.04 231 4200 (1973) 25 (1963) 1020 47 53 101 152 505 1680 2100 2990 3460
2024-04-14 09:45 3.04 231 4200 (1973) 25 (1963) 1020 47 53 101 152 505 1680 2100 2990 3460
2024-04-14 08:45 3.04 231 4200 (1973) 25 (1963) 1020 47 53 101 152 505 1680 2100 2990 3460
2024-04-14 07:45 3.04 231 4200 (1973) 25 (1963) 1020 47 53 101 152 505 1680 2100 2990 3460
2024-04-14 06:45 3.04 231 4200 (1973) 25 (1963) 1020 47 53 101 152 505 1680 2100 2990 3460
2024-04-14 05:45 3.04 231 4200 (1973) 25 (1963) 1020 47 53 101 152 505 1680 2100 2990 3460
2024-04-14 04:45 3.04 231 4200 (1973) 25 (1963) 1020 47 53 101 152 505 1680 2100 2990 3460
2024-04-14 03:45 3.04 231 4200 (1973) 25 (1963) 1020 47 53 101 152 505 1680 2100 2990 3460
2024-04-14 02:45 3.04 231 4200 (1973) 25 (1963) 1020 47 53 101 152 505 1680 2100 2990 3460
2024-04-14 01:45 3.04 231 4200 (1973) 25 (1963) 1020 47 53 101 152 505 1680 2100 2990 3460
2024-04-14 00:45 3.04 231 4200 (1973) 25 (1963) 1020 47 53 101 152 505 1680 2100 2990 3460
2024-04-13 23:45 3.04 231 4200 (1973) 25 (1963) 1020 47 53 101 152 505 1680 2100 2990 3460
2024-04-13 22:45 3.04 231 4620 (1973) 25 (1963) 969 46 53 110 149 493 1470 1530 2900 3480
2024-04-13 21:45 3.04 231 4620 (1973) 25 (1963) 969 46 53 110 149 493 1470 1530 2900 3480
2024-04-13 20:45 3.04 231 4620 (1973) 25 (1963) 969 46 53 110 149 493 1470 1530 2900 3480
2024-04-13 19:45 3.04 231 4620 (1973) 25 (1963) 969 46 53 110 149 493 1470 1530 2900 3480
2024-04-13 18:45 3.04 231 4620 (1973) 25 (1963) 969 46 53 110 149 493 1470 1530 2900 3480
2024-04-13 17:45 3.04 231 4620 (1973) 25 (1963) 969 46 53 110 149 493 1470 1530 2900 3480
2024-04-13 16:45 3.04 231 4620 (1973) 25 (1963) 969 46 53 110 149 493 1470 1530 2900 3480
2024-04-13 15:45 3.04 231 4620 (1973) 25 (1963) 969 46 53 110 149 493 1470 1530 2900 3480
2024-04-13 14:45 3.04 231 4620 (1973) 25 (1963) 969 46 53 110 149 493 1470 1530 2900 3480
2024-04-13 13:45 3.04 231 4620 (1973) 25 (1963) 969 46 53 110 149 493 1470 1530 2900 3480
2024-04-13 12:45 3.04 231 4620 (1973) 25 (1963) 969 46 53 110 149 493 1470 1530 2900 3480
2024-04-13 11:45 3.03 229 4620 (1973) 25 (1963) 969 46 53 110 149 493 1470 1530 2900 3480
2024-04-13 10:45 3.04 231 4620 (1973) 25 (1963) 969 46 53 110 149 493 1470 1530 2900 3480
2024-04-13 09:45 3.03 229 4620 (1973) 25 (1963) 969 46 53 110 149 493 1470 1530 2900 3480
2024-04-13 08:45 3.03 229 4620 (1973) 25 (1963) 969 46 53 110 149 493 1470 1530 2900 3480
2024-04-13 07:45 3.03 229 4620 (1973) 25 (1963) 969 46 53 110 149 493 1470 1530 2900 3480
2024-04-13 06:45 3.03 229 4620 (1973) 25 (1963) 969 46 53 110 149 493 1470 1530 2900 3480
2024-04-13 05:45 3.03 229 4620 (1973) 25 (1963) 969 46 53 110 149 493 1470 1530 2900 3480
2024-04-13 04:45 3.03 229 4620 (1973) 25 (1963) 969 46 53 110 149 493 1470 1530 2900 3480
2024-04-13 03:45 3.03 229 4620 (1973) 25 (1963) 969 46 53 110 149 493 1470 1530 2900 3480
2024-04-13 02:45 3.03 229 4620 (1973) 25 (1963) 969 46 53 110 149 493 1470 1530 2900 3480
2024-04-13 01:45 3.03 229 4620 (1973) 25 (1963) 969 46 53 110 149 493 1470 1530 2900 3480
2024-04-13 00:45 3.03 229 4620 (1973) 25 (1963) 969 46 53 110 149 493 1470 1530 2900 3480
2024-04-12 23:45 3.03 229 4620 (1973) 25 (1963) 969 46 53 110 149 493 1470 1530 2900 3480
2024-04-12 22:45 3.03 229 4630 (1973) 25 (1963) 958 46 53 98 125 492 1360 1640 2770 3480
2024-04-12 21:45 3.03 229 4630 (1973) 25 (1963) 958 46 53 98 125 492 1360 1640 2770 3480
2024-04-12 20:45 3.03 229 4630 (1973) 25 (1963) 958 46 53 98 125 492 1360 1640 2770 3480
2024-04-12 19:45 3.03 229 4630 (1973) 25 (1963) 958 46 53 98 125 492 1360 1640 2770 3480
2024-04-12 18:45 3.03 229 4630 (1973) 25 (1963) 958 46 53 98 125 492 1360 1640 2770 3480
2024-04-12 17:45 3.03 229 4630 (1973) 25 (1963) 958 46 53 98 125 492 1360 1640 2770 3480
2024-04-12 16:45 3.04 231 4630 (1973) 25 (1963) 958 46 53 98 125 492 1360 1640 2770 3480
2024-04-12 15:45 3.03 229 4630 (1973) 25 (1963) 958 46 53 98 125 492 1360 1640 2770 3480
2024-04-12 14:45 3.03 229 4630 (1973) 25 (1963) 958 46 53 98 125 492 1360 1640 2770 3480
2024-04-12 13:45 3.03 229 4630 (1973) 25 (1963) 958 46 53 98 125 492 1360 1640 2770 3480
2024-04-12 12:45 3.03 229 4630 (1973) 25 (1963) 958 46 53 98 125 492 1360 1640 2770 3480
2024-04-12 11:45 3.03 229 4630 (1973) 25 (1963) 958 46 53 98 125 492 1360 1640 2770 3480
2024-04-12 10:45 3.03 229 4630 (1973) 25 (1963) 958 46 53 98 125 492 1360 1640 2770 3480
2024-04-12 09:45 3.03 229 4630 (1973) 25 (1963) 958 46 53 98 125 492 1360 1640 2770 3480
2024-04-12 08:45 3.03 229 4630 (1973) 25 (1963) 958 46 53 98 125 492 1360 1640 2770 3480
2024-04-12 07:45 3.03 229 4630 (1973) 25 (1963) 958 46 53 98 125 492 1360 1640 2770 3480
2024-04-12 06:45 3.03 229 4630 (1973) 25 (1963) 958 46 53 98 125 492 1360 1640 2770 3480
2024-04-12 05:45 3.03 229 4630 (1973) 25 (1963) 958 46 53 98 125 492 1360 1640 2770 3480
2024-04-12 04:45 3.03 229 4630 (1973) 25 (1963) 958 46 53 98 125 492 1360 1640 2770 3480
2024-04-12 03:45 3.03 229 4630 (1973) 25 (1963) 958 46 53 98 125 492 1360 1640 2770 3480
2024-04-12 02:45 3.03 229 4630 (1973) 25 (1963) 958 46 53 98 125 492 1360 1640 2770 3480
2024-04-12 01:45 3.03 229 4630 (1973) 25 (1963) 958 46 53 98 125 492 1360 1640 2770 3480
2024-04-12 00:45 3.03 229 4630 (1973) 25 (1963) 958 46 53 98 125 492 1360 1640 2770 3480
2024-04-11 23:45 3.03 229 4630 (1973) 25 (1963) 958 46 53 98 125 492 1360 1640 2770 3480
2024-04-11 22:45 3.03 229 4650 (1973) 25 (1963) 941 46 53 100 151 504 1490 1670 2530 3040
2024-04-11 21:45 3.03 229 4650 (1973) 25 (1963) 941 46 53 100 151 504 1490 1670 2530 3040
2024-04-11 20:45 3.03 229 4650 (1973) 25 (1963) 941 46 53 100 151 504 1490 1670 2530 3040
2024-04-11 19:45 3.03 229 4650 (1973) 25 (1963) 941 46 53 100 151 504 1490 1670 2530 3040
2024-04-11 18:45 3.03 229 4650 (1973) 25 (1963) 941 46 53 100 151 504 1490 1670 2530 3040
2024-04-11 17:45 3.03 229 4650 (1973) 25 (1963) 941 46 53 100 151 504 1490 1670 2530 3040
2024-04-11 16:45 3.04 231 4650 (1973) 25 (1963) 941 46 53 100 151 504 1490 1670 2530 3040
2024-04-11 15:45 3.05 233 4650 (1973) 25 (1963) 941 46 53 100 151 504 1490 1670 2530 3040
2024-04-11 14:45 3.07 237 4650 (1973) 25 (1963) 941 46 53 100 151 504 1490 1670 2530 3040
2024-04-11 13:45 3.14 252 4650 (1973) 25 (1963) 941 46 53 100 151 504 1490 1670 2530 3040
2024-04-11 12:45 3.33 295 4650 (1973) 25 (1963) 941 46 53 100 151 504 1490 1670 2530 3040
2024-04-11 11:45 3.91 448 4650 (1973) 25 (1963) 941 46 53 100 151 504 1490 1670 2530 3040
2024-04-11 10:45 3.92 450 4650 (1973) 25 (1963) 941 46 53 100 151 504 1490 1670 2530 3040
2024-04-11 09:45 3.91 447 4650 (1973) 25 (1963) 941 46 53 100 151 504 1490 1670 2530 3040
2024-04-11 08:45 3.91 447 4650 (1973) 25 (1963) 941 46 53 100 151 504 1490 1670 2530 3040
2024-04-11 07:45 3.91 447 4650 (1973) 25 (1963) 941 46 53 100 151 504 1490 1670 2530 3040
2024-04-11 06:45 3.91 447 4650 (1973) 25 (1963) 941 46 53 100 151 504 1490 1670 2530 3040
2024-04-11 05:45 3.91 447 4650 (1973) 25 (1963) 941 46 53 100 151 504 1490 1670 2530 3040
2024-04-11 04:45 3.91 447 4650 (1973) 25 (1963) 941 46 53 100 151 504 1490 1670 2530 3040
2024-04-11 03:45 3.91 447 4650 (1973) 25 (1963) 941 46 53 100 151 504 1490 1670 2530 3040
2024-04-11 02:45 3.91 447 4650 (1973) 25 (1963) 941 46 53 100 151 504 1490 1670 2530 3040
2024-04-11 01:45 3.91 447 4650 (1973) 25 (1963) 941 46 53 100 151 504 1490 1670 2530 3040
2024-04-11 00:45 3.91 447 4650 (1973) 25 (1963) 941 46 53 100 151 504 1490 1670 2530 3040
2024-04-10 23:45 3.91 447 4650 (1973) 25 (1963) 941 46 53 100 151 504 1490 1670 2530 3040
2024-04-10 22:45 3.91 447 4680 (1973) 25 (1963) 881 42 51 98 128 472 1290 1490 2390 3050
2024-04-10 21:45 3.91 447 4680 (1973) 25 (1963) 881 42 51 98 128 472 1290 1490 2390 3050
2024-04-10 20:45 3.91 447 4680 (1973) 25 (1963) 881 42 51 98 128 472 1290 1490 2390 3050
2024-04-10 19:45 3.92 450 4680 (1973) 25 (1963) 881 42 51 98 128 472 1290 1490 2390 3050
2024-04-10 18:45 3.92 450 4680 (1973) 25 (1963) 881 42 51 98 128 472 1290 1490 2390 3050
2024-04-10 17:45 3.91 447 4680 (1973) 25 (1963) 881 42 51 98 128 472 1290 1490 2390 3050
2024-04-10 16:45 3.91 447 4680 (1973) 25 (1963) 881 42 51 98 128 472 1290 1490 2390 3050
2024-04-10 15:45 3.91 447 4680 (1973) 25 (1963) 881 42 51 98 128 472 1290 1490 2390 3050
2024-04-10 14:45 3.92 450 4680 (1973) 25 (1963) 881 42 51 98 128 472 1290 1490 2390 3050
2024-04-10 13:45 3.94 456 4680 (1973) 25 (1963) 881 42 51 98 128 472 1290 1490 2390 3050
2024-04-10 12:45 4.03 484 4680 (1973) 25 (1963) 881 42 51 98 128 472 1290 1490 2390 3050
2024-04-10 11:45 4.34 588 4680 (1973) 25 (1963) 881 42 51 98 128 472 1290 1490 2390 3050
2024-04-10 10:45 5.24 956 4680 (1973) 25 (1963) 881 42 51 98 128 472 1290 1490 2390 3050
2024-04-10 09:45 5.25 961 4680 (1973) 25 (1963) 881 42 51 98 128 472 1290 1490 2390 3050
2024-04-10 08:45 5.24 956 4680 (1973) 25 (1963) 881 42 51 98 128 472 1290 1490 2390 3050
2024-04-10 07:45 5.24 956 4680 (1973) 25 (1963) 881 42 51 98 128 472 1290 1490 2390 3050
2024-04-10 06:45 5.24 956 4680 (1973) 25 (1963) 881 42 51 98 128 472 1290 1490 2390 3050
2024-04-10 05:45 5.24 956 4680 (1973) 25 (1963) 881 42 51 98 128 472 1290 1490 2390 3050
2024-04-10 04:45 5.24 956 4680 (1973) 25 (1963) 881 42 51 98 128 472 1290 1490 2390 3050
2024-04-10 03:45 5.24 956 4680 (1973) 25 (1963) 881 42 51 98 128 472 1290 1490 2390 3050
2024-04-10 02:45 5.24 956 4680 (1973) 25 (1963) 881 42 51 98 128 472 1290 1490 2390 3050
2024-04-10 01:45 5.24 956 4680 (1973) 25 (1963) 881 42 51 98 128 472 1290 1490 2390 3050
2024-04-10 00:45 5.24 956 4680 (1973) 25 (1963) 881 42 51 98 128 472 1290 1490 2390 3050
2024-04-09 23:45 5.24 956 4680 (1973) 25 (1963) 881 42 51 98 128 472 1290 1490 2390 3050
2024-04-09 22:45 5.25 961 3520 (1985) 24 (1963) 801 39 51 92 119 432 1090 1510 2230 2940
2024-04-09 21:45 5.24 956 3520 (1985) 24 (1963) 801 39 51 92 119 432 1090 1510 2230 2940
2024-04-09 20:45 5.24 956 3520 (1985) 24 (1963) 801 39 51 92 119 432 1090 1510 2230 2940
2024-04-09 19:45 5.24 956 3520 (1985) 24 (1963) 801 39 51 92 119 432 1090 1510 2230 2940
2024-04-09 18:45 5.24 956 3520 (1985) 24 (1963) 801 39 51 92 119 432 1090 1510 2230 2940
2024-04-09 17:45 5.24 956 3520 (1985) 24 (1963) 801 39 51 92 119 432 1090 1510 2230 2940
2024-04-09 16:45 5.24 956 3520 (1985) 24 (1963) 801 39 51 92 119 432 1090 1510 2230 2940
2024-04-09 15:45 5.24 956 3520 (1985) 24 (1963) 801 39 51 92 119 432 1090 1510 2230 2940
2024-04-09 14:45 5.25 961 3520 (1985) 24 (1963) 801 39 51 92 119 432 1090 1510 2230 2940
2024-04-09 13:45 5.26 965 3520 (1985) 24 (1963) 801 39 51 92 119 432 1090 1510 2230 2940
2024-04-09 12:45 5.29 980 3520 (1985) 24 (1963) 801 39 51 92 119 432 1090 1510 2230 2940
2024-04-09 11:45 5.49 1080 3520 (1985) 24 (1963) 801 39 51 92 119 432 1090 1510 2230 2940
2024-04-09 10:45 6.20 1460 3520 (1985) 24 (1963) 801 39 51 92 119 432 1090 1510 2230 2940
2024-04-09 09:45 6.20 1460 3520 (1985) 24 (1963) 801 39 51 92 119 432 1090 1510 2230 2940
2024-04-09 08:45 6.21 1470 3520 (1985) 24 (1963) 801 39 51 92 119 432 1090 1510 2230 2940
2024-04-09 07:45 6.21 1470 3520 (1985) 24 (1963) 801 39 51 92 119 432 1090 1510 2230 2940
2024-04-09 06:45 6.20 1460 3520 (1985) 24 (1963) 801 39 51 92 119 432 1090 1510 2230 2940
2024-04-09 05:45 6.21 1470 3520 (1985) 24 (1963) 801 39 51 92 119 432 1090 1510 2230 2940
2024-04-09 04:45 6.20 1460 3520 (1985) 24 (1963) 801 39 51 92 119 432 1090 1510 2230 2940
2024-04-09 03:45 6.20 1460 3520 (1985) 24 (1963) 801 39 51 92 119 432 1090 1510 2230 2940
2024-04-09 02:45 6.20 1460 3520 (1985) 24 (1963) 801 39 51 92 119 432 1090 1510 2230 2940
2024-04-09 01:45 6.20 1460 3520 (1985) 24 (1963) 801 39 51 92 119 432 1090 1510 2230 2940
2024-04-09 00:45 6.21 1470 3520 (1985) 24 (1963) 801 39 51 92 119 432 1090 1510 2230 2940
2024-04-08 23:45 6.19 1460 3520 (1985) 24 (1963) 801 39 51 92 119 432 1090 1510 2230 2940
2024-04-08 22:45 6.20 1460 3540 (1985) 25 (1963) 760 39 49 87 99 410 1040 1240 2670 2950
2024-04-08 21:45 6.20 1460 3540 (1985) 25 (1963) 760 39 49 87 99 410 1040 1240 2670 2950
2024-04-08 20:45 6.21 1470 3540 (1985) 25 (1963) 760 39 49 87 99 410 1040 1240 2670 2950
2024-04-08 19:45 6.21 1470 3540 (1985) 25 (1963) 760 39 49 87 99 410 1040 1240 2670 2950
2024-04-08 18:45 6.21 1470 3540 (1985) 25 (1963) 760 39 49 87 99 410 1040 1240 2670 2950
2024-04-08 17:45 6.21 1470 3540 (1985) 25 (1963) 760 39 49 87 99 410 1040 1240 2670 2950
2024-04-08 16:45 6.22 1470 3540 (1985) 25 (1963) 760 39 49 87 99 410 1040 1240 2670 2950
2024-04-08 15:45 6.21 1470 3540 (1985) 25 (1963) 760 39 49 87 99 410 1040 1240 2670 2950
2024-04-08 14:45 6.21 1470 3540 (1985) 25 (1963) 760 39 49 87 99 410 1040 1240 2670 2950
2024-04-08 13:45 6.21 1470 3540 (1985) 25 (1963) 760 39 49 87 99 410 1040 1240 2670 2950
2024-04-08 12:45 6.21 1470 3540 (1985) 25 (1963) 760 39 49 87 99 410 1040 1240 2670 2950
2024-04-08 11:45 6.20 1460 3540 (1985) 25 (1963) 760 39 49 87 99 410 1040 1240 2670 2950
2024-04-08 10:45 6.17 1450 3540 (1985) 25 (1963) 760 39 49 87 99 410 1040 1240 2670 2950
2024-04-08 09:45 5.99 1340 3540 (1985) 25 (1963) 760 39 49 87 99 410 1040 1240 2670 2950
2024-04-08 08:45 5.25 961 3540 (1985) 25 (1963) 760 39 49 87 99 410 1040 1240 2670 2950
2024-04-08 07:45 5.25 961 3540 (1985) 25 (1963) 760 39 49 87 99 410 1040 1240 2670 2950
2024-04-08 06:45 5.24 956 3540 (1985) 25 (1963) 760 39 49 87 99 410 1040 1240 2670 2950
2024-04-08 05:45 5.25 961 3540 (1985) 25 (1963) 760 39 49 87 99 410 1040 1240 2670 2950
2024-04-08 04:45 5.24 956 3540 (1985) 25 (1963) 760 39 49 87 99 410 1040 1240 2670 2950
2024-04-08 03:45 5.24 956 3540 (1985) 25 (1963) 760 39 49 87 99 410 1040 1240 2670 2950
2024-04-08 02:45 5.24 956 3540 (1985) 25 (1963) 760 39 49 87 99 410 1040 1240 2670 2950
2024-04-08 01:45 5.25 961 3540 (1985) 25 (1963) 760 39 49 87 99 410 1040 1240 2670 2950
2024-04-08 00:45 5.25 961 3540 (1985) 25 (1963) 760 39 49 87 99 410 1040 1240 2670 2950
2024-04-07 23:45 5.24 956 3540 (1985) 25 (1963) 760 39 49 87 99 410 1040 1240 2670 2950
2024-04-07 22:45 5.25 961 3550 (1985) 25 (1963) 729 38 50 87 99 407 880 1030 2790 2980
2024-04-07 21:45 5.25 961 3550 (1985) 25 (1963) 729 38 50 87 99 407 880 1030 2790 2980
2024-04-07 20:45 5.25 961 3550 (1985) 25 (1963) 729 38 50 87 99 407 880 1030 2790 2980
2024-04-07 19:45 5.25 961 3550 (1985) 25 (1963) 729 38 50 87 99 407 880 1030 2790 2980
2024-04-07 18:45 5.25 961 3550 (1985) 25 (1963) 729 38 50 87 99 407 880 1030 2790 2980
2024-04-07 17:45 5.24 956 3550 (1985) 25 (1963) 729 38 50 87 99 407 880 1030 2790 2980
2024-04-07 16:45 5.24 956 3550 (1985) 25 (1963) 729 38 50 87 99 407 880 1030 2790 2980
2024-04-07 15:45 5.25 961 3550 (1985) 25 (1963) 729 38 50 87 99 407 880 1030 2790 2980
2024-04-07 14:45 5.24 956 3550 (1985) 25 (1963) 729 38 50 87 99 407 880 1030 2790 2980
2024-04-07 13:45 5.25 961 3550 (1985) 25 (1963) 729 38 50 87 99 407 880 1030 2790 2980
2024-04-07 12:45 5.25 961 3550 (1985) 25 (1963) 729 38 50 87 99 407 880 1030 2790 2980
2024-04-07 11:45 5.24 956 3550 (1985) 25 (1963) 729 38 50 87 99 407 880 1030 2790 2980
2024-04-07 10:45 5.25 961 3550 (1985) 25 (1963) 729 38 50 87 99 407 880 1030 2790 2980
2024-04-07 09:45 5.24 956 3550 (1985) 25 (1963) 729 38 50 87 99 407 880 1030 2790 2980
2024-04-07 08:45 5.24 956 3550 (1985) 25 (1963) 729 38 50 87 99 407 880 1030 2790 2980
2024-04-07 07:45 5.24 956 3550 (1985) 25 (1963) 729 38 50 87 99 407 880 1030 2790 2980
2024-04-07 06:45 5.24 956 3550 (1985) 25 (1963) 729 38 50 87 99 407 880 1030 2790 2980
2024-04-07 05:45 5.24 956 3550 (1985) 25 (1963) 729 38 50 87 99 407 880 1030 2790 2980
2024-04-07 04:45 5.24 956 3550 (1985) 25 (1963) 729 38 50 87 99 407 880 1030 2790 2980
2024-04-07 03:45 5.24 956 3550 (1985) 25 (1963) 729 38 50 87 99 407 880 1030 2790 2980
2024-04-07 02:45 5.24 956 3550 (1985) 25 (1963) 729 38 50 87 99 407 880 1030 2790 2980
2024-04-07 01:45 5.24 956 3550 (1985) 25 (1963) 729 38 50 87 99 407 880 1030 2790 2980
2024-04-07 00:45 5.24 956 3550 (1985) 25 (1963) 729 38 50 87 99 407 880 1030 2790 2980
2024-04-06 23:45 5.24 956 3550 (1985) 25 (1963) 729 38 50 87 99 407 880 1030 2790 2980
2024-04-06 22:45 5.24 956 3560 (1985) 2 (2011) 723 30 43 82 99 335 871 1070 2600 2950
2024-04-06 21:45 5.24 956 3560 (1985) 2 (2011) 723 30 43 82 99 335 871 1070 2600 2950
2024-04-06 20:45 5.24 956 3560 (1985) 2 (2011) 723 30 43 82 99 335 871 1070 2600 2950
2024-04-06 19:45 5.24 956 3560 (1985) 2 (2011) 723 30 43 82 99 335 871 1070 2600 2950
2024-04-06 18:45 5.24 956 3560 (1985) 2 (2011) 723 30 43 82 99 335 871 1070 2600 2950
2024-04-06 17:45 5.24 956 3560 (1985) 2 (2011) 723 30 43 82 99 335 871 1070 2600 2950
2024-04-06 16:45 5.24 956 3560 (1985) 2 (2011) 723 30 43 82 99 335 871 1070 2600 2950
2024-04-06 15:45 5.23 951 3560 (1985) 2 (2011) 723 30 43 82 99 335 871 1070 2600 2950
2024-04-06 14:45 5.24 956 3560 (1985) 2 (2011) 723 30 43 82 99 335 871 1070 2600 2950
2024-04-06 13:45 5.24 956 3560 (1985) 2 (2011) 723 30 43 82 99 335 871 1070 2600 2950
2024-04-06 12:45 5.23 951 3560 (1985) 2 (2011) 723 30 43 82 99 335 871 1070 2600 2950
2024-04-06 11:45 5.24 956 3560 (1985) 2 (2011) 723 30 43 82 99 335 871 1070 2600 2950
2024-04-06 10:45 5.24 956 3560 (1985) 2 (2011) 723 30 43 82 99 335 871 1070 2600 2950
2024-04-06 09:45 5.24 956 3560 (1985) 2 (2011) 723 30 43 82 99 335 871 1070 2600 2950
2024-04-06 08:45 5.24 956 3560 (1985) 2 (2011) 723 30 43 82 99 335 871 1070 2600 2950
2024-04-06 07:45 5.24 956 3560 (1985) 2 (2011) 723 30 43 82 99 335 871 1070 2600 2950
2024-04-06 06:45 5.24 956 3560 (1985) 2 (2011) 723 30 43 82 99 335 871 1070 2600 2950
2024-04-06 05:45 5.23 951 3560 (1985) 2 (2011) 723 30 43 82 99 335 871 1070 2600 2950
2024-04-06 04:45 5.24 956 3560 (1985) 2 (2011) 723 30 43 82 99 335 871 1070 2600 2950
2024-04-06 03:45 5.24 956 3560 (1985) 2 (2011) 723 30 43 82 99 335 871 1070 2600 2950
2024-04-06 02:45 5.24 956 3560 (1985) 2 (2011) 723 30 43 82 99 335 871 1070 2600 2950
2024-04-06 01:45 5.24 956 3560 (1985) 2 (2011) 723 30 43 82 99 335 871 1070 2600 2950
2024-04-06 00:45 5.24 956 3560 (1985) 2 (2011) 723 30 43 82 99 335 871 1070 2600 2950
2024-04-05 23:45 5.24 956 3560 (1985) 2 (2011) 723 30 43 82 99 335 871 1070 2600 2950
2024-04-05 22:45 5.24 956 3550 (1985) 2 (2011) 759 25 43 89 99 332 975 1390 2740 2950
2024-04-05 21:45 5.24 956 3550 (1985) 2 (2011) 759 25 43 89 99 332 975 1390 2740 2950
2024-04-05 20:45 5.24 956 3550 (1985) 2 (2011) 759 25 43 89 99 332 975 1390 2740 2950
2024-04-05 19:45 5.24 956 3550 (1985) 2 (2011) 759 25 43 89 99 332 975 1390 2740 2950
2024-04-05 18:45 5.24 956 3550 (1985) 2 (2011) 759 25 43 89 99 332 975 1390 2740 2950
2024-04-05 17:45 5.24 956 3550 (1985) 2 (2011) 759 25 43 89 99 332 975 1390 2740 2950
2024-04-05 16:45 5.24 956 3550 (1985) 2 (2011) 759 25 43 89 99 332 975 1390 2740 2950
2024-04-05 15:45 5.24 956 3550 (1985) 2 (2011) 759 25 43 89 99 332 975 1390 2740 2950
2024-04-05 14:45 5.24 956 3550 (1985) 2 (2011) 759 25 43 89 99 332 975 1390 2740 2950
2024-04-05 13:45 5.24 956 3550 (1985) 2 (2011) 759 25 43 89 99 332 975 1390 2740 2950
2024-04-05 12:45 5.24 956 3550 (1985) 2 (2011) 759 25 43 89 99 332 975 1390 2740 2950
2024-04-05 11:45 5.24 956 3550 (1985) 2 (2011) 759 25 43 89 99 332 975 1390 2740 2950
2024-04-05 10:45 5.24 956 3550 (1985) 2 (2011) 759 25 43 89 99 332 975 1390 2740 2950
2024-04-05 09:45 5.24 956 3550 (1985) 2 (2011) 759 25 43 89 99 332 975 1390 2740 2950
2024-04-05 08:45 5.24 956 3550 (1985) 2 (2011) 759 25 43 89 99 332 975 1390 2740 2950
2024-04-05 07:45 5.24 956 3550 (1985) 2 (2011) 759 25 43 89 99 332 975 1390 2740 2950
2024-04-05 06:45 5.24 956 3550 (1985) 2 (2011) 759 25 43 89 99 332 975 1390 2740 2950
2024-04-05 05:45 5.24 956 3550 (1985) 2 (2011) 759 25 43 89 99 332 975 1390 2740 2950
2024-04-05 04:45 5.24 956 3550 (1985) 2 (2011) 759 25 43 89 99 332 975 1390 2740 2950
2024-04-05 03:45 5.24 956 3550 (1985) 2 (2011) 759 25 43 89 99 332 975 1390 2740 2950
2024-04-05 02:45 5.24 956 3550 (1985) 2 (2011) 759 25 43 89 99 332 975 1390 2740 2950
2024-04-05 01:45 5.24 956 3550 (1985) 2 (2011) 759 25 43 89 99 332 975 1390 2740 2950
2024-04-05 00:45 5.24 956 3550 (1985) 2 (2011) 759 25 43 89 99 332 975 1390 2740 2950
2024-04-04 23:45 5.24 956 3550 (1985) 2 (2011) 759 25 43 89 99 332 975 1390 2740 2950
2024-04-04 22:45 5.24 956 3550 (1985) 2 (2011) 842 25 43 84 92 483 1170 1930 2640 2990
2024-04-04 21:45 5.24 956 3550 (1985) 2 (2011) 842 25 43 84 92 483 1170 1930 2640 2990
2024-04-04 20:45 5.24 956 3550 (1985) 2 (2011) 842 25 43 84 92 483 1170 1930 2640 2990
2024-04-04 19:45 5.24 956 3550 (1985) 2 (2011) 842 25 43 84 92 483 1170 1930 2640 2990
2024-04-04 18:45 5.25 961 3550 (1985) 2 (2011) 842 25 43 84 92 483 1170 1930 2640 2990
2024-04-04 17:45 5.25 961 3550 (1985) 2 (2011) 842 25 43 84 92 483 1170 1930 2640 2990
2024-04-04 16:45 5.26 965 3550 (1985) 2 (2011) 842 25 43 84 92 483 1170 1930 2640 2990
2024-04-04 15:45 5.28 975 3550 (1985) 2 (2011) 842 25 43 84 92 483 1170 1930 2640 2990
2024-04-04 14:45 5.38 1020 3550 (1985) 2 (2011) 842 25 43 84 92 483 1170 1930 2640 2990
2024-04-04 13:45 5.89 1290 3550 (1985) 2 (2011) 842 25 43 84 92 483 1170 1930 2640 2990
2024-04-04 12:45 6.22 1470 3550 (1985) 2 (2011) 842 25 43 84 92 483 1170 1930 2640 2990
2024-04-04 11:45 6.20 1460 3550 (1985) 2 (2011) 842 25 43 84 92 483 1170 1930 2640 2990
2024-04-04 10:45 6.21 1470 3550 (1985) 2 (2011) 842 25 43 84 92 483 1170 1930 2640 2990
2024-04-04 09:45 6.20 1460 3550 (1985) 2 (2011) 842 25 43 84 92 483 1170 1930 2640 2990
2024-04-04 08:45 6.21 1470 3550 (1985) 2 (2011) 842 25 43 84 92 483 1170 1930 2640 2990
2024-04-04 07:45 6.21 1470 3550 (1985) 2 (2011) 842 25 43 84 92 483 1170 1930 2640 2990
2024-04-04 06:45 6.20 1460 3550 (1985) 2 (2011) 842 25 43 84 92 483 1170 1930 2640 2990
2024-04-04 05:45 6.20 1460 3550 (1985) 2 (2011) 842 25 43 84 92 483 1170 1930 2640 2990
2024-04-04 04:45 6.20 1460 3550 (1985) 2 (2011) 842 25 43 84 92 483 1170 1930 2640 2990
2024-04-04 03:45 6.21 1470 3550 (1985) 2 (2011) 842 25 43 84 92 483 1170 1930 2640 2990
2024-04-04 02:45 6.21 1470 3550 (1985) 2 (2011) 842 25 43 84 92 483 1170 1930 2640 2990
2024-04-04 01:45 6.21 1470 3550 (1985) 2 (2011) 842 25 43 84 92 483 1170 1930 2640 2990
2024-04-04 00:45 6.21 1470 3550 (1985) 2 (2011) 842 25 43 84 92 483 1170 1930 2640 2990
2024-04-03 23:45 6.21 1470 3550 (1985) 2 (2011) 842 25 43 84 92 483 1170 1930 2640 2990
2024-04-03 22:45 6.20 1460 4070 (1974) 1 (2012) 904 25 46 90 99 485 1460 1830 2870 3030
2024-04-03 21:45 6.21 1470 4070 (1974) 1 (2012) 904 25 46 90 99 485 1460 1830 2870 3030
2024-04-03 20:45 6.21 1470 4070 (1974) 1 (2012) 904 25 46 90 99 485 1460 1830 2870 3030
2024-04-03 19:45 6.21 1470 4070 (1974) 1 (2012) 904 25 46 90 99 485 1460 1830 2870 3030
2024-04-03 18:45 6.21 1470 4070 (1974) 1 (2012) 904 25 46 90 99 485 1460 1830 2870 3030
2024-04-03 17:45 6.22 1470 4070 (1974) 1 (2012) 904 25 46 90 99 485 1460 1830 2870 3030
2024-04-03 16:45 6.22 1470 4070 (1974) 1 (2012) 904 25 46 90 99 485 1460 1830 2870 3030
2024-04-03 15:45 6.22 1470 4070 (1974) 1 (2012) 904 25 46 90 99 485 1460 1830 2870 3030
2024-04-03 14:45 6.22 1470 4070 (1974) 1 (2012) 904 25 46 90 99 485 1460 1830 2870 3030
2024-04-03 13:45 6.22 1470 4070 (1974) 1 (2012) 904 25 46 90 99 485 1460 1830 2870 3030
2024-04-03 12:45 6.22 1470 4070 (1974) 1 (2012) 904 25 46 90 99 485 1460 1830 2870 3030
2024-04-03 11:45 6.22 1470 4070 (1974) 1 (2012) 904 25 46 90 99 485 1460 1830 2870 3030
2024-04-03 10:45 6.22 1470 4070 (1974) 1 (2012) 904 25 46 90 99 485 1460 1830 2870 3030
2024-04-03 09:45 6.22 1470 4070 (1974) 1 (2012) 904 25 46 90 99 485 1460 1830 2870 3030
2024-04-03 08:45 6.22 1470 4070 (1974) 1 (2012) 904 25 46 90 99 485 1460 1830 2870 3030
2024-04-03 07:45 6.22 1470 4070 (1974) 1 (2012) 904 25 46 90 99 485 1460 1830 2870 3030
2024-04-03 06:45 6.22 1470 4070 (1974) 1 (2012) 904 25 46 90 99 485 1460 1830 2870 3030
2024-04-03 05:45 6.21 1470 4070 (1974) 1 (2012) 904 25 46 90 99 485 1460 1830 2870 3030
2024-04-03 04:45 6.23 1480 4070 (1974) 1 (2012) 904 25 46 90 99 485 1460 1830 2870 3030
2024-04-03 03:45 6.23 1480 4070 (1974) 1 (2012) 904 25 46 90 99 485 1460 1830 2870 3030
2024-04-03 02:45 6.22 1470 4070 (1974) 1 (2012) 904 25 46 90 99 485 1460 1830 2870 3030
2024-04-03 01:45 6.22 1470 4070 (1974) 1 (2012) 904 25 46 90 99 485 1460 1830 2870 3030
2024-04-03 00:45 6.22 1470 4070 (1974) 1 (2012) 904 25 46 90 99 485 1460 1830 2870 3030
2024-04-02 23:45 6.21 1470 4070 (1974) 1 (2012) 904 25 46 90 99 485 1460 1830 2870 3030
2024-04-02 22:45 6.21 1470 4070 (1974) 2 (2011) 931 25 45 80 94 588 1460 1930 2880 3040
2024-04-02 21:45 6.22 1470 4070 (1974) 2 (2011) 931 25 45 80 94 588 1460 1930 2880 3040
2024-04-02 20:45 6.23 1480 4070 (1974) 2 (2011) 931 25 45 80 94 588 1460 1930 2880 3040
2024-04-02 19:45 6.24 1490 4070 (1974) 2 (2011) 931 25 45 80 94 588 1460 1930 2880 3040
2024-04-02 18:45 6.23 1480 4070 (1974) 2 (2011) 931 25 45 80 94 588 1460 1930 2880 3040
2024-04-02 17:45 6.23 1480 4070 (1974) 2 (2011) 931 25 45 80 94 588 1460 1930 2880 3040
2024-04-02 16:45 6.19 1460 4070 (1974) 2 (2011) 931 25 45 80 94 588 1460 1930 2880 3040
2024-04-02 15:45 5.85 1260 4070 (1974) 2 (2011) 931 25 45 80 94 588 1460 1930 2880 3040
2024-04-02 14:45 4.79 760 4070 (1974) 2 (2011) 931 25 45 80 94 588 1460 1930 2880 3040
2024-04-02 13:45 3.86 431 4070 (1974) 2 (2011) 931 25 45 80 94 588 1460 1930 2880 3040
2024-04-02 12:45 3.54 339 4070 (1974) 2 (2011) 931 25 45 80 94 588 1460 1930 2880 3040
2024-04-02 11:45 3.08 228 4070 (1974) 2 (2011) 931 25 45 80 94 588 1460 1930 2880 3040
2024-04-02 10:45 3.09 230 4070 (1974) 2 (2011) 931 25 45 80 94 588 1460 1930 2880 3040
2024-04-02 09:45 3.09 230 4070 (1974) 2 (2011) 931 25 45 80 94 588 1460 1930 2880 3040
2024-04-02 08:45 3.10 232 4070 (1974) 2 (2011) 931 25 45 80 94 588 1460 1930 2880 3040
2024-04-02 07:45 3.11 234 4070 (1974) 2 (2011) 931 25 45 80 94 588 1460 1930 2880 3040
2024-04-02 06:45 3.13 239 4070 (1974) 2 (2011) 931 25 45 80 94 588 1460 1930 2880 3040
2024-04-02 05:45 3.15 243 4070 (1974) 2 (2011) 931 25 45 80 94 588 1460 1930 2880 3040
2024-04-02 04:45 3.20 255 4070 (1974) 2 (2011) 931 25 45 80 94 588 1460 1930 2880 3040
2024-04-02 03:45 3.26 269 4070 (1974) 2 (2011) 931 25 45 80 94 588 1460 1930 2880 3040
2024-04-02 02:45 3.31 280 4070 (1974) 2 (2011) 931 25 45 80 94 588 1460 1930 2880 3040
2024-04-02 01:45 3.35 290 4070 (1974) 2 (2011) 931 25 45 80 94 588 1460 1930 2880 3040
2024-04-02 00:45 3.46 318 4070 (1974) 2 (2011) 931 25 45 80 94 588 1460 1930 2880 3040
2024-04-01 23:45 3.53 337 4070 (1974) 2 (2011) 931 25 45 80 94 588 1460 1930 2880 3040
2024-04-01 22:45 3.15 243 4070 (1974) 20 (2011) 951 30 45 51 90 581 1510 1950 2880 3040
2024-04-01 21:45 3.03 217 4070 (1974) 20 (2011) 951 30 45 51 90 581 1510 1950 2880 3040
2024-04-01 20:45 3.04 219 4070 (1974) 20 (2011) 951 30 45 51 90 581 1510 1950 2880 3040
2024-04-01 19:45 3.07 226 4070 (1974) 20 (2011) 951 30 45 51 90 581 1510 1950 2880 3040
2024-04-01 18:45 3.02 215 4070 (1974) 20 (2011) 951 30 45 51 90 581 1510 1950 2880 3040
2024-04-01 17:45 3.02 215 4070 (1974) 20 (2011) 951 30 45 51 90 581 1510 1950 2880 3040
2024-04-01 16:45 3.02 215 4070 (1974) 20 (2011) 951 30 45 51 90 581 1510 1950 2880 3040
2024-04-01 15:45 3.02 215 4070 (1974) 20 (2011) 951 30 45 51 90 581 1510 1950 2880 3040
2024-04-01 14:45 3.02 215 4070 (1974) 20 (2011) 951 30 45 51 90 581 1510 1950 2880 3040
2024-04-01 13:45 3.02 215 4070 (1974) 20 (2011) 951 30 45 51 90 581 1510 1950 2880 3040
2024-04-01 12:45 3.02 215 4070 (1974) 20 (2011) 951 30 45 51 90 581 1510 1950 2880 3040
2024-04-01 11:45 3.02 215 4070 (1974) 20 (2011) 951 30 45 51 90 581 1510 1950 2880 3040
2024-04-01 10:45 3.02 215 4070 (1974) 20 (2011) 951 30 45 51 90 581 1510 1950 2880 3040
2024-04-01 09:45 3.02 215 4070 (1974) 20 (2011) 951 30 45 51 90 581 1510 1950 2880 3040
2024-04-01 08:45 3.02 215 4070 (1974) 20 (2011) 951 30 45 51 90 581 1510 1950 2880 3040
2024-04-01 07:45 3.02 215 4070 (1974) 20 (2011) 951 30 45 51 90 581 1510 1950 2880 3040
2024-04-01 06:45 3.02 215 4070 (1974) 20 (2011) 951 30 45 51 90 581 1510 1950 2880 3040
2024-04-01 05:45 3.02 215 4070 (1974) 20 (2011) 951 30 45 51 90 581 1510 1950 2880 3040
2024-04-01 04:45 3.02 215 4070 (1974) 20 (2011) 951 30 45 51 90 581 1510 1950 2880 3040
2024-04-01 03:45 3.02 215 4070 (1974) 20 (2011) 951 30 45 51 90 581 1510 1950 2880 3040
2024-04-01 02:45 3.02 215 4070 (1974) 20 (2011) 951 30 45 51 90 581 1510 1950 2880 3040
2024-04-01 01:45 3.02 215 4070 (1974) 20 (2011) 951 30 45 51 90 581 1510 1950 2880 3040
2024-04-01 00:45 3.01 213 4070 (1974) 20 (2011) 951 30 45 51 90 581 1510 1950 2880 3040
2024-03-31 23:45 3.02 215 4070 (1974) 20 (2011) 951 30 45 51 90 581 1510 1950 2880 3040
2024-03-31 22:45 3.02 215 4160 (1974) 26 (2019) 968 44 49 84 93 541 1790 1930 2890 3040
2024-03-31 21:45 3.02 215 4160 (1974) 26 (2019) 968 44 49 84 93 541 1790 1930 2890 3040
2024-03-31 20:45 3.02 215 4160 (1974) 26 (2019) 968 44 49 84 93 541 1790 1930 2890 3040
2024-03-31 19:45 3.02 215 4160 (1974) 26 (2019) 968 44 49 84 93 541 1790 1930 2890 3040
2024-03-31 18:45 3.02 215 4160 (1974) 26 (2019) 968 44 49 84 93 541 1790 1930 2890 3040
2024-03-31 17:45 3.02 215 4160 (1974) 26 (2019) 968 44 49 84 93 541 1790 1930 2890 3040
2024-03-31 16:45 3.02 215 4160 (1974) 26 (2019) 968 44 49 84 93 541 1790 1930 2890 3040
2024-03-31 15:45 3.02 215 4160 (1974) 26 (2019) 968 44 49 84 93 541 1790 1930 2890 3040
2024-03-31 14:45 3.02 215 4160 (1974) 26 (2019) 968 44 49 84 93 541 1790 1930 2890 3040
2024-03-31 13:45 3.02 215 4160 (1974) 26 (2019) 968 44 49 84 93 541 1790 1930 2890 3040
2024-03-31 12:45 3.02 215 4160 (1974) 26 (2019) 968 44 49 84 93 541 1790 1930 2890 3040
2024-03-31 11:45 3.02 215 4160 (1974) 26 (2019) 968 44 49 84 93 541 1790 1930 2890 3040
2024-03-31 10:45 3.01 213 4160 (1974) 26 (2019) 968 44 49 84 93 541 1790 1930 2890 3040
2024-03-31 09:45 3.02 215 4160 (1974) 26 (2019) 968 44 49 84 93 541 1790 1930 2890 3040
2024-03-31 08:45 3.01 213 4160 (1974) 26 (2019) 968 44 49 84 93 541 1790 1930 2890 3040
2024-03-31 07:45 3.01 213 4160 (1974) 26 (2019) 968 44 49 84 93 541 1790 1930 2890 3040
2024-03-31 06:45 3.01 213 4160 (1974) 26 (2019) 968 44 49 84 93 541 1790 1930 2890 3040
2024-03-31 05:45 3.01 213 4160 (1974) 26 (2019) 968 44 49 84 93 541 1790 1930 2890 3040
2024-03-31 04:45 3.01 213 4160 (1974) 26 (2019) 968 44 49 84 93 541 1790 1930 2890 3040
2024-03-31 03:45 3.01 213 4160 (1974) 26 (2019) 968 44 49 84 93 541 1790 1930 2890 3040
2024-03-31 02:45 3.01 213 4160 (1974) 26 (2019) 968 44 49 84 93 541 1790 1930 2890 3040
2024-03-31 01:45 3.01 213 4160 (1974) 26 (2019) 968 44 49 84 93 541 1790 1930 2890 3040
2024-03-31 00:45 3.01 213 4160 (1974) 26 (2019) 968 44 49 84 93 541 1790 1930 2890 3040
2024-03-30 23:45 3.01 213 4160 (1974) 26 (2019) 968 44 49 84 93 541 1790 1930 2890 3040
2024-03-30 22:45 3.01 213 4160 (1974) 27 (2019) 987 43 50 95 104 539 1460 2000 2870 3050
2024-03-30 21:45 3.01 213 4160 (1974) 27 (2019) 987 43 50 95 104 539 1460 2000 2870 3050
2024-03-30 20:45 3.01 213 4160 (1974) 27 (2019) 987 43 50 95 104 539 1460 2000 2870 3050
2024-03-30 19:45 3.01 213 4160 (1974) 27 (2019) 987 43 50 95 104 539 1460 2000 2870 3050
2024-03-30 18:45 3.01 213 4160 (1974) 27 (2019) 987 43 50 95 104 539 1460 2000 2870 3050
2024-03-30 17:45 3.01 213 4160 (1974) 27 (2019) 987 43 50 95 104 539 1460 2000 2870 3050
2024-03-30 16:45 3.01 213 4160 (1974) 27 (2019) 987 43 50 95 104 539 1460 2000 2870 3050
2024-03-30 15:45 3.01 213 4160 (1974) 27 (2019) 987 43 50 95 104 539 1460 2000 2870 3050
2024-03-30 14:45 3.01 213 4160 (1974) 27 (2019) 987 43 50 95 104 539 1460 2000 2870 3050
2024-03-30 13:45 3.01 213 4160 (1974) 27 (2019) 987 43 50 95 104 539 1460 2000 2870 3050
2024-03-30 12:45 3.01 213 4160 (1974) 27 (2019) 987 43 50 95 104 539 1460 2000 2870 3050
2024-03-30 11:45 3.01 213 4160 (1974) 27 (2019) 987 43 50 95 104 539 1460 2000 2870 3050
2024-03-30 10:45 3.01 213 4160 (1974) 27 (2019) 987 43 50 95 104 539 1460 2000 2870 3050
2024-03-30 09:45 3.01 213 4160 (1974) 27 (2019) 987 43 50 95 104 539 1460 2000 2870 3050
2024-03-30 08:45 3.01 213 4160 (1974) 27 (2019) 987 43 50 95 104 539 1460 2000 2870 3050
2024-03-30 07:45 3.01 213 4160 (1974) 27 (2019) 987 43 50 95 104 539 1460 2000 2870 3050
2024-03-30 06:45 3.01 213 4160 (1974) 27 (2019) 987 43 50 95 104 539 1460 2000 2870 3050
2024-03-30 05:45 3.01 213 4160 (1974) 27 (2019) 987 43 50 95 104 539 1460 2000 2870 3050
2024-03-30 04:45 3.01 213 4160 (1974) 27 (2019) 987 43 50 95 104 539 1460 2000 2870 3050
2024-03-30 03:45 3.01 213 4160 (1974) 27 (2019) 987 43 50 95 104 539 1460 2000 2870 3050
2024-03-30 02:45 3.01 213 4160 (1974) 27 (2019) 987 43 50 95 104 539 1460 2000 2870 3050
2024-03-30 01:45 3.01 213 4160 (1974) 27 (2019) 987 43 50 95 104 539 1460 2000 2870 3050
2024-03-30 00:45 3.01 213 4160 (1974) 27 (2019) 987 43 50 95 104 539 1460 2000 2870 3050
2024-03-29 23:45 3.01 213 4160 (1974) 27 (2019) 987 43 50 95 104 539 1460 2000 2870 3050
2024-03-29 22:45 3.01 213 4160 (1974) 23 (1963) 993 41 49 100 105 537 1440 2000 2960 3070
2024-03-29 21:45 3.01 213 4160 (1974) 23 (1963) 993 41 49 100 105 537 1440 2000 2960 3070
2024-03-29 20:45 3.01 213 4160 (1974) 23 (1963) 993 41 49 100 105 537 1440 2000 2960 3070
2024-03-29 19:45 3.01 213 4160 (1974) 23 (1963) 993 41 49 100 105 537 1440 2000 2960 3070
2024-03-29 18:45 3.01 213 4160 (1974) 23 (1963) 993 41 49 100 105 537 1440 2000 2960 3070
2024-03-29 17:45 3.01 213 4160 (1974) 23 (1963) 993 41 49 100 105 537 1440 2000 2960 3070
2024-03-29 16:45 3.01 213 4160 (1974) 23 (1963) 993 41 49 100 105 537 1440 2000 2960 3070
2024-03-29 15:45 3.01 213 4160 (1974) 23 (1963) 993 41 49 100 105 537 1440 2000 2960 3070
2024-03-29 14:45 3.01 213 4160 (1974) 23 (1963) 993 41 49 100 105 537 1440 2000 2960 3070
2024-03-29 13:45 3.01 213 4160 (1974) 23 (1963) 993 41 49 100 105 537 1440 2000 2960 3070
2024-03-29 12:45 3.01 213 4160 (1974) 23 (1963) 993 41 49 100 105 537 1440 2000 2960 3070
2024-03-29 11:45 3.01 213 4160 (1974) 23 (1963) 993 41 49 100 105 537 1440 2000 2960 3070
2024-03-29 10:45 3.01 213 4160 (1974) 23 (1963) 993 41 49 100 105 537 1440 2000 2960 3070
2024-03-29 09:45 3.01 213 4160 (1974) 23 (1963) 993 41 49 100 105 537 1440 2000 2960 3070
2024-03-29 08:45 3.01 213 4160 (1974) 23 (1963) 993 41 49 100 105 537 1440 2000 2960 3070
2024-03-29 07:45 3.01 213 4160 (1974) 23 (1963) 993 41 49 100 105 537 1440 2000 2960 3070
2024-03-29 06:45 3.01 213 4160 (1974) 23 (1963) 993 41 49 100 105 537 1440 2000 2960 3070
2024-03-29 05:45 3.01 213 4160 (1974) 23 (1963) 993 41 49 100 105 537 1440 2000 2960 3070
2024-03-29 04:45 3.01 213 4160 (1974) 23 (1963) 993 41 49 100 105 537 1440 2000 2960 3070
2024-03-29 03:45 3.01 213 4160 (1974) 23 (1963) 993 41 49 100 105 537 1440 2000 2960 3070
2024-03-29 02:45 3.01 213 4160 (1974) 23 (1963) 993 41 49 100 105 537 1440 2000 2960 3070
2024-03-29 01:45 3.01 213 4160 (1974) 23 (1963) 993 41 49 100 105 537 1440 2000 2960 3070
2024-03-29 00:45 3.01 213 4160 (1974) 23 (1963) 993 41 49 100 105 537 1440 2000 2960 3070
2024-03-28 23:45 3.01 213 4160 (1974) 23 (1963) 993 41 49 100 105 537 1440 2000 2960 3070
2024-03-28 22:45 3.01 213 4160 (1974) 23 (1963) 1040 46 50 100 110 536 1520 2090 2990 3430
2024-03-28 21:45 3.01 213 4160 (1974) 23 (1963) 1040 46 50 100 110 536 1520 2090 2990 3430
2024-03-28 20:45 3.01 213 4160 (1974) 23 (1963) 1040 46 50 100 110 536 1520 2090 2990 3430
2024-03-28 19:45 3.01 213 4160 (1974) 23 (1963) 1040 46 50 100 110 536 1520 2090 2990 3430
2024-03-28 18:45 3.01 213 4160 (1974) 23 (1963) 1040 46 50 100 110 536 1520 2090 2990 3430
2024-03-28 17:45 3.01 213 4160 (1974) 23 (1963) 1040 46 50 100 110 536 1520 2090 2990 3430
2024-03-28 16:45 3.01 213 4160 (1974) 23 (1963) 1040 46 50 100 110 536 1520 2090 2990 3430
2024-03-28 15:45 3.01 213 4160 (1974) 23 (1963) 1040 46 50 100 110 536 1520 2090 2990 3430
2024-03-28 14:45 3.01 213 4160 (1974) 23 (1963) 1040 46 50 100 110 536 1520 2090 2990 3430
2024-03-28 13:45 3.01 213 4160 (1974) 23 (1963) 1040 46 50 100 110 536 1520 2090 2990 3430
2024-03-28 12:45 3.01 213 4160 (1974) 23 (1963) 1040 46 50 100 110 536 1520 2090 2990 3430
2024-03-28 11:45 3.01 213 4160 (1974) 23 (1963) 1040 46 50 100 110 536 1520 2090 2990 3430
2024-03-28 10:45 3.01 213 4160 (1974) 23 (1963) 1040 46 50 100 110 536 1520 2090 2990 3430
2024-03-28 09:45 3.01 213 4160 (1974) 23 (1963) 1040 46 50 100 110 536 1520 2090 2990 3430
2024-03-28 08:45 3.01 213 4160 (1974) 23 (1963) 1040 46 50 100 110 536 1520 2090 2990 3430
2024-03-28 07:45 3.01 213 4160 (1974) 23 (1963) 1040 46 50 100 110 536 1520 2090 2990 3430
2024-03-28 06:45 3.01 213 4160 (1974) 23 (1963) 1040 46 50 100 110 536 1520 2090 2990 3430
2024-03-28 05:45 3.01 213 4160 (1974) 23 (1963) 1040 46 50 100 110 536 1520 2090 2990 3430
2024-03-28 04:45 3.01 213 4160 (1974) 23 (1963) 1040 46 50 100 110 536 1520 2090 2990 3430
2024-03-28 03:45 3.01 213 4160 (1974) 23 (1963) 1040 46 50 100 110 536 1520 2090 2990 3430
2024-03-28 02:45 3.01 213 4160 (1974) 23 (1963) 1040 46 50 100 110 536 1520 2090 2990 3430
2024-03-28 01:45 3.01 213 4160 (1974) 23 (1963) 1040 46 50 100 110 536 1520 2090 2990 3430
2024-03-28 00:45 3.01 213 4160 (1974) 23 (1963) 1040 46 50 100 110 536 1520 2090 2990 3430
2024-03-27 23:45 3.01 213 4160 (1974) 23 (1963) 1040 46 50 100 110 536 1520 2090 2990 3430
2024-03-27 22:45 3.01 213 5770 (1962) 23 (1963) 1060 45 50 100 111 517 1430 2090 2980 3410
2024-03-27 21:45 3.01 213 5770 (1962) 23 (1963) 1060 45 50 100 111 517 1430 2090 2980 3410
2024-03-27 20:45 3.01 213 5770 (1962) 23 (1963) 1060 45 50 100 111 517 1430 2090 2980 3410
2024-03-27 19:45 3.01 213 5770 (1962) 23 (1963) 1060 45 50 100 111 517 1430 2090 2980 3410
2024-03-27 18:45 3.00 211 5770 (1962) 23 (1963) 1060 45 50 100 111 517 1430 2090 2980 3410
2024-03-27 17:45 3.00 211 5770 (1962) 23 (1963) 1060 45 50 100 111 517 1430 2090 2980 3410
2024-03-27 16:45 3.01 213 5770 (1962) 23 (1963) 1060 45 50 100 111 517 1430 2090 2980 3410
2024-03-27 15:45 3.00 211 5770 (1962) 23 (1963) 1060 45 50 100 111 517 1430 2090 2980 3410
2024-03-27 14:45 3.00 211 5770 (1962) 23 (1963) 1060 45 50 100 111 517 1430 2090 2980 3410
2024-03-27 13:45 3.00 211 5770 (1962) 23 (1963) 1060 45 50 100 111 517 1430 2090 2980 3410
2024-03-27 12:45 3.00 211 5770 (1962) 23 (1963) 1060 45 50 100 111 517 1430 2090 2980 3410
2024-03-27 11:45 3.00 211 5770 (1962) 23 (1963) 1060 45 50 100 111 517 1430 2090 2980 3410
2024-03-27 10:45 3.00 211 5770 (1962) 23 (1963) 1060 45 50 100 111 517 1430 2090 2980 3410
2024-03-27 09:45 3.01 213 5770 (1962) 23 (1963) 1060 45 50 100 111 517 1430 2090 2980 3410
2024-03-27 08:45 3.01 213 5770 (1962) 23 (1963) 1060 45 50 100 111 517 1430 2090 2980 3410
2024-03-27 07:45 3.00 211 5770 (1962) 23 (1963) 1060 45 50 100 111 517 1430 2090 2980 3410
2024-03-27 06:45 3.00 211 5770 (1962) 23 (1963) 1060 45 50 100 111 517 1430 2090 2980 3410
2024-03-27 05:45 3.00 211 5770 (1962) 23 (1963) 1060 45 50 100 111 517 1430 2090 2980 3410
2024-03-27 04:45 3.00 211 5770 (1962) 23 (1963) 1060 45 50 100 111 517 1430 2090 2980 3410
2024-03-27 03:45 3.01 213 5770 (1962) 23 (1963) 1060 45 50 100 111 517 1430 2090 2980 3410
2024-03-27 02:45 3.00 211 5770 (1962) 23 (1963) 1060 45 50 100 111 517 1430 2090 2980 3410
2024-03-27 01:45 3.00 211 5770 (1962) 23 (1963) 1060 45 50 100 111 517 1430 2090 2980 3410
2024-03-27 00:45 3.00 211 5770 (1962) 23 (1963) 1060 45 50 100 111 517 1430 2090 2980 3410
2024-03-26 23:45 3.01 213 5770 (1962) 23 (1963) 1060 45 50 100 111 517 1430 2090 2980 3410
2024-03-26 22:45 3.01 213 4250 (1974) 23 (1963) 1030 45 50 100 112 556 1640 2090 2900 3080
2024-03-26 21:45 3.00 211 4250 (1974) 23 (1963) 1030 45 50 100 112 556 1640 2090 2900 3080
2024-03-26 20:45 3.01 213 4250 (1974) 23 (1963) 1030 45 50 100 112 556 1640 2090 2900 3080
2024-03-26 19:45 3.01 213 4250 (1974) 23 (1963) 1030 45 50 100 112 556 1640 2090 2900 3080
2024-03-26 18:45 3.01 213 4250 (1974) 23 (1963) 1030 45 50 100 112 556 1640 2090 2900 3080
2024-03-26 17:45 3.01 213 4250 (1974) 23 (1963) 1030 45 50 100 112 556 1640 2090 2900 3080
2024-03-26 16:45 3.01 213 4250 (1974) 23 (1963) 1030 45 50 100 112 556 1640 2090 2900 3080
2024-03-26 15:45 3.01 213 4250 (1974) 23 (1963) 1030 45 50 100 112 556 1640 2090 2900 3080
2024-03-26 14:45 3.00 211 4250 (1974) 23 (1963) 1030 45 50 100 112 556 1640 2090 2900 3080
2024-03-26 13:45 3.00 211 4250 (1974) 23 (1963) 1030 45 50 100 112 556 1640 2090 2900 3080
2024-03-26 12:45 3.00 211 4250 (1974) 23 (1963) 1030 45 50 100 112 556 1640 2090 2900 3080
2024-03-26 11:45 2.99 209 4250 (1974) 23 (1963) 1030 45 50 100 112 556 1640 2090 2900 3080
2024-03-26 10:45 2.95 201 4250 (1974) 23 (1963) 1030 45 50 100 112 556 1640 2090 2900 3080
2024-03-26 09:45 2.85 181 4250 (1974) 23 (1963) 1030 45 50 100 112 556 1640 2090 2900 3080
2024-03-26 08:45 2.60 137 4250 (1974) 23 (1963) 1030 45 50 100 112 556 1640 2090 2900 3080
2024-03-26 07:45 1.82 44 4250 (1974) 23 (1963) 1030 45 50 100 112 556 1640 2090 2900 3080
2024-03-26 06:45 1.77 40 4250 (1974) 23 (1963) 1030 45 50 100 112 556 1640 2090 2900 3080
2024-03-26 05:45 1.77 40 4250 (1974) 23 (1963) 1030 45 50 100 112 556 1640 2090 2900 3080
2024-03-26 04:45 1.77 40 4250 (1974) 23 (1963) 1030 45 50 100 112 556 1640 2090 2900 3080
2024-03-26 03:45 1.77 40 4250 (1974) 23 (1963) 1030 45 50 100 112 556 1640 2090 2900 3080
2024-03-26 02:45 1.77 40 4250 (1974) 23 (1963) 1030 45 50 100 112 556 1640 2090 2900 3080
2024-03-26 01:45 1.77 40 4250 (1974) 23 (1963) 1030 45 50 100 112 556 1640 2090 2900 3080
2024-03-26 00:45 1.77 40 4250 (1974) 23 (1963) 1030 45 50 100 112 556 1640 2090 2900 3080
2024-03-25 23:45 1.77 40 4250 (1974) 23 (1963) 1030 45 50 100 112 556 1640 2090 2900 3080
2024-03-25 22:45 1.77 40 4250 (1974) 23 (1963) 1090 47 51 95 107 554 1950 2300 2880 3150
2024-03-25 21:45 1.77 40 4250 (1974) 23 (1963) 1090 47 51 95 107 554 1950 2300 2880 3150
2024-03-25 20:45 1.77 40 4250 (1974) 23 (1963) 1090 47 51 95 107 554 1950 2300 2880 3150
2024-03-25 19:45 1.78 40 4250 (1974) 23 (1963) 1090 47 51 95 107 554 1950 2300 2880 3150
2024-03-25 18:45 1.78 40 4250 (1974) 23 (1963) 1090 47 51 95 107 554 1950 2300 2880 3150
2024-03-25 17:45 1.79 41 4250 (1974) 23 (1963) 1090 47 51 95 107 554 1950 2300 2880 3150
2024-03-25 16:45 1.80 42 4250 (1974) 23 (1963) 1090 47 51 95 107 554 1950 2300 2880 3150
2024-03-25 15:45 1.84 45 4250 (1974) 23 (1963) 1090 47 51 95 107 554 1950 2300 2880 3150
2024-03-25 14:45 1.90 50 4250 (1974) 23 (1963) 1090 47 51 95 107 554 1950 2300 2880 3150
2024-03-25 13:45 2.05 65 4250 (1974) 23 (1963) 1090 47 51 95 107 554 1950 2300 2880 3150
2024-03-25 12:45 2.34 99 4250 (1974) 23 (1963) 1090 47 51 95 107 554 1950 2300 2880 3150
2024-03-25 11:45 3.00 211 4250 (1974) 23 (1963) 1090 47 51 95 107 554 1950 2300 2880 3150
2024-03-25 10:45 3.00 211 4250 (1974) 23 (1963) 1090 47 51 95 107 554 1950 2300 2880 3150
2024-03-25 09:45 3.00 211 4250 (1974) 23 (1963) 1090 47 51 95 107 554 1950 2300 2880 3150
2024-03-25 08:45 2.99 209 4250 (1974) 23 (1963) 1090 47 51 95 107 554 1950 2300 2880 3150
2024-03-25 07:45 3.00 211 4250 (1974) 23 (1963) 1090 47 51 95 107 554 1950 2300 2880 3150
2024-03-25 06:45 3.00 211 4250 (1974) 23 (1963) 1090 47 51 95 107 554 1950 2300 2880 3150
2024-03-25 05:45 3.00 211 4250 (1974) 23 (1963) 1090 47 51 95 107 554 1950 2300 2880 3150
2024-03-25 04:45 3.00 211 4250 (1974) 23 (1963) 1090 47 51 95 107 554 1950 2300 2880 3150
2024-03-25 03:45 3.00 211 4250 (1974) 23 (1963) 1090 47 51 95 107 554 1950 2300 2880 3150
2024-03-25 02:45 3.01 213 4250 (1974) 23 (1963) 1090 47 51 95 107 554 1950 2300 2880 3150
2024-03-25 01:45 3.00 211 4250 (1974) 23 (1963) 1090 47 51 95 107 554 1950 2300 2880 3150
2024-03-25 00:45 2.99 209 4250 (1974) 23 (1963) 1090 47 51 95 107 554 1950 2300 2880 3150
2024-03-24 23:45 2.99 209 4250 (1974) 23 (1963) 1090 47 51 95 107 554 1950 2300 2880 3150
2024-03-24 22:45 2.99 209 5970 (1962) 23 (1963) 1190 47 51 99 109 580 1950 2490 2980 4170
2024-03-24 21:45 2.99 209 5970 (1962) 23 (1963) 1190 47 51 99 109 580 1950 2490 2980 4170
2024-03-24 20:45 2.99 209 5970 (1962) 23 (1963) 1190 47 51 99 109 580 1950 2490 2980 4170
2024-03-24 19:45 2.99 209 5970 (1962) 23 (1963) 1190 47 51 99 109 580 1950 2490 2980 4170
2024-03-24 18:45 2.99 209 5970 (1962) 23 (1963) 1190 47 51 99 109 580 1950 2490 2980 4170
2024-03-24 17:45 2.99 209 5970 (1962) 23 (1963) 1190 47 51 99 109 580 1950 2490 2980 4170
2024-03-24 16:45 2.99 209 5970 (1962) 23 (1963) 1190 47 51 99 109 580 1950 2490 2980 4170
2024-03-24 15:45 2.99 209 5970 (1962) 23 (1963) 1190 47 51 99 109 580 1950 2490 2980 4170
2024-03-24 14:45 3.00 211 5970 (1962) 23 (1963) 1190 47 51 99 109 580 1950 2490 2980 4170
2024-03-24 13:45 2.99 209 5970 (1962) 23 (1963) 1190 47 51 99 109 580 1950 2490 2980 4170
2024-03-24 12:45 2.99 209 5970 (1962) 23 (1963) 1190 47 51 99 109 580 1950 2490 2980 4170
2024-03-24 11:45 2.99 209 5970 (1962) 23 (1963) 1190 47 51 99 109 580 1950 2490 2980 4170
2024-03-24 10:45 2.99 209 5970 (1962) 23 (1963) 1190 47 51 99 109 580 1950 2490 2980 4170
2024-03-24 09:45 2.99 209 5970 (1962) 23 (1963) 1190 47 51 99 109 580 1950 2490 2980 4170
2024-03-24 08:45 2.99 209 5970 (1962) 23 (1963) 1190 47 51 99 109 580 1950 2490 2980 4170
2024-03-24 07:45 2.99 209 5970 (1962) 23 (1963) 1190 47 51 99 109 580 1950 2490 2980 4170
2024-03-24 06:45 2.99 209 5970 (1962) 23 (1963) 1190 47 51 99 109 580 1950 2490 2980 4170
2024-03-24 05:45 2.99 209 5970 (1962) 23 (1963) 1190 47 51 99 109 580 1950 2490 2980 4170
2024-03-24 04:45 2.99 209 5970 (1962) 23 (1963) 1190 47 51 99 109 580 1950 2490 2980 4170
2024-03-24 03:45 2.99 209 5970 (1962) 23 (1963) 1190 47 51 99 109 580 1950 2490 2980 4170
2024-03-24 02:45 2.99 209 5970 (1962) 23 (1963) 1190 47 51 99 109 580 1950 2490 2980 4170
2024-03-24 01:45 2.99 209 5970 (1962) 23 (1963) 1190 47 51 99 109 580 1950 2490 2980 4170
2024-03-24 00:45 2.99 209 5970 (1962) 23 (1963) 1190 47 51 99 109 580 1950 2490 2980 4170
2024-03-23 23:45 2.99 209 5970 (1962) 23 (1963) 1190 47 51 99 109 580 1950 2490 2980 4170
2024-03-23 22:45 2.99 209 4520 (1973) 23 (1963) 1130 47 51 99 110 581 1920 2420 2990 3950
2024-03-23 21:45 2.99 209 4520 (1973) 23 (1963) 1130 47 51 99 110 581 1920 2420 2990 3950
2024-03-23 20:45 2.99 209 4520 (1973) 23 (1963) 1130 47 51 99 110 581 1920 2420 2990 3950
2024-03-23 19:45 2.99 209 4520 (1973) 23 (1963) 1130 47 51 99 110 581 1920 2420 2990 3950
2024-03-23 18:45 2.99 209 4520 (1973) 23 (1963) 1130 47 51 99 110 581 1920 2420 2990 3950
2024-03-23 17:45 2.99 209 4520 (1973) 23 (1963) 1130 47 51 99 110 581 1920 2420 2990 3950
2024-03-23 16:45 2.99 209 4520 (1973) 23 (1963) 1130 47 51 99 110 581 1920 2420 2990 3950
2024-03-23 15:45 2.99 209 4520 (1973) 23 (1963) 1130 47 51 99 110 581 1920 2420 2990 3950
2024-03-23 14:45 2.99 209 4520 (1973) 23 (1963) 1130 47 51 99 110 581 1920 2420 2990 3950
2024-03-23 13:45 2.99 209 4520 (1973) 23 (1963) 1130 47 51 99 110 581 1920 2420 2990 3950
2024-03-23 12:45 2.99 209 4520 (1973) 23 (1963) 1130 47 51 99 110 581 1920 2420 2990 3950
2024-03-23 11:45 2.99 209 4520 (1973) 23 (1963) 1130 47 51 99 110 581 1920 2420 2990 3950
2024-03-23 10:45 2.99 209 4520 (1973) 23 (1963) 1130 47 51 99 110 581 1920 2420 2990 3950
2024-03-23 09:45 2.99 209 4520 (1973) 23 (1963) 1130 47 51 99 110 581 1920 2420 2990 3950
2024-03-23 08:45 2.99 209 4520 (1973) 23 (1963) 1130 47 51 99 110 581 1920 2420 2990 3950
2024-03-23 07:45 2.99 209 4520 (1973) 23 (1963) 1130 47 51 99 110 581 1920 2420 2990 3950
2024-03-23 06:45 2.99 209 4520 (1973) 23 (1963) 1130 47 51 99 110 581 1920 2420 2990 3950
2024-03-23 05:45 2.99 209 4520 (1973) 23 (1963) 1130 47 51 99 110 581 1920 2420 2990 3950
2024-03-23 04:45 2.99 209 4520 (1973) 23 (1963) 1130 47 51 99 110 581 1920 2420 2990 3950
2024-03-23 03:45 2.99 209 4520 (1973) 23 (1963) 1130 47 51 99 110 581 1920 2420 2990 3950
2024-03-23 02:45 2.99 209 4520 (1973) 23 (1963) 1130 47 51 99 110 581 1920 2420 2990 3950
2024-03-23 01:45 2.99 209 4520 (1973) 23 (1963) 1130 47 51 99 110 581 1920 2420 2990 3950
2024-03-23 00:45 2.99 209 4520 (1973) 23 (1963) 1130 47 51 99 110 581 1920 2420 2990 3950
2024-03-22 23:45 3.00 211 4520 (1973) 23 (1963) 1130 47 51 99 110 581 1920 2420 2990 3950
2024-03-22 22:45 2.99 209 4520 (1973) 24 (1963) 997 41 50 85 99 484 1680 1990 2940 3440
2024-03-22 21:45 2.99 209 4520 (1973) 24 (1963) 997 41 50 85 99 484 1680 1990 2940 3440
2024-03-22 20:45 2.99 209 4520 (1973) 24 (1963) 997 41 50 85 99 484 1680 1990 2940 3440
2024-03-22 19:45 2.99 209 4520 (1973) 24 (1963) 997 41 50 85 99 484 1680 1990 2940 3440
2024-03-22 18:45 3.00 211 4520 (1973) 24 (1963) 997 41 50 85 99 484 1680 1990 2940 3440
2024-03-22 17:45 2.99 209 4520 (1973) 24 (1963) 997 41 50 85 99 484 1680 1990 2940 3440
2024-03-22 16:45 3.00 211 4520 (1973) 24 (1963) 997 41 50 85 99 484 1680 1990 2940 3440
2024-03-22 15:45 2.99 209 4520 (1973) 24 (1963) 997 41 50 85 99 484 1680 1990 2940 3440
2024-03-22 14:45 2.99 209 4520 (1973) 24 (1963) 997 41 50 85 99 484 1680 1990 2940 3440
2024-03-22 13:45 2.99 209 4520 (1973) 24 (1963) 997 41 50 85 99 484 1680 1990 2940 3440
2024-03-22 12:45 2.99 209 4520 (1973) 24 (1963) 997 41 50 85 99 484 1680 1990 2940 3440
2024-03-22 11:45 2.99 209 4520 (1973) 24 (1963) 997 41 50 85 99 484 1680 1990 2940 3440
2024-03-22 10:45 2.99 209 4520 (1973) 24 (1963) 997 41 50 85 99 484 1680 1990 2940 3440
2024-03-22 09:45 2.99 209 4520 (1973) 24 (1963) 997 41 50 85 99 484 1680 1990 2940 3440
2024-03-22 08:45 2.99 209 4520 (1973) 24 (1963) 997 41 50 85 99 484 1680 1990 2940 3440
2024-03-22 07:45 2.99 209 4520 (1973) 24 (1963) 997 41 50 85 99 484 1680 1990 2940 3440
2024-03-22 06:45 2.99 209 4520 (1973) 24 (1963) 997 41 50 85 99 484 1680 1990 2940 3440
2024-03-22 05:45 2.99 209 4520 (1973) 24 (1963) 997 41 50 85 99 484 1680 1990 2940 3440
2024-03-22 04:45 2.99 209 4520 (1973) 24 (1963) 997 41 50 85 99 484 1680 1990 2940 3440
2024-03-22 03:45 2.99 209 4520 (1973) 24 (1963) 997 41 50 85 99 484 1680 1990 2940 3440
2024-03-22 02:45 2.99 209 4520 (1973) 24 (1963) 997 41 50 85 99 484 1680 1990 2940 3440
2024-03-22 01:45 2.99 209 4520 (1973) 24 (1963) 997 41 50 85 99 484 1680 1990 2940 3440
2024-03-22 00:45 2.99 209 4520 (1973) 24 (1963) 997 41 50 85 99 484 1680 1990 2940 3440
2024-03-21 23:45 2.99 209 4520 (1973) 24 (1963) 997 41 50 85 99 484 1680 1990 2940 3440
2024-03-21 22:45 2.99 209 3530 (1985) 24 (1963) 967 41 50 82 98 484 1540 2150 2950 3180
2024-03-21 21:45 2.99 209 3530 (1985) 24 (1963) 967 41 50 82 98 484 1540 2150 2950 3180
2024-03-21 20:45 2.99 209 3530 (1985) 24 (1963) 967 41 50 82 98 484 1540 2150 2950 3180
2024-03-21 19:45 2.99 209 3530 (1985) 24 (1963) 967 41 50 82 98 484 1540 2150 2950 3180
2024-03-21 18:45 2.99 209 3530 (1985) 24 (1963) 967 41 50 82 98 484 1540 2150 2950 3180
2024-03-21 17:45 2.99 209 3530 (1985) 24 (1963) 967 41 50 82 98 484 1540 2150 2950 3180
2024-03-21 16:45 2.99 209 3530 (1985) 24 (1963) 967 41 50 82 98 484 1540 2150 2950 3180
2024-03-21 15:45 2.99 209 3530 (1985) 24 (1963) 967 41 50 82 98 484 1540 2150 2950 3180
2024-03-21 14:45 3.00 211 3530 (1985) 24 (1963) 967 41 50 82 98 484 1540 2150 2950 3180
2024-03-21 13:45 3.01 213 3530 (1985) 24 (1963) 967 41 50 82 98 484 1540 2150 2950 3180
2024-03-21 12:45 3.06 224 3530 (1985) 24 (1963) 967 41 50 82 98 484 1540 2150 2950 3180
2024-03-21 11:45 3.20 255 3530 (1985) 24 (1963) 967 41 50 82 98 484 1540 2150 2950 3180
2024-03-21 10:45 3.64 367 3530 (1985) 24 (1963) 967 41 50 82 98 484 1540 2150 2950 3180
2024-03-21 09:45 3.87 434 3530 (1985) 24 (1963) 967 41 50 82 98 484 1540 2150 2950 3180
2024-03-21 08:45 3.87 434 3530 (1985) 24 (1963) 967 41 50 82 98 484 1540 2150 2950 3180
2024-03-21 06:45 3.87 434 3530 (1985) 24 (1963) 967 41 50 82 98 484 1540 2150 2950 3180
2024-03-21 05:45 3.87 434 3530 (1985) 24 (1963) 967 41 50 82 98 484 1540 2150 2950 3180
2024-03-21 04:45 3.87 434 3530 (1985) 24 (1963) 967 41 50 82 98 484 1540 2150 2950 3180
2024-03-21 03:45 3.87 434 3530 (1985) 24 (1963) 967 41 50 82 98 484 1540 2150 2950 3180
2024-03-21 02:45 3.87 434 3530 (1985) 24 (1963) 967 41 50 82 98 484 1540 2150 2950 3180
2024-03-21 01:45 3.87 434 3530 (1985) 24 (1963) 967 41 50 82 98 484 1540 2150 2950 3180
2024-03-21 00:45 3.87 434 3530 (1985) 24 (1963) 967 41 50 82 98 484 1540 2150 2950 3180
2024-03-20 23:45 3.87 434 3530 (1985) 24 (1963) 967 41 50 82 98 484 1540 2150 2950 3180
2024-03-20 22:45 3.87 434 3490 (1985) 24 (1963) 811 42 50 86 98 494 1050 1190 2700 3000
2024-03-20 21:45 3.87 434 3490 (1985) 24 (1963) 811 42 50 86 98 494 1050 1190 2700 3000
2024-03-20 20:45 3.87 434 3490 (1985) 24 (1963) 811 42 50 86 98 494 1050 1190 2700 3000
2024-03-20 19:45 3.87 434 3490 (1985) 24 (1963) 811 42 50 86 98 494 1050 1190 2700 3000
2024-03-20 18:45 3.87 434 3490 (1985) 24 (1963) 811 42 50 86 98 494 1050 1190 2700 3000
2024-03-20 17:45 3.87 434 3490 (1985) 24 (1963) 811 42 50 86 98 494 1050 1190 2700 3000
2024-03-20 16:45 3.88 438 3490 (1985) 24 (1963) 811 42 50 86 98 494 1050 1190 2700 3000
2024-03-20 15:45 3.90 444 3490 (1985) 24 (1963) 811 42 50 86 98 494 1050 1190 2700 3000
2024-03-20 14:45 3.97 466 3490 (1985) 24 (1963) 811 42 50 86 98 494 1050 1190 2700 3000
2024-03-20 13:45 4.24 554 3490 (1985) 24 (1963) 811 42 50 86 98 494 1050 1190 2700 3000
2024-03-20 12:45 5.21 942 3490 (1985) 24 (1963) 811 42 50 86 98 494 1050 1190 2700 3000
2024-03-20 11:45 5.20 938 3490 (1985) 24 (1963) 811 42 50 86 98 494 1050 1190 2700 3000
2024-03-20 10:45 5.21 942 3490 (1985) 24 (1963) 811 42 50 86 98 494 1050 1190 2700 3000
2024-03-20 09:45 5.20 938 3490 (1985) 24 (1963) 811 42 50 86 98 494 1050 1190 2700 3000
2024-03-20 08:45 5.21 942 3490 (1985) 24 (1963) 811 42 50 86 98 494 1050 1190 2700 3000
2024-03-20 07:45 5.21 942 3490 (1985) 24 (1963) 811 42 50 86 98 494 1050 1190 2700 3000
2024-03-20 06:45 5.21 942 3490 (1985) 24 (1963) 811 42 50 86 98 494 1050 1190 2700 3000
2024-03-20 05:45 5.21 942 3490 (1985) 24 (1963) 811 42 50 86 98 494 1050 1190 2700 3000
2024-03-20 04:45 5.21 942 3490 (1985) 24 (1963) 811 42 50 86 98 494 1050 1190 2700 3000
2024-03-20 03:45 5.21 942 3490 (1985) 24 (1963) 811 42 50 86 98 494 1050 1190 2700 3000
2024-03-20 02:45 5.21 942 3490 (1985) 24 (1963) 811 42 50 86 98 494 1050 1190 2700 3000
2024-03-20 01:45 5.20 938 3490 (1985) 24 (1963) 811 42 50 86 98 494 1050 1190 2700 3000
2024-03-20 00:45 5.21 942 3490 (1985) 24 (1963) 811 42 50 86 98 494 1050 1190 2700 3000
2024-03-19 23:45 5.20 938 3490 (1985) 24 (1963) 811 42 50 86 98 494 1050 1190 2700 3000
2024-03-19 22:45 5.21 942 3410 (1985) 25 (1963) 727 37 48 58 92 383 989 1180 2480 2770
2024-03-19 21:45 5.21 942 3410 (1985) 25 (1963) 727 37 48 58 92 383 989 1180 2480 2770
2024-03-19 20:45 5.21 942 3410 (1985) 25 (1963) 727 37 48 58 92 383 989 1180 2480 2770
2024-03-19 19:45 5.21 942 3410 (1985) 25 (1963) 727 37 48 58 92 383 989 1180 2480 2770
2024-03-19 18:45 5.21 942 3410 (1985) 25 (1963) 727 37 48 58 92 383 989 1180 2480 2770
2024-03-19 17:45 5.22 947 3410 (1985) 25 (1963) 727 37 48 58 92 383 989 1180 2480 2770
2024-03-19 16:45 5.21 942 3410 (1985) 25 (1963) 727 37 48 58 92 383 989 1180 2480 2770
2024-03-19 15:45 5.21 942 3410 (1985) 25 (1963) 727 37 48 58 92 383 989 1180 2480 2770
2024-03-19 14:45 5.21 942 3410 (1985) 25 (1963) 727 37 48 58 92 383 989 1180 2480 2770
2024-03-19 13:45 5.22 947 3410 (1985) 25 (1963) 727 37 48 58 92 383 989 1180 2480 2770
2024-03-19 12:45 5.22 947 3410 (1985) 25 (1963) 727 37 48 58 92 383 989 1180 2480 2770
2024-03-19 11:45 5.25 961 3410 (1985) 25 (1963) 727 37 48 58 92 383 989 1180 2480 2770
2024-03-19 10:45 5.40 1030 3410 (1985) 25 (1963) 727 37 48 58 92 383 989 1180 2480 2770
2024-03-19 09:45 6.17 1450 3410 (1985) 25 (1963) 727 37 48 58 92 383 989 1180 2480 2770
2024-03-19 08:45 6.18 1450 3410 (1985) 25 (1963) 727 37 48 58 92 383 989 1180 2480 2770
2024-03-19 07:45 6.19 1460 3410 (1985) 25 (1963) 727 37 48 58 92 383 989 1180 2480 2770
2024-03-19 06:45 6.18 1450 3410 (1985) 25 (1963) 727 37 48 58 92 383 989 1180 2480 2770
2024-03-19 05:45 6.18 1450 3410 (1985) 25 (1963) 727 37 48 58 92 383 989 1180 2480 2770
2024-03-19 04:45 6.19 1460 3410 (1985) 25 (1963) 727 37 48 58 92 383 989 1180 2480 2770
2024-03-19 03:45 6.18 1450 3410 (1985) 25 (1963) 727 37 48 58 92 383 989 1180 2480 2770
2024-03-19 02:45 6.19 1460 3410 (1985) 25 (1963) 727 37 48 58 92 383 989 1180 2480 2770
2024-03-19 01:45 6.18 1450 3410 (1985) 25 (1963) 727 37 48 58 92 383 989 1180 2480 2770
2024-03-19 00:45 6.19 1460 3410 (1985) 25 (1963) 727 37 48 58 92 383 989 1180 2480 2770
2024-03-18 23:45 6.19 1460 3410 (1985) 25 (1963) 727 37 48 58 92 383 989 1180 2480 2770
2024-03-18 22:45 6.18 1450 3420 (1985) 25 (1963) 735 47 48 88 93 466 989 1510 2310 2820
2024-03-18 21:45 6.19 1460 3420 (1985) 25 (1963) 735 47 48 88 93 466 989 1510 2310 2820
2024-03-18 20:45 6.19 1460 3420 (1985) 25 (1963) 735 47 48 88 93 466 989 1510 2310 2820
2024-03-18 19:45 6.18 1450 3420 (1985) 25 (1963) 735 47 48 88 93 466 989 1510 2310 2820
2024-03-18 18:45 6.19 1460 3420 (1985) 25 (1963) 735 47 48 88 93 466 989 1510 2310 2820
2024-03-18 17:45 6.19 1460 3420 (1985) 25 (1963) 735 47 48 88 93 466 989 1510 2310 2820
2024-03-18 16:45 6.19 1460 3420 (1985) 25 (1963) 735 47 48 88 93 466 989 1510 2310 2820
2024-03-18 15:45 6.19 1460 3420 (1985) 25 (1963) 735 47 48 88 93 466 989 1510 2310 2820
2024-03-18 14:45 6.20 1460 3420 (1985) 25 (1963) 735 47 48 88 93 466 989 1510 2310 2820
2024-03-18 13:45 6.19 1460 3420 (1985) 25 (1963) 735 47 48 88 93 466 989 1510 2310 2820
2024-03-18 12:45 6.19 1460 3420 (1985) 25 (1963) 735 47 48 88 93 466 989 1510 2310 2820
2024-03-18 11:45 6.19 1460 3420 (1985) 25 (1963) 735 47 48 88 93 466 989 1510 2310 2820
2024-03-18 10:45 6.19 1460 3420 (1985) 25 (1963) 735 47 48 88 93 466 989 1510 2310 2820
2024-03-18 09:45 6.20 1460 3420 (1985) 25 (1963) 735 47 48 88 93 466 989 1510 2310 2820
2024-03-18 08:45 6.19 1460 3420 (1985) 25 (1963) 735 47 48 88 93 466 989 1510 2310 2820
2024-03-18 07:45 6.19 1460 3420 (1985) 25 (1963) 735 47 48 88 93 466 989 1510 2310 2820
2024-03-18 06:45 6.18 1450 3420 (1985) 25 (1963) 735 47 48 88 93 466 989 1510 2310 2820
2024-03-18 05:45 6.19 1460 3420 (1985) 25 (1963) 735 47 48 88 93 466 989 1510 2310 2820
2024-03-18 04:45 6.19 1460 3420 (1985) 25 (1963) 735 47 48 88 93 466 989 1510 2310 2820
2024-03-18 03:45 6.19 1460 3420 (1985) 25 (1963) 735 47 48 88 93 466 989 1510 2310 2820
2024-03-18 02:45 6.19 1460 3420 (1985) 25 (1963) 735 47 48 88 93 466 989 1510 2310 2820
2024-03-18 01:45 6.19 1460 3420 (1985) 25 (1963) 735 47 48 88 93 466 989 1510 2310 2820
2024-03-18 00:45 6.20 1460 3420 (1985) 25 (1963) 735 47 48 88 93 466 989 1510 2310 2820
2024-03-17 23:45 6.19 1460 3420 (1985) 25 (1963) 735 47 48 88 93 466 989 1510 2310 2820
2024-03-17 22:45 6.19 1460 3420 (1985) 0 (1971) 777 30 48 80 91 447 1070 1510 2500 2910
2024-03-17 21:45 6.20 1460 3420 (1985) 0 (1971) 777 30 48 80 91 447 1070 1510 2500 2910
2024-03-17 20:45 6.20 1460 3420 (1985) 0 (1971) 777 30 48 80 91 447 1070 1510 2500 2910
2024-03-17 19:45 6.20 1460 3420 (1985) 0 (1971) 777 30 48 80 91 447 1070 1510 2500 2910
2024-03-17 18:45 6.19 1460 3420 (1985) 0 (1971) 777 30 48 80 91 447 1070 1510 2500 2910
2024-03-17 17:45 6.20 1460 3420 (1985) 0 (1971) 777 30 48 80 91 447 1070 1510 2500 2910
2024-03-17 16:45 6.20 1460 3420 (1985) 0 (1971) 777 30 48 80 91 447 1070 1510 2500 2910
2024-03-17 15:45 6.20 1460 3420 (1985) 0 (1971) 777 30 48 80 91 447 1070 1510 2500 2910
2024-03-17 14:45 6.20 1460 3420 (1985) 0 (1971) 777 30 48 80 91 447 1070 1510 2500 2910
2024-03-17 13:45 6.20 1460 3420 (1985) 0 (1971) 777 30 48 80 91 447 1070 1510 2500 2910
2024-03-17 12:45 6.21 1470 3420 (1985) 0 (1971) 777 30 48 80 91 447 1070 1510 2500 2910
2024-03-17 11:45 6.19 1460 3420 (1985) 0 (1971) 777 30 48 80 91 447 1070 1510 2500 2910
2024-03-17 10:45 6.20 1460 3420 (1985) 0 (1971) 777 30 48 80 91 447 1070 1510 2500 2910
2024-03-17 09:45 6.20 1460 3420 (1985) 0 (1971) 777 30 48 80 91 447 1070 1510 2500 2910
2024-03-17 08:45 6.19 1460 3420 (1985) 0 (1971) 777 30 48 80 91 447 1070 1510 2500 2910
2024-03-17 07:45 6.19 1460 3420 (1985) 0 (1971) 777 30 48 80 91 447 1070 1510 2500 2910
2024-03-17 06:45 6.20 1460 3420 (1985) 0 (1971) 777 30 48 80 91 447 1070 1510 2500 2910
2024-03-17 05:45 6.19 1460 3420 (1985) 0 (1971) 777 30 48 80 91 447 1070 1510 2500 2910
2024-03-17 04:45 6.20 1460 3420 (1985) 0 (1971) 777 30 48 80 91 447 1070 1510 2500 2910
2024-03-17 03:45 6.20 1460 3420 (1985) 0 (1971) 777 30 48 80 91 447 1070 1510 2500 2910
2024-03-17 02:45 6.20 1460 3420 (1985) 0 (1971) 777 30 48 80 91 447 1070 1510 2500 2910
2024-03-17 01:45 6.20 1460 3420 (1985) 0 (1971) 777 30 48 80 91 447 1070 1510 2500 2910
2024-03-17 00:45 6.20 1460 3420 (1985) 0 (1971) 777 30 48 80 91 447 1070 1510 2500 2910
2024-03-16 23:45 6.20 1460 3420 (1985) 0 (1971) 777 30 48 80 91 447 1070 1510 2500 2910
2024-03-16 22:45 6.19 1460 3440 (1985) 0 (1971) 803 29 49 82 95 465 1110 1870 2500 2910
2024-03-16 21:45 6.19 1460 3440 (1985) 0 (1971) 803 29 49 82 95 465 1110 1870 2500 2910
2024-03-16 20:45 6.20 1460 3440 (1985) 0 (1971) 803 29 49 82 95 465 1110 1870 2500 2910
2024-03-16 19:45 6.20 1460 3440 (1985) 0 (1971) 803 29 49 82 95 465 1110 1870 2500 2910
2024-03-16 18:45 6.20 1460 3440 (1985) 0 (1971) 803 29 49 82 95 465 1110 1870 2500 2910
2024-03-16 17:45 6.21 1470 3440 (1985) 0 (1971) 803 29 49 82 95 465 1110 1870 2500 2910
2024-03-16 16:45 6.20 1460 3440 (1985) 0 (1971) 803 29 49 82 95 465 1110 1870 2500 2910
2024-03-16 15:45 6.21 1470 3440 (1985) 0 (1971) 803 29 49 82 95 465 1110 1870 2500 2910
2024-03-16 14:45 6.21 1470 3440 (1985) 0 (1971) 803 29 49 82 95 465 1110 1870 2500 2910
2024-03-16 13:45 6.21 1470 3440 (1985) 0 (1971) 803 29 49 82 95 465 1110 1870 2500 2910
2024-03-16 12:45 6.21 1470 3440 (1985) 0 (1971) 803 29 49 82 95 465 1110 1870 2500 2910
2024-03-16 11:45 6.20 1460 3440 (1985) 0 (1971) 803 29 49 82 95 465 1110 1870 2500 2910
2024-03-16 10:45 6.20 1460 3440 (1985) 0 (1971) 803 29 49 82 95 465 1110 1870 2500 2910
2024-03-16 09:45 6.20 1460 3440 (1985) 0 (1971) 803 29 49 82 95 465 1110 1870 2500 2910
2024-03-16 08:45 6.21 1470 3440 (1985) 0 (1971) 803 29 49 82 95 465 1110 1870 2500 2910
2024-03-16 07:45 6.21 1470 3440 (1985) 0 (1971) 803 29 49 82 95 465 1110 1870 2500 2910
2024-03-16 06:45 6.20 1460 3440 (1985) 0 (1971) 803 29 49 82 95 465 1110 1870 2500 2910
2024-03-16 05:45 6.20 1460 3440 (1985) 0 (1971) 803 29 49 82 95 465 1110 1870 2500 2910
2024-03-16 04:45 6.21 1470 3440 (1985) 0 (1971) 803 29 49 82 95 465 1110 1870 2500 2910
2024-03-16 03:45 6.20 1460 3440 (1985) 0 (1971) 803 29 49 82 95 465 1110 1870 2500 2910
2024-03-16 02:45 6.20 1460 3440 (1985) 0 (1971) 803 29 49 82 95 465 1110 1870 2500 2910
2024-03-16 01:45 6.20 1460 3440 (1985) 0 (1971) 803 29 49 82 95 465 1110 1870 2500 2910
2024-03-16 00:45 6.20 1460 3440 (1985) 0 (1971) 803 29 49 82 95 465 1110 1870 2500 2910
2024-03-15 23:45 6.20 1460 3440 (1985) 0 (1971) 803 29 49 82 95 465 1110 1870 2500 2910
2024-03-15 22:45 6.21 1470 3450 (1985) 0 (1971) 762 28 49 78 91 463 1070 1490 2320 2910
2024-03-15 21:45 6.21 1470 3450 (1985) 0 (1971) 762 28 49 78 91 463 1070 1490 2320 2910
2024-03-15 20:45 6.20 1460 3450 (1985) 0 (1971) 762 28 49 78 91 463 1070 1490 2320 2910
2024-03-15 19:45 6.21 1470 3450 (1985) 0 (1971) 762 28 49 78 91 463 1070 1490 2320 2910
2024-03-15 18:45 6.20 1460 3450 (1985) 0 (1971) 762 28 49 78 91 463 1070 1490 2320 2910
2024-03-15 17:45 6.21 1470 3450 (1985) 0 (1971) 762 28 49 78 91 463 1070 1490 2320 2910
2024-03-15 16:45 6.20 1460 3450 (1985) 0 (1971) 762 28 49 78 91 463 1070 1490 2320 2910
2024-03-15 15:45 6.21 1470 3450 (1985) 0 (1971) 762 28 49 78 91 463 1070 1490 2320 2910
2024-03-15 14:45 6.20 1460 3450 (1985) 0 (1971) 762 28 49 78 91 463 1070 1490 2320 2910
2024-03-15 13:45 6.20 1460 3450 (1985) 0 (1971) 762 28 49 78 91 463 1070 1490 2320 2910
2024-03-15 12:45 6.21 1470 3450 (1985) 0 (1971) 762 28 49 78 91 463 1070 1490 2320 2910
2024-03-15 11:45 6.21 1470 3450 (1985) 0 (1971) 762 28 49 78 91 463 1070 1490 2320 2910
2024-03-15 10:45 6.20 1460 3450 (1985) 0 (1971) 762 28 49 78 91 463 1070 1490 2320 2910
2024-03-15 09:45 6.21 1470 3450 (1985) 0 (1971) 762 28 49 78 91 463 1070 1490 2320 2910
2024-03-15 08:45 6.21 1470 3450 (1985) 0 (1971) 762 28 49 78 91 463 1070 1490 2320 2910
2024-03-15 07:45 6.21 1470 3450 (1985) 0 (1971) 762 28 49 78 91 463 1070 1490 2320 2910
2024-03-15 06:45 6.21 1470 3450 (1985) 0 (1971) 762 28 49 78 91 463 1070 1490 2320 2910
2024-03-15 05:45 6.20 1460 3450 (1985) 0 (1971) 762 28 49 78 91 463 1070 1490 2320 2910
2024-03-15 04:45 6.21 1470 3450 (1985) 0 (1971) 762 28 49 78 91 463 1070 1490 2320 2910
2024-03-15 03:45 6.21 1470 3450 (1985) 0 (1971) 762 28 49 78 91 463 1070 1490 2320 2910
2024-03-15 02:45 6.22 1470 3450 (1985) 0 (1971) 762 28 49 78 91 463 1070 1490 2320 2910
2024-03-15 01:45 6.22 1470 3450 (1985) 0 (1971) 762 28 49 78 91 463 1070 1490 2320 2910
2024-03-15 00:45 6.22 1470 3450 (1985) 0 (1971) 762 28 49 78 91 463 1070 1490 2320 2910
2024-03-14 23:45 6.22 1470 3450 (1985) 0 (1971) 762 28 49 78 91 463 1070 1490 2320 2910
2024-03-14 22:45 6.21 1470 3460 (1985) 0 (1971) 738 25 48 60 90 378 1070 1500 2240 2780
2024-03-14 21:45 6.21 1470 3460 (1985) 0 (1971) 738 25 48 60 90 378 1070 1500 2240 2780
2024-03-14 20:45 6.22 1470 3460 (1985) 0 (1971) 738 25 48 60 90 378 1070 1500 2240 2780
2024-03-14 19:45 6.22 1470 3460 (1985) 0 (1971) 738 25 48 60 90 378 1070 1500 2240 2780
2024-03-14 18:45 6.21 1470 3460 (1985) 0 (1971) 738 25 48 60 90 378 1070 1500 2240 2780
2024-03-14 17:45 6.22 1470 3460 (1985) 0 (1971) 738 25 48 60 90 378 1070 1500 2240 2780
2024-03-14 16:45 6.25 1490 3460 (1985) 0 (1971) 738 25 48 60 90 378 1070 1500 2240 2780
2024-03-14 15:45 6.21 1470 3460 (1985) 0 (1971) 738 25 48 60 90 378 1070 1500 2240 2780
2024-03-14 14:45 6.21 1470 3460 (1985) 0 (1971) 738 25 48 60 90 378 1070 1500 2240 2780
2024-03-14 13:45 6.21 1470 3460 (1985) 0 (1971) 738 25 48 60 90 378 1070 1500 2240 2780
2024-03-14 12:45 6.22 1470 3460 (1985) 0 (1971) 738 25 48 60 90 378 1070 1500 2240 2780
2024-03-14 11:45 6.22 1470 3460 (1985) 0 (1971) 738 25 48 60 90 378 1070 1500 2240 2780
2024-03-14 10:45 6.22 1470 3460 (1985) 0 (1971) 738 25 48 60 90 378 1070 1500 2240 2780
2024-03-14 09:45 6.22 1470 3460 (1985) 0 (1971) 738 25 48 60 90 378 1070 1500 2240 2780
2024-03-14 08:45 6.22 1470 3460 (1985) 0 (1971) 738 25 48 60 90 378 1070 1500 2240 2780
2024-03-14 07:45 6.22 1470 3460 (1985) 0 (1971) 738 25 48 60 90 378 1070 1500 2240 2780
2024-03-14 06:45 6.24 1490 3460 (1985) 0 (1971) 738 25 48 60 90 378 1070 1500 2240 2780
2024-03-14 05:45 6.22 1470 3460 (1985) 0 (1971) 738 25 48 60 90 378 1070 1500 2240 2780
2024-03-14 04:45 6.22 1470 3460 (1985) 0 (1971) 738 25 48 60 90 378 1070 1500 2240 2780
2024-03-14 03:45 6.22 1470 3460 (1985) 0 (1971) 738 25 48 60 90 378 1070 1500 2240 2780
2024-03-14 02:45 6.22 1470 3460 (1985) 0 (1971) 738 25 48 60 90 378 1070 1500 2240 2780
2024-03-14 01:45 6.21 1470 3460 (1985) 0 (1971) 738 25 48 60 90 378 1070 1500 2240 2780
2024-03-14 00:45 6.22 1470 3460 (1985) 0 (1971) 738 25 48 60 90 378 1070 1500 2240 2780
2024-03-13 23:45 6.22 1470 3460 (1985) 0 (1971) 738 25 48 60 90 378 1070 1500 2240 2780
2024-03-13 22:45 6.22 1470 3470 (1985) 0 (1971) 743 28 49 56 89 402 1110 1570 2010 2790
2024-03-13 21:45 6.21 1470 3470 (1985) 0 (1971) 743 28 49 56 89 402 1110 1570 2010 2790
2024-03-13 20:45 6.22 1470 3470 (1985) 0 (1971) 743 28 49 56 89 402 1110 1570 2010 2790
2024-03-13 19:45 6.22 1470 3470 (1985) 0 (1971) 743 28 49 56 89 402 1110 1570 2010 2790
2024-03-13 18:45 6.23 1480 3470 (1985) 0 (1971) 743 28 49 56 89 402 1110 1570 2010 2790
2024-03-13 17:45 6.22 1470 3470 (1985) 0 (1971) 743 28 49 56 89 402 1110 1570 2010 2790
2024-03-13 16:45 6.22 1470 3470 (1985) 0 (1971) 743 28 49 56 89 402 1110 1570 2010 2790
2024-03-13 15:45 6.22 1470 3470 (1985) 0 (1971) 743 28 49 56 89 402 1110 1570 2010 2790
2024-03-13 14:45 6.22 1470 3470 (1985) 0 (1971) 743 28 49 56 89 402 1110 1570 2010 2790
2024-03-13 13:45 6.22 1470 3470 (1985) 0 (1971) 743 28 49 56 89 402 1110 1570 2010 2790
2024-03-13 12:45 6.23 1480 3470 (1985) 0 (1971) 743 28 49 56